[[{"header":{"parameterUnit":"m.s-1","parameterCategory":1,"la1":30.6,"la2":28.766,"lo1":-90.7593,"lo2":-88.6598,"dy":0.0162,"dx":0.0183,"nx":116,"ny":114,"refTime":"2023-07-14T12:00:00:Z","depth":0,"parameterNumber":2,"parameterNumberName":"U-component_of_WINDS"},"data":[0.0,0.0,0.0,0.0,0.0,0.0,0.0,0.0,0.0,0.0,0.0,0.0,0.0,0.0,0.0,0.0,0.0,0.0,0.0,0.0,0.0,0.0,0.0,0.0,0.0,0.0,0.0,0.0,0.0,0.0,0.0,0.0,0.0,0.0,0.0,0.0,0.0,0.0,0.0,0.0,0.0,0.0,0.0,0.0,0.0,0.0,0.0,0.0,0.0,0.0,0.0,0.0,0.0,0.0,0.0,0.0,0.0,0.0,0.0,0.0,0.0,0.0,0.0,0.0,0.0,0.0,0.0,0.0,0.0,0.0,0.0,0.0,0.0,0.0,0.0,0.0,0.0,0.0,0.0,0.0,0.0,0.0,0.0,0.0,0.0,0.0,0.0,0.0,0.0,0.0,0.0,0.0,0.0,0.0,0.0,0.0,0.0,0.0,0.0,0.0,0.0,0.0,0.0,0.0,0.0,0.0,0.0,0.0,0.0,0.0,0.0,0.0,0.0,0.0,0.0,0.0,0.0,0.0,0.0,0.0,0.0,0.0,0.0,0.0,0.0,0.0,0.0,0.0,0.0,0.0,0.0,0.0,0.0,0.0,0.0,0.0,0.0,0.0,0.0,0.0,0.0,0.0,0.0,0.0,0.0,0.0,0.0,0.0,0.0,0.0,0.0,0.0,0.0,0.0,0.0,0.0,0.0,0.0,0.0,0.0,0.0,0.0,0.0,0.0,0.0,0.0,0.0,0.0,0.0,0.0,0.0,0.0,0.0,0.0,0.0,0.0,0.0,0.0,0.0,0.0,0.0,0.0,0.0,0.0,0.0,0.0,0.0,0.0,0.0,0.0,0.0,0.0,0.0,0.0,0.0,0.0,0.0,0.0,0.0,0.0,0.0,0.0,0.0,0.0,0.0,0.0,0.0,0.0,0.0,0.0,0.0,0.0,0.0,0.0,0.0,0.0,0.0,0.0,0.0,0.0,0.0,0.0,0.0,0.0,0.0,0.0,0.0,0.0,0.0,0.0,0.0,0.0,0.0,0.0,0.0,0.0,0.0,0.0,0.0,0.0,0.0,0.0,0.0,0.0,0.0,0.0,0.0,0.0,0.0,0.0,0.0,0.0,0.0,0.0,0.0,0.0,0.0,0.0,0.0,0.0,0.0,0.0,0.0,0.0,0.0,0.0,0.0,0.0,0.0,0.0,0.0,0.0,0.0,0.0,0.0,0.0,0.0,0.0,0.0,0.0,0.0,0.0,0.0,0.0,0.0,0.0,0.0,0.0,0.0,0.0,0.0,0.0,0.0,0.0,0.0,0.0,0.0,0.0,0.0,0.0,0.0,0.0,0.0,0.0,0.0,0.0,0.0,0.0,0.0,0.0,0.0,0.0,0.0,0.0,0.0,0.0,0.0,0.0,0.0,0.0,0.0,0.0,0.0,0.0,0.0,0.0,0.0,0.0,0.0,0.0,0.0,0.0,0.0,0.0,0.0,0.0,0.0,0.0,0.0,0.0,0.0,0.0,0.0,0.0,0.0,0.0,0.0,0.0,0.0,0.0,0.0,0.0,0.0,0.0,0.0,0.0,0.0,0.0,0.0,0.0,0.0,0.0,0.0,0.0,0.0,0.0,0.0,0.0,0.0,0.0,0.0,0.0,0.0,0.0,0.0,0.0,0.0,0.0,0.0,0.0,0.0,0.0,0.0,0.0,0.0,0.0,0.0,0.0,0.0,0.0,0.0,0.0,0.0,0.0,0.0,0.0,0.0,0.0,0.0,0.0,0.0,0.0,0.0,0.0,0.0,0.0,0.0,0.0,0.0,0.0,0.0,0.0,0.0,0.0,0.0,0.0,0.0,0.0,0.0,0.0,0.0,0.0,0.0,0.0,0.0,0.0,0.0,0.0,0.0,0.0,0.0,0.0,0.0,0.0,0.0,0.0,0.0,0.0,0.0,0.0,0.0,0.0,0.0,0.0,0.0,0.0,0.0,0.0,0.0,0.0,0.0,0.0,0.0,0.0,0.0,0.0,0.0,0.0,0.0,0.0,0.0,0.0,0.0,0.0,0.0,0.0,0.0,0.0,0.0,0.0,0.0,0.0,0.0,0.0,0.0,0.0,0.0,0.0,0.0,0.0,0.0,0.0,0.0,0.0,0.0,0.0,0.0,0.0,0.0,0.0,0.0,0.0,0.0,0.0,0.0,0.0,0.0,0.0,0.0,0.0,0.0,0.0,0.0,0.0,0.0,0.0,0.0,0.0,0.0,0.0,0.0,0.0,0.0,0.0,0.0,0.0,0.0,0.0,0.0,0.0,0.0,0.0,0.0,0.0,0.0,0.0,0.0,0.0,0.0,0.0,0.0,0.0,0.0,0.0,0.0,0.0,0.0,0.0,0.0,0.0,0.0,0.0,0.0,0.0,0.0,0.0,0.0,0.0,0.0,0.0,0.0,0.0,0.0,0.0,0.0,0.0,0.0,0.0,0.0,0.0,0.0,0.0,0.0,0.0,0.0,0.0,0.0,0.0,0.0,0.0,0.0,0.0,0.0,0.0,0.0,0.0,0.0,0.0,0.0,0.0,0.0,0.0,0.0,0.0,0.0,0.0,0.0,0.0,0.0,0.0,0.0,0.0,0.0,0.0,0.0,0.0,0.0,0.0,0.0,0.0,0.0,0.0,0.0,0.0,0.0,0.0,0.0,0.0,0.0,0.0,0.0,0.0,0.0,0.0,0.0,0.0,0.0,0.0,0.0,0.0,0.0,0.0,0.0,0.0,0.0,0.0,0.0,0.0,0.0,0.0,0.0,0.0,0.0,0.0,0.0,0.0,0.0,0.0,0.0,0.0,0.0,0.0,0.0,0.0,0.0,0.0,0.0,0.0,0.0,0.0,0.0,0.0,0.0,0.0,0.0,0.0,0.0,0.0,0.0,0.0,0.0,0.0,0.0,0.0,0.0,0.0,0.0,0.0,0.0,0.0,0.0,0.0,0.0,0.0,0.0,0.0,0.0,0.0,0.0,0.0,0.0,0.0,0.0,0.0,0.0,0.0,0.0,0.0,0.0,0.0,0.0,0.0,0.0,0.0,0.0,0.0,0.0,0.0,0.0,0.0,0.0,0.0,0.0,0.0,0.0,0.0,0.0,0.0,0.0,0.0,0.0,0.0,0.0,0.0,0.0,0.0,0.0,0.0,0.0,0.0,0.0,0.0,0.0,0.0,0.0,0.0,0.0,0.0,0.0,0.0,0.0,0.0,0.0,0.0,0.0,0.0,0.0,0.0,0.0,0.0,0.0,0.0,0.0,0.0,0.0,0.0,0.0,0.0,0.0,0.0,0.0,0.0,0.0,0.0,0.0,0.0,0.0,0.0,0.0,0.0,0.0,0.0,0.0,0.0,0.0,0.0,0.0,0.0,0.0,0.0,0.0,0.0,0.0,0.0,0.0,0.0,0.0,0.0,0.0,0.0,0.0,0.0,0.0,0.0,0.0,0.0,0.0,0.0,0.0,0.0,0.0,0.0,0.0,0.0,0.0,0.0,0.0,0.0,0.0,0.0,0.0,0.0,0.0,0.0,0.0,0.0,0.0,0.0,0.0,0.0,0.0,0.0,0.0,0.0,0.0,0.0,0.0,0.0,0.0,0.0,0.0,0.0,0.0,0.0,0.0,0.0,0.0,0.0,0.0,0.0,0.0,0.0,0.0,0.0,0.0,0.0,0.0,0.0,0.0,0.0,0.0,0.0,0.0,0.0,0.0,0.0,0.0,0.0,0.0,0.0,0.0,0.0,0.0,0.0,0.0,0.0,0.0,0.0,0.0,0.0,0.0,0.0,0.0,0.0,0.0,0.0,0.0,0.0,0.0,0.0,0.0,0.0,0.0,0.0,0.0,0.0,0.0,0.0,0.0,0.0,0.0,0.0,0.0,0.0,0.0,0.0,0.0,0.0,0.0,0.0,0.0,0.0,0.0,0.0,0.0,0.0,0.0,0.0,0.0,0.0,0.0,0.0,0.0,0.0,0.0,0.0,0.0,0.0,0.0,0.0,0.0,0.0,0.0,0.0,0.0,0.0,0.0,0.0,0.0,0.0,0.0,0.0,0.0,0.0,0.0,0.0,0.0,0.0,0.0,0.0,0.0,0.0,0.0,0.0,0.0,0.0,0.0,0.0,0.0,0.0,0.0,0.0,0.0,0.0,0.0,0.0,0.0,0.0,0.0,0.0,0.0,0.0,0.0,0.0,0.0,0.0,0.0,0.0,0.0,0.0,0.0,0.0,0.0,0.0,0.0,0.0,0.0,0.0,0.0,0.0,0.0,0.0,0.0,0.0,0.0,0.0,0.0,0.0,0.0,0.0,0.0,0.0,0.0,0.0,0.0,0.0,0.0,0.0,0.0,0.0,0.0,0.0,0.0,0.0,0.0,0.0,0.0,0.0,0.0,0.0,0.0,0.0,0.0,0.0,0.0,0.0,0.0,0.0,0.0,0.0,0.0,0.0,0.0,0.0,0.0,0.0,0.0,0.0,0.0,0.0,0.0,0.0,0.0,0.0,0.0,0.0,0.0,0.0,0.0,0.0,0.0,0.0,0.0,0.0,0.0,0.0,0.0,0.0,0.0,0.0,0.0,0.0,0.0,0.0,0.0,0.0,0.0,0.0,0.0,0.0,0.0,0.0,0.0,0.0,0.0,0.0,0.0,0.0,0.0,0.0,0.0,0.0,0.0,0.0,0.0,0.0,0.0,0.0,0.0,0.0,0.0,0.0,0.0,0.0,0.0,0.0,0.0,0.0,0.0,0.0,0.0,0.0,0.0,0.0,0.0,0.0,0.0,0.0,0.0,0.0,0.0,0.0,0.0,0.0,0.0,0.0,0.0,0.0,0.0,0.0,0.0,0.0,0.0,0.0,0.0,0.0,0.0,0.0,0.0,0.0,0.0,0.0,0.0,0.0,0.0,0.0,0.0,0.0,0.0,0.0,0.0,0.0,0.0,0.0,0.0,0.0,0.0,0.0,0.0,0.0,0.0,0.0,0.0,0.0,0.0,0.0,0.0,0.0,0.0,0.0,0.0,0.0,0.0,0.0,0.0,0.0,0.0,0.0,0.0,0.0,0.0,0.0,0.0,0.0,0.0,0.0,0.0,0.0,0.0,0.0,0.0,0.0,0.0,0.0,0.0,0.0,0.0,0.0,0.0,0.0,0.0,0.0,0.0,0.0,0.0,0.0,0.0,0.0,0.0,0.0,0.0,0.0,0.0,0.0,0.0,0.0,0.0,0.0,0.0,0.0,0.0,0.0,0.0,0.0,0.0,0.0,0.0,0.0,0.0,0.0,0.0,0.0,0.0,0.0,0.0,0.0,0.0,0.0,0.0,0.0,0.0,0.0,0.0,0.0,0.0,0.0,0.0,0.0,0.0,0.0,0.0,0.0,0.0,0.0,0.0,0.0,0.0,0.0,0.0,0.0,0.0,0.0,0.0,0.0,0.0,0.0,0.0,0.0,0.0,0.0,0.0,0.0,0.0,0.0,0.0,0.0,0.0,0.0,0.0,0.0,0.0,0.0,0.0,0.0,0.0,0.0,0.0,0.0,0.0,0.0,0.0,0.0,0.0,0.0,0.0,0.0,0.0,0.0,0.0,0.0,0.0,0.0,0.0,0.0,0.0,0.0,0.0,0.0,0.0,0.0,0.0,0.0,0.0,0.0,0.0,0.0,0.0,0.0,0.0,0.0,0.0,0.0,0.0,0.0,0.0,0.0,0.0,0.0,0.0,0.0,0.0,0.0,0.0,0.0,0.0,0.0,0.0,0.0,0.0,0.0,0.0,0.0,0.0,0.0,0.0,0.0,0.0,0.0,0.0,0.0,0.0,0.0,0.0,0.0,0.0,0.0,0.0,0.0,0.0,0.0,0.0,0.0,0.0,0.0,0.0,0.0,0.0,0.0,0.0,0.0,0.0,0.0,0.0,0.0,0.0,0.0,0.0,0.0,0.0,0.0,0.0,0.0,0.0,0.0,0.0,0.0,0.0,0.0,0.0,0.0,0.0,0.0,0.0,0.0,0.0,0.0,0.0,0.0,0.0,0.0,0.0,0.0,0.0,0.0,0.0,0.0,0.0,0.0,0.0,0.0,-1.2598,0.0,0.0,0.0,0.0,0.0,0.0,0.0,0.0,0.0,0.0,0.0,0.0,0.0,0.0,0.0,0.0,0.0,0.0,0.0,0.0,0.0,0.0,0.0,0.0,0.0,0.0,0.0,0.0,0.0,0.0,0.0,0.0,0.0,0.0,0.0,0.0,0.0,0.0,0.0,0.0,0.0,0.0,0.0,0.0,0.0,0.0,0.0,0.0,0.0,0.0,0.0,0.0,0.0,0.0,0.0,0.0,0.0,0.0,0.0,0.0,0.0,0.0,0.0,0.0,0.0,0.0,0.0,0.0,0.0,0.0,0.0,0.0,0.0,0.0,0.0,0.0,0.0,0.0,0.0,0.0,0.0,0.0,0.0,0.0,0.0,0.0,0.0,0.0,0.0,0.0,0.0,0.0,0.0,0.0,0.0,0.0,0.0,0.0,0.0,0.0,0.0,0.0,0.0,0.0,0.0,0.0,0.0,0.0,0.0,0.0,0.0,0.0,0.0,0.0,0.0,0.0,-1.2166,0.0,0.0,0.0,0.0,0.0,0.0,0.0,0.0,0.0,0.0,0.0,0.0,0.0,0.0,0.0,0.0,0.0,0.0,0.0,0.0,0.0,0.0,0.0,0.0,0.0,0.0,0.0,0.0,0.0,0.0,0.0,0.0,0.0,0.0,0.0,0.0,0.0,0.0,0.0,0.0,0.0,0.0,0.0,0.0,0.0,0.0,0.0,0.0,0.0,0.0,0.0,0.0,0.0,0.0,0.0,0.0,0.0,0.0,0.0,0.0,0.0,0.0,0.0,0.0,0.0,0.0,0.0,0.0,0.0,0.0,0.0,0.0,0.0,0.0,0.0,0.0,0.0,0.0,0.0,0.0,0.0,0.0,0.0,0.0,0.0,0.0,0.0,0.0,0.0,0.0,0.0,0.0,0.0,0.0,0.0,0.0,0.0,0.0,0.0,0.0,0.0,0.0,0.0,0.0,0.0,0.0,0.0,0.0,0.0,-1.3446,-1.3305,-1.3063,-1.2716,-1.2496,-1.3223,-1.3574,-1.3628,0.0,0.0,0.0,0.0,0.0,0.0,0.0,0.0,0.0,0.0,0.0,0.0,0.0,0.0,0.0,0.0,0.0,0.0,0.0,0.0,0.0,0.0,0.0,0.0,0.0,0.0,0.0,0.0,0.0,0.0,0.0,0.0,0.0,0.0,0.0,0.0,0.0,0.0,0.0,-2.1043,-2.0911,-2.06,-2.017,-1.8986,0.0,0.0,0.0,0.0,0.0,0.0,0.0,0.0,0.0,0.0,0.0,0.0,0.0,0.0,0.0,0.0,0.0,0.0,0.0,0.0,0.0,0.0,0.0,0.0,0.0,0.0,0.0,0.0,0.0,0.0,0.0,0.0,0.0,0.0,0.0,0.0,0.0,0.0,0.0,0.0,0.0,0.0,0.0,-1.1791,-1.2353,0.0,0.0,0.0,0.0,0.0,0.0,0.0,0.0,0.0,0.0,0.0,0.0,0.0,0.0,-1.2235,-1.3159,-1.3705,-1.3726,-1.4651,-1.5184,-1.5541,-1.4917,-1.4667,-1.4523,-1.3454,0.0,-1.3808,-1.4071,0.0,0.0,0.0,0.0,0.0,0.0,0.0,0.0,0.0,0.0,0.0,0.0,0.0,0.0,0.0,0.0,0.0,0.0,0.0,0.0,0.0,0.0,0.0,0.0,0.0,0.0,0.0,0.0,0.0,0.0,0.0,0.0,0.0,0.0,0.0,0.0,-2.1197,-2.2297,-2.3189,-2.2556,-2.2535,-2.2972,-2.1807,-2.0412,-1.8891,-1.8052,0.0,0.0,0.0,0.0,0.0,0.0,0.0,0.0,0.0,0.0,0.0,0.0,0.0,0.0,0.0,0.0,0.0,0.0,0.0,0.0,0.0,0.0,0.0,0.0,0.0,0.0,0.0,0.0,0.0,0.0,0.0,0.0,0.0,0.0,0.0,0.0,0.0,0.0,0.0,-1.1874,-1.2221,-1.2539,-1.247,-1.2185,0.0,0.0,0.0,0.0,0.0,0.0,0.0,0.0,0.0,-1.3542,-1.3954,-1.4029,-1.3891,-1.4817,-1.5106,-1.4688,-1.5077,-1.5292,-1.5206,-1.4871,-1.4735,-1.4561,-1.3994,-1.4013,-1.4548,-1.4432,-1.3944,-1.3188,0.0,0.0,0.0,0.0,0.0,-1.2279,0.0,0.0,0.0,0.0,0.0,0.0,0.0,0.0,0.0,0.0,0.0,0.0,0.0,0.0,0.0,-1.8862,0.0,0.0,0.0,0.0,0.0,0.0,0.0,0.0,0.0,0.0,0.0,-2.0978,-2.1901,-2.3122,-2.46,-2.3594,-2.3635,-2.4408,-2.353,-2.2014,-2.0211,-1.9479,-1.8265,0.0,0.0,0.0,0.0,0.0,0.0,0.0,0.0,0.0,0.0,0.0,0.0,0.0,0.0,0.0,0.0,0.0,0.0,0.0,0.0,0.0,0.0,0.0,0.0,0.0,0.0,0.0,0.0,0.0,0.0,0.0,0.0,0.0,0.0,0.0,0.0,0.0,0.0,-1.2198,-1.2629,-1.2878,-1.3102,-1.3011,0.0,0.0,0.0,0.0,0.0,0.0,-1.3874,-1.3741,-1.3887,-1.4457,-1.5174,-1.5433,-1.5273,-1.613,-1.6109,-1.5337,-1.5386,-1.5267,-1.4994,-1.4967,-1.4777,-1.4606,-1.4704,-1.4923,-1.5217,-1.4731,-1.4161,-1.3517,-1.3401,-1.2751,-1.1917,-1.162,-1.2266,-1.3361,0.0,0.0,0.0,0.0,0.0,0.0,0.0,0.0,0.0,0.0,0.0,0.0,0.0,0.0,-1.952,-1.9135,-1.9309,-1.9082,0.0,0.0,0.0,0.0,0.0,0.0,0.0,0.0,0.0,-2.2243,-2.2904,-2.3433,-2.3722,-2.3069,-2.3086,-2.3615,-2.305,-2.215,-2.0894,-2.049,-1.9467,-1.804,0.0,0.0,0.0,0.0,0.0,0.0,0.0,0.0,0.0,0.0,0.0,0.0,0.0,0.0,0.0,0.0,0.0,0.0,0.0,0.0,0.0,0.0,0.0,0.0,0.0,0.0,0.0,0.0,0.0,0.0,0.0,0.0,0.0,0.0,0.0,0.0,0.0,0.0,0.0,-1.3844,-1.497,0.0,0.0,0.0,0.0,-1.3484,-1.3593,-1.4295,-1.5687,-1.5474,-1.587,-1.7099,-1.7179,-1.6757,-1.5758,-1.6079,-1.5947,-1.5458,-1.5485,-1.5725,-1.6247,-1.599,-1.5662,-1.5439,-1.5756,-1.5669,-1.5452,-1.5223,-1.4702,-1.4212,-1.398,-1.342,-1.2793,-1.2831,-1.3954,-1.5443,0.0,0.0,0.0,0.0,0.0,0.0,0.0,0.0,0.0,0.0,0.0,0.0,0.0,-1.9283,-2.0233,-1.9944,-2.0697,-2.0797,-2.0027,0.0,0.0,0.0,0.0,0.0,0.0,0.0,-2.0808,-2.1642,-2.2936,-2.3799,-2.4213,-2.3638,-2.4032,-2.5007,-2.4129,-2.3547,-2.3216,-2.1998,-2.0815,-1.9598,-1.8736,-1.7412,0.0,0.0,0.0,0.0,0.0,0.0,0.0,0.0,0.0,0.0,0.0,0.0,0.0,0.0,0.0,0.0,0.0,0.0,0.0,0.0,0.0,0.0,0.0,0.0,0.0,0.0,0.0,0.0,0.0,0.0,0.0,0.0,0.0,0.0,0.0,0.0,0.0,-1.4684,-1.5087,0.0,0.0,-1.5116,-1.5189,-1.5043,-1.5889,-1.6433,-1.6806,-1.6916,-1.7267,-1.7933,-1.775,-1.7355,-1.6673,-1.6593,-1.6056,-1.5269,-1.5257,-1.5348,-1.5552,-1.5445,-1.5336,-1.5246,-1.5546,-1.5638,-1.5751,-1.586,-1.5596,-1.521,-1.4433,-1.4431,-1.4654,-1.4077,-1.4611,-1.5704,0.0,0.0,0.0,0.0,0.0,0.0,0.0,0.0,0.0,0.0,0.0,-1.8401,-1.8459,-2.0096,-2.1125,-2.0959,-2.1818,-2.1797,-2.0685,0.0,0.0,0.0,0.0,0.0,0.0,-2.026,-2.1417,-2.2345,-2.3199,-2.3994,-2.4716,-2.4223,-2.4481,-2.5404,-2.4609,-2.4454,-2.4628,-2.3464,-2.2181,-2.1007,-1.9987,-1.8403,-1.6674,0.0,0.0,0.0,0.0,0.0,0.0,0.0,0.0,0.0,0.0,0.0,0.0,0.0,0.0,0.0,0.0,0.0,0.0,0.0,0.0,0.0,0.0,0.0,0.0,0.0,0.0,0.0,0.0,0.0,0.0,0.0,0.0,0.0,0.0,0.0,-1.4485,-1.539,-1.5632,-1.5877,-1.6199,-1.6235,-1.6367,-1.6674,-1.7494,-1.7882,-1.7669,-1.7867,-1.7981,-1.7995,-1.8098,-1.7754,-1.6935,-1.6945,-1.649,-1.5372,-1.5372,-1.5372,-1.5372,-1.5372,-1.5228,-1.5093,-1.5654,-1.5866,-1.5748,-1.6338,-1.6374,-1.6029,-1.5344,-1.5596,-1.6175,-1.5484,-1.5744,-1.642,0.0,0.0,0.0,0.0,0.0,0.0,0.0,0.0,0.0,0.0,-1.8956,-1.9578,-2.0537,-2.1513,-2.2101,-2.2101,-2.2478,-2.1894,-1.992,-1.9098,0.0,0.0,0.0,0.0,-2.0906,-2.1061,-2.2177,-2.4486,-2.3772,-2.4021,-2.5164,-2.4545,-2.435,-2.453,-2.453,-2.4781,-2.5164,-2.4705,-2.37,-2.228,-2.0693,-1.926,-1.801,0.0,0.0,0.0,0.0,0.0,0.0,0.0,0.0,0.0,0.0,0.0,0.0,0.0,0.0,0.0,0.0,0.0,0.0,0.0,0.0,0.0,0.0,0.0,0.0,0.0,0.0,0.0,0.0,0.0,0.0,0.0,0.0,0.0,-1.2473,-1.4207,-1.5584,-1.5935,-1.6799,-1.7479,-1.7801,-1.783,-1.7962,-1.8277,-1.8313,-1.8321,-1.8321,-1.8299,-1.8086,-1.7491,-1.829,-1.7939,-1.6291,-1.7115,-1.7054,-1.5903,-1.5903,-1.5903,-1.5916,-1.5903,-1.5591,-1.5103,-1.6179,-1.6228,-1.5486,-1.6713,-1.6994,-1.6734,-1.6714,-1.6881,-1.7134,-1.7134,-1.7315,-1.7549,0.0,0.0,0.0,0.0,0.0,0.0,0.0,0.0,0.0,0.0,-1.7455,-1.8554,-1.9337,-2.1018,-2.2176,-2.2327,-2.2553,-2.2034,-2.0539,0.0,0.0,0.0,0.0,0.0,-2.1773,-2.2586,-2.3362,-2.4295,-2.4592,-2.4832,-2.5175,-2.5228,-2.5337,-2.5513,-2.5348,-2.5413,-2.5666,-2.5185,-2.4749,-2.429,-2.3112,-2.1805,-2.0533,0.0,0.0,0.0,0.0,0.0,0.0,0.0,0.0,0.0,0.0,0.0,0.0,0.0,0.0,0.0,0.0,0.0,0.0,0.0,0.0,0.0,0.0,0.0,0.0,0.0,0.0,0.0,0.0,0.0,0.0,0.0,0.0,-1.4914,-1.4439,-1.5359,-1.6404,-1.7201,-1.7728,-1.8072,-1.816,-1.8167,-1.8203,-1.8291,-1.8525,-1.8657,-1.8657,-1.8203,-1.7753,-1.726,-1.7442,-1.6895,-1.57,-1.649,-1.6725,-1.6175,-1.6175,-1.6278,-1.6471,-1.6266,-1.6054,-1.5962,-1.6505,-1.6558,-1.6401,-1.7153,-1.7415,-1.7295,-1.6874,-1.676,-1.6827,-1.6827,-1.6881,-1.6854,0.0,0.0,0.0,0.0,0.0,0.0,0.0,0.0,0.0,0.0,-1.7514,-1.8691,-1.9767,-2.1349,-2.2402,-2.2553,-2.2703,-2.2071,-2.0369,0.0,0.0,0.0,0.0,-2.127,-2.2785,-2.3362,-2.3983,-2.4588,-2.5033,-2.5382,-2.5786,-2.5986,-2.6225,-2.6485,-2.6314,-2.641,-2.6463,-2.5983,-2.5786,-2.5699,-2.4727,-2.3471,-2.2127,-2.1658,-2.0698,-1.9649,-1.9632,-1.9536,-1.9263,-1.8522,0.0,0.0,0.0,0.0,0.0,0.0,0.0,0.0,0.0,0.0,0.0,0.0,0.0,0.0,0.0,0.0,0.0,0.0,0.0,0.0,0.0,0.0,0.0,0.0,-1.5083,-1.6198,-1.6227,-1.6831,-1.7384,-1.7955,-1.8189,-1.8357,-1.8496,-1.8503,-1.8562,-1.8701,-1.8884,-1.9052,-1.9191,-1.8622,-1.7952,-1.7424,-1.7564,-1.6965,-1.5694,-1.6617,-1.6786,-1.6278,-1.6398,-1.6483,-1.6525,-1.6477,-1.6381,0.0,-1.6668,-1.6717,-1.6509,-1.7272,-1.7582,0.0,0.0,0.0,0.0,0.0,-1.7074,-1.7001,0.0,0.0,0.0,0.0,0.0,0.0,0.0,0.0,0.0,0.0,0.0,-1.9511,-2.114,-2.2142,-2.2703,-2.2703,-2.2829,-2.1936,0.0,0.0,0.0,-2.084,-2.1374,-2.2346,-2.3787,-2.3864,-2.4334,-2.5251,-2.5306,-2.5775,-2.6627,-2.6682,-2.6922,-2.7315,-2.7315,-2.7315,-2.7282,-2.6878,-2.6682,-2.6562,-2.5677,-2.4497,-2.3198,-2.2739,-2.1756,-2.0632,-2.0398,-2.0068,-1.9812,-2.0047,0.0,0.0,0.0,0.0,0.0,0.0,0.0,0.0,0.0,0.0,0.0,0.0,0.0,0.0,0.0,0.0,0.0,0.0,0.0,0.0,0.0,0.0,0.0,0.0,-1.5952,-1.6945,-1.7801,-1.8203,-1.8401,-1.8364,-1.8394,-1.8525,-1.8818,-1.8877,-1.9023,-1.9308,-1.9367,-1.9506,-1.9692,0.0,0.0,0.0,0.0,-1.7418,-1.5849,-1.6851,-1.7141,-1.6484,-1.6733,-1.6739,-1.6539,-1.6758,-1.6448,-1.5971,-1.675,-1.6855,-1.6393,-1.7277,-1.7582,-1.7582,-1.7582,-1.7582,-1.7569,-1.7468,-1.7502,0.0,0.0,0.0,0.0,0.0,0.0,0.0,0.0,0.0,0.0,-1.769,-1.824,-1.9275,-2.1315,-2.2215,-2.2777,-2.2927,-2.2363,-2.1349,0.0,0.0,-1.9253,-2.084,-2.1831,-2.2985,-2.4312,-2.4705,-2.5175,-2.5764,-2.6147,-2.6441,-2.6638,-2.7009,-2.7228,-2.7315,-2.7315,-2.7315,-2.7304,-2.7217,-2.6966,-2.6616,-2.642,-2.5699,-2.4705,-2.4246,-2.4106,-2.398,-2.3586,-2.3559,-2.3507,-2.1754,-2.1274,-2.1327,-2.0534,0.0,0.0,0.0,0.0,0.0,0.0,0.0,0.0,0.0,0.0,0.0,0.0,0.0,0.0,0.0,0.0,0.0,0.0,0.0,0.0,-1.6257,-1.7318,-1.8195,-1.8577,-1.8884,-1.8994,-1.873,-1.8928,-1.9111,-1.9177,-1.9418,-1.9601,-1.9667,-1.9908,-1.9852,-1.9474,-1.8541,0.0,-1.6613,-1.6514,-1.6206,-1.5572,-1.6429,-1.6998,-1.7384,0.0,0.0,-1.7724,-1.7545,-1.7253,-1.6888,-1.7001,-1.7188,-1.7342,-1.753,-1.7582,-1.7582,-1.7582,-1.7582,-1.7495,-1.6787,-1.6974,-1.7482,0.0,0.0,0.0,0.0,0.0,0.0,0.0,0.0,0.0,0.0,-1.7058,-1.8219,-2.0293,-2.0708,-2.1134,-2.1925,-2.1029,0.0,0.0,-2.0231,-2.0687,-2.1865,-2.2944,-2.381,-2.4476,-2.4934,-2.5497,-2.6074,-2.6398,-2.6758,-2.7173,-2.7457,-2.7807,-2.8036,-2.8036,-2.8036,-2.8014,-2.7774,-2.7403,-2.6955,-2.6725,-2.619,-2.548,-2.5011,-2.5054,-2.5216,-2.4592,-2.4326,-2.4175,-2.3189,-2.2756,-2.2624,-2.2343,-2.1539,-2.0357,0.0,0.0,0.0,0.0,0.0,0.0,0.0,0.0,0.0,0.0,0.0,0.0,0.0,0.0,-1.4169,0.0,0.0,-1.5972,-1.6952,-1.7821,-1.8521,-1.8998,-1.9451,-1.9638,-1.9316,-1.9425,-1.9579,-1.974,-1.9901,-1.9996,-1.9996,-1.9816,-1.9637,-1.9563,-1.8475,-1.7626,-1.6946,-1.6898,-1.6588,-1.6103,-1.6761,-1.7316,-1.7659,-1.7687,-1.7871,-1.7993,-1.7871,-1.779,-1.7742,-1.7445,-1.7482,-1.7779,-1.7662,-1.7582,-1.7582,-1.7582,-1.7582,-1.7528,-1.7088,-1.7208,-1.7522,0.0,0.0,0.0,0.0,0.0,0.0,0.0,0.0,0.0,0.0,-1.6151,-1.7224,-1.908,-1.8988,-1.9276,0.0,0.0,0.0,0.0,-2.1415,-2.216,-2.2957,-2.3951,-2.4486,-2.4486,-2.5033,-2.5585,-2.6157,-2.6483,-2.691,-2.748,-2.7864,-2.8244,-2.8615,-2.8615,-2.8615,-2.8582,-2.8102,-2.7621,-2.7151,-2.678,-2.6332,-2.5946,-2.5459,-2.548,-2.5495,-2.4952,-2.4434,-2.4062,-2.4182,-2.4011,-2.3727,-2.3931,-2.374,-2.2983,-2.0277,-2.0123,0.0,0.0,0.0,0.0,0.0,0.0,0.0,0.0,0.0,-1.4911,-1.4396,-1.465,-1.5138,-1.5827,-1.6068,-1.6494,-1.7602,-1.8175,-1.8745,-1.932,-1.986,-2.0164,-1.9967,-1.9894,-1.9952,-2.0216,-2.0296,-2.0223,-2.0106,-1.9818,-1.9626,-1.9652,-1.8643,-1.7976,-1.7741,-1.7603,-1.728,-1.6857,-1.7438,-1.7689,-1.7821,-1.8225,-1.8361,-1.8378,-1.8317,-1.8361,-1.8512,-1.8058,-1.7908,-1.8112,-1.7968,-1.7829,-1.7669,-1.7669,-1.7635,-1.7589,-1.7649,-1.7709,-1.7762,0.0,0.0,0.0,0.0,0.0,0.0,0.0,0.0,0.0,0.0,0.0,0.0,0.0,0.0,0.0,0.0,0.0,0.0,-1.9928,-2.1085,-2.2138,-2.2957,-2.3951,-2.4486,-2.4486,-2.536,-2.5852,-2.5895,-2.6387,-2.666,-2.6725,-2.7621,-2.8069,-2.8123,-2.8123,-2.8123,-2.8091,-2.7599,-2.713,-2.6704,-2.6649,-2.6428,-2.6146,-2.5924,-2.5819,-2.5837,-2.5518,-2.5389,-2.5201,-2.4349,-2.4104,-2.3906,-2.3293,-2.3075,-2.267,-2.0643,0.0,-2.0118,-1.6689,-1.4842,-1.4358,-1.6045,-1.6732,-1.7097,0.0,0.0,-1.9036,-1.665,-1.7402,-1.8474,-1.8103,-1.8263,-1.859,-1.8985,-1.917,-1.9403,-1.9742,-2.0004,-2.0333,-2.0589,-2.0362,-2.0194,-2.023,-2.0501,-2.0439,-1.9871,-2.0231,-2.0057,-1.9061,-1.8829,-1.8474,-1.799,-1.7689,-1.7455,-1.7394,-1.8052,-1.8426,-1.8752,-1.9286,-1.965,-1.9611,-1.925,-1.8998,-1.8874,-1.9061,-1.8858,-1.8524,-1.8978,-1.8704,-1.7996,-1.7996,-1.7822,-1.7615,-1.7896,-1.8163,-1.839,0.0,0.0,0.0,0.0,0.0,0.0,0.0,0.0,0.0,0.0,0.0,0.0,0.0,0.0,0.0,0.0,0.0,0.0,-1.9338,-2.082,-2.2078,-2.2957,-2.3667,-2.4181,-2.4486,-2.5142,-2.5694,-2.6063,-2.6387,-2.6616,-2.6788,-2.7304,-2.7621,-2.7621,-2.7621,-2.7621,-2.7599,-2.7403,-2.7042,-2.6627,-2.6627,-2.6332,-2.599,-2.5895,-2.5895,-2.5764,-2.4785,-2.4304,0.0,0.0,-2.318,-2.29,-2.3306,-2.2725,-2.1776,-2.1134,-2.0533,0.0,-1.8654,-1.8208,0.0,0.0,-2.0195,-2.0099,-2.0125,-1.9954,-1.9326,-1.786,-1.816,-1.8808,-1.8905,-1.8393,-1.8331,0.0,-1.9191,-1.9226,-1.9771,-2.0348,-2.0852,-2.0991,-2.0391,-1.9844,-1.9621,-2.0136,-1.997,-1.8988,-1.9205,-1.9107,-1.8648,-1.8298,-1.7948,-1.7726,-1.7602,-1.7551,-1.7708,-1.7942,-1.8323,-1.8841,-1.9325,-1.9633,-1.9755,-1.9624,-1.9409,-1.9122,-1.9495,-1.9386,-1.9018,-1.9265,-1.9152,-1.8798,-1.8624,-1.8584,-1.8577,-1.819,-1.8123,-1.8257,0.0,0.0,0.0,0.0,0.0,0.0,0.0,0.0,0.0,0.0,0.0,0.0,0.0,0.0,0.0,0.0,0.0,0.0,0.0,-2.0578,-2.2007,-2.2957,-2.3471,-2.3897,-2.4268,-2.4738,-2.5234,-2.576,-2.6078,-2.6297,-2.6466,-2.6921,-2.7119,-2.7119,-2.7119,-2.7119,-2.7119,-2.6977,-2.6736,-2.642,-2.6289,-2.6016,-2.5699,-2.5699,-2.5371,-2.4861,-2.393,-2.3382,0.0,0.0,-2.2121,-2.2125,-2.2298,-2.1815,-2.1239,-2.107,-2.0151,-1.9345,-2.0106,0.0,0.0,-2.2793,-2.2824,-2.2473,-2.2614,-2.131,-1.9899,-1.9219,-1.889,-1.8843,-1.9384,-1.8639,0.0,-1.9318,-1.9287,-1.9396,-1.9843,-2.0594,-2.0994,-2.0957,-2.0186,-1.9331,-1.8377,-1.9301,-1.9381,-1.832,-1.8535,-1.8538,-1.8421,-1.7954,-1.7719,-1.7719,-1.7793,-1.7803,-1.7997,-1.8385,-1.8685,-1.9129,-1.9575,-1.986,-2.0106,-2.0034,-1.9791,-1.943,-1.9847,-1.988,-1.9613,-1.9693,-1.9633,-1.9459,-1.9165,-1.9125,-1.9165,-1.8524,-1.8337,-1.8444,0.0,0.0,0.0,0.0,0.0,0.0,0.0,0.0,0.0,0.0,0.0,0.0,0.0,0.0,0.0,0.0,0.0,0.0,0.0,-2.038,-2.2007,-2.2957,-2.3471,-2.3733,-2.3755,-2.4246,-2.4519,-2.453,-2.5,-2.5218,-2.524,-2.6201,-2.6649,-2.6649,-2.6649,-2.6649,-2.6616,-2.6147,-2.5928,-2.5884,-2.5404,-2.5207,-2.5196,-2.5196,-2.4105,-2.2672,-2.3165,0.0,0.0,0.0,-2.1008,-2.2136,-1.9624,-2.0096,0.0,-1.9888,-1.9113,0.0,0.0,0.0,-1.9972,-2.2857,-2.3509,-2.3506,-2.407,-2.318,-2.2072,-2.1073,-1.9975,-1.9374,-1.9703,-1.978,-1.9754,-1.9738,-2.0032,-2.0228,-2.0256,-2.0486,-2.0612,-2.0138,-1.9662,-1.8597,0.0,-1.7855,-1.8734,-1.8436,-1.8991,-1.9004,-1.8421,-1.8421,-1.8421,-1.8421,-1.8333,-1.8363,-1.8369,-1.9511,-2.0165,-2.0178,-2.0697,-2.1082,-2.1076,-2.0795,-2.0347,-1.9833,-2.0401,-2.0481,-2.0227,-2.0521,-2.0301,-1.976,-1.9466,-1.9185,-1.8931,-1.8905,-1.9078,-1.9325,0.0,0.0,0.0,0.0,0.0,0.0,0.0,0.0,0.0,0.0,0.0,0.0,0.0,0.0,0.0,0.0,0.0,0.0,0.0,-1.9204,-2.0446,-2.1996,-2.2826,-2.3394,-2.3722,-2.3897,-2.4148,-2.4486,-2.465,-2.4869,-2.5175,-2.5513,-2.5841,-2.6147,-2.6147,-2.6147,-2.6136,-2.5972,-2.571,-2.5426,-2.559,-2.5459,-2.5109,-2.4454,-2.3613,-2.256,0.0,0.0,0.0,0.0,0.0,-1.9288,-1.9197,-1.8791,-1.8306,-1.7639,-1.8366,-1.9523,0.0,0.0,-2.1929,-2.3267,-2.3687,-2.3879,-2.4087,-2.2698,-2.1387,-2.0987,-1.9361,-1.8086,-1.8408,-1.7915,-1.7818,-1.8653,-1.8716,-1.9078,-2.043,-1.9751,-1.9411,-2.0366,-1.9247,0.0,0.0,0.0,0.0,-1.6768,-1.8011,-1.8738,-1.8688,-1.8701,-1.8784,-1.8968,-1.8949,-1.9082,-1.9265,-1.9703,-1.9901,-2.0093,-2.0374,-2.0572,-2.0815,-2.0514,-2.0381,-2.0394,-2.0588,-2.0621,-2.0548,-2.0842,-2.0848,-2.0641,-2.0347,-2.0054,-1.9766,-1.9573,-1.9446,-1.9366,0.0,0.0,0.0,0.0,0.0,0.0,0.0,0.0,0.0,0.0,0.0,0.0,0.0,0.0,0.0,0.0,0.0,0.0,0.0,0.0,-1.9376,-2.1052,-2.1437,-2.1842,-2.2314,-2.2769,-2.3207,-2.3536,-2.4312,-2.488,-2.5175,-2.5349,-2.56,-2.5895,-2.5895,-2.5895,-2.5895,-2.5895,-2.5622,-2.5142,-2.477,-2.4323,-2.3766,-2.263,-2.164,0.0,0.0,0.0,0.0,0.0,0.0,-1.7721,-1.7663,-1.7114,-1.6624,-1.7355,-1.8553,-1.9885,-2.0865,-2.2139,-2.3361,-2.4108,-2.4496,-2.4707,-2.4707,-2.3294,-2.1887,-2.1582,-1.9972,-1.8453,-1.7934,-1.729,-1.7224,-1.816,-1.8139,-1.8654,-2.0435,-1.9722,-1.9348,-2.0226,-1.8936,0.0,0.0,0.0,0.0,-1.6399,-1.7565,-1.8314,-1.8609,-1.8719,-1.8996,-1.9492,-1.9601,-1.9613,-1.9661,-1.9895,-2.0116,-2.008,-2.0276,-2.0321,-2.0361,-2.0267,-2.0107,-1.9927,-2.0448,-2.0501,-2.0254,-2.0862,-2.1109,-2.1082,-2.0788,-2.0494,-2.0194,-1.9907,-1.9619,-1.9366,0.0,0.0,0.0,0.0,0.0,0.0,0.0,0.0,0.0,0.0,0.0,0.0,0.0,0.0,0.0,0.0,0.0,0.0,0.0,0.0,0.0,-2.0133,-1.9524,-1.9342,-1.9789,-2.1008,-2.1669,-2.1669,-2.3831,-2.4971,-2.4923,-2.5415,-2.5655,-2.5677,-2.5677,-2.5677,-2.5677,-2.5677,-2.5382,-2.476,-2.2968,-2.1942,-2.1319,-2.0028,0.0,0.0,0.0,0.0,0.0,0.0,0.0,0.0,0.0,-1.5335,-1.6566,-1.8783,-1.9563,-2.0237,-2.2309,-2.3302,-2.4019,-2.5322,-2.5742,-2.5742,-2.5742,-2.4913,-2.3764,-2.2689,-2.1519,-2.0045,0.0,0.0,-1.7721,-1.8116,-1.8167,-1.8837,-2.0354,-2.0309,-2.0047,0.0,0.0,0.0,0.0,0.0,0.0,-1.72,0.0,-1.8105,-1.8131,-1.8385,-1.8927,-1.9781,-2.0067,-2.0073,-1.9811,-2.0339,-2.0452,-2.0146,-2.0524,-2.0354,-1.9813,-2.0087,-1.9613,-1.8657,-2.0067,-2.0201,-1.9519,-2.0648,-2.1109,-2.1082,-2.0808,-2.0508,-2.0201,-1.992,-1.9633,-1.9366,0.0,0.0,0.0,0.0,0.0,0.0,0.0,0.0,0.0,0.0,0.0,0.0,0.0,0.0,0.0,0.0,0.0,0.0,0.0,0.0,0.0,0.0,0.0,0.0,0.0,0.0,0.0,0.0,-2.0665,-2.1272,-2.1439,-2.2002,-2.249,-2.2684,-2.2684,-2.2684,-2.2684,-2.2684,-2.2204,-2.1417,0.0,-2.0651,-1.9716,0.0,0.0,0.0,0.0,0.0,0.0,0.0,0.0,0.0,0.0,-1.791,-1.8395,-1.9277,-2.0612,-2.1905,-2.2715,-2.4009,-2.5271,-2.5625,-2.5742,-2.5742,-2.5742,-2.4913,-2.3651,-2.2084,-1.9745,-1.7459,0.0,0.0,0.0,-1.6316,-1.6897,0.0,-1.9201,-1.8869,0.0,0.0,0.0,-1.8537,-1.8874,-1.9206,0.0,0.0,-1.8931,-1.9535,-1.9967,-2.0059,-2.0305,-2.075,-2.0836,-2.087,-2.0744,-2.0949,-2.0624,-1.9907,-2.0247,-2.0154,-1.9806,-1.9873,-1.9867,-1.982,-2.0414,-2.0548,-2.0381,-2.0895,-2.1109,-2.1102,-2.1029,-2.0688,-2.0227,-2.0147,-1.9806,-1.9366,0.0,0.0,0.0,0.0,0.0,0.0,0.0,0.0,0.0,0.0,0.0,0.0,0.0,0.0,0.0,0.0,0.0,0.0,0.0,0.0,0.0,0.0,0.0,0.0,0.0,0.0,0.0,0.0,0.0,0.0,-2.103,-2.104,-2.1191,-2.1581,-2.1363,-2.1396,-2.1592,-2.1592,0.0,0.0,0.0,0.0,0.0,0.0,0.0,0.0,0.0,0.0,0.0,0.0,0.0,-1.715,-1.912,-1.9675,-1.9839,-2.1261,0.0,-2.3193,-2.4019,-2.4898,-2.5742,-2.5742,-2.5742,-2.5537,-2.4775,-2.3918,-2.2686,-2.0443,-1.8421,0.0,0.0,0.0,0.0,0.0,0.0,0.0,-1.8731,-1.8576,-1.831,0.0,-1.8483,0.0,-1.9472,-1.9706,-1.97,0.0,-1.9553,-1.9753,-2.0087,-2.0221,-2.0541,-2.1089,-2.1109,-2.0923,-2.0671,-2.0671,-2.0301,-1.9569,-1.9847,-1.996,-1.98,-1.98,-1.9746,-1.9693,0.0,-2.0461,-2.0154,-2.0828,-2.1109,-2.1109,-2.1109,-2.0748,-2.0234,-2.0234,-1.9867,-1.9366,0.0,0.0,0.0,0.0,0.0,0.0,0.0,0.0,0.0,0.0,0.0,0.0,0.0,0.0,0.0,0.0,0.0,0.0,0.0,0.0,0.0,0.0,0.0,0.0,0.0,0.0,0.0,0.0,0.0,0.0,0.0,0.0,0.0,0.0,0.0,0.0,0.0,0.0,0.0,0.0,0.0,0.0,0.0,0.0,0.0,0.0,0.0,0.0,0.0,0.0,-1.7294,-1.7205,-2.0178,-2.1005,-2.1253,-2.3604,-2.415,-2.4268,-2.5283,-2.5548,-2.5635,-2.5732,-2.5635,-2.5246,-2.3738,-2.2723,-2.1355,-1.8725,0.0,-1.6014,-1.3917,0.0,-1.4388,-1.5651,0.0,-1.6945,-1.8233,-1.8629,-1.8586,-1.8297,-1.8312,-1.8791,-1.9713,-1.9733,-1.996,-2.0628,-2.0007,-1.9599,-1.9599,-1.984,-2.0321,-2.1082,-2.1109,-2.083,-2.0257,-2.0289,-2.0001,-1.9279,-1.9701,-1.9833,-1.9806,-1.988,-1.9639,-1.9219,0.0,0.0,-1.9673,-2.0688,-2.1109,-2.1109,-2.1069,-2.0715,-2.0227,-2.0187,-1.9833,-1.9366,0.0,0.0,0.0,0.0,0.0,0.0,0.0,0.0,0.0,0.0,0.0,0.0,0.0,0.0,0.0,0.0,0.0,0.0,0.0,0.0,0.0,0.0,0.0,0.0,0.0,0.0,0.0,0.0,0.0,0.0,0.0,0.0,0.0,0.0,0.0,0.0,0.0,0.0,0.0,0.0,0.0,0.0,0.0,0.0,0.0,0.0,0.0,0.0,0.0,0.0,-1.8506,-1.9443,-2.1345,-2.2765,-2.3603,-2.3428,-2.4336,-2.5293,-2.4785,-2.4985,-2.544,-2.5635,-2.5538,-2.5363,-2.5256,-2.3444,0.0,0.0,0.0,-1.4462,-1.3971,-1.393,0.0,-1.5712,0.0,0.0,0.0,0.0,-1.758,0.0,0.0,0.0,0.0,0.0,0.0,0.0,0.0,0.0,-2.0808,-2.0855,-2.0955,-2.1109,-2.1109,-2.0855,-2.0192,-2.0431,-2.0139,-1.9336,-1.9927,-2.0034,-1.982,-2.0307,-2.0468,-2.0401,0.0,0.0,-2.0822,-2.1029,-2.1109,-2.1082,-2.0848,-2.0541,-2.0201,-1.996,-1.9659,-1.9366,0.0,0.0,0.0,0.0,0.0,0.0,0.0,0.0,0.0,0.0,-1.8182,0.0,0.0,0.0,0.0,0.0,0.0,0.0,0.0,0.0,0.0,0.0,0.0,0.0,0.0,0.0,0.0,0.0,0.0,0.0,0.0,0.0,0.0,0.0,0.0,0.0,0.0,0.0,0.0,0.0,0.0,0.0,0.0,0.0,0.0,0.0,0.0,0.0,0.0,0.0,-1.7352,-1.8921,-2.1539,-2.3221,-2.4074,-2.3408,-2.4293,-2.5344,-2.4462,-2.4669,-2.5137,-2.544,-2.544,-2.4871,-2.3368,0.0,0.0,0.0,0.0,-1.2344,-1.2439,0.0,0.0,0.0,0.0,0.0,0.0,0.0,0.0,0.0,0.0,0.0,0.0,0.0,0.0,0.0,0.0,0.0,-2.1096,-2.1109,-2.1109,-2.1109,-2.1109,-2.0828,-2.0241,-2.0374,-2.0154,-1.9593,-1.9873,-2.0094,-2.0267,-2.0548,-2.0762,-2.0909,-2.1049,0.0,-2.0461,-2.0922,-2.0842,-2.0441,-2.0608,-2.0494,-2.0194,-1.9907,-1.9619,-1.9366,0.0,0.0,0.0,0.0,0.0,0.0,0.0,-1.7677,-1.8055,-1.8903,-1.8956,-1.8793,-1.8493,-1.7931,0.0,0.0,0.0,0.0,0.0,0.0,0.0,0.0,0.0,0.0,0.0,0.0,0.0,0.0,0.0,0.0,0.0,0.0,0.0,0.0,0.0,0.0,0.0,0.0,0.0,0.0,0.0,0.0,0.0,0.0,0.0,0.0,0.0,0.0,0.0,0.0,-1.6105,-1.7696,-2.0742,-2.2483,-2.3367,-2.3252,-2.3997,-2.4833,-2.4429,-2.4516,-2.4932,-2.5235,-2.5235,-2.4515,-2.1627,-1.949,0.0,0.0,-1.1767,-1.0565,-1.1233,0.0,0.0,0.0,0.0,0.0,0.0,0.0,0.0,0.0,0.0,0.0,0.0,0.0,0.0,0.0,0.0,0.0,-2.1082,-2.1109,-2.1109,-2.1109,-2.1049,-2.0762,-2.0234,-2.0174,-1.9993,-1.9713,-1.9833,-2.0134,-2.0581,-2.0715,-2.0895,-2.1109,-2.1109,0.0,0.0,-2.0748,-2.0555,-1.9766,-2.0347,-2.0401,-2.0107,-1.9813,-1.9559,-1.9366,0.0,0.0,0.0,0.0,0.0,0.0,0.0,-1.7797,-1.8332,-1.953,-1.9251,-1.9094,-1.959,-1.9107,0.0,0.0,0.0,0.0,0.0,0.0,0.0,0.0,0.0,0.0,0.0,0.0,0.0,0.0,0.0,0.0,0.0,0.0,0.0,0.0,0.0,0.0,0.0,0.0,0.0,0.0,0.0,0.0,0.0,0.0,0.0,0.0,0.0,0.0,0.0,0.0,0.0,-1.6802,-1.8465,-1.9883,-2.1211,-2.2725,0.0,0.0,-2.4919,-2.4875,-2.4637,-2.5137,-2.5137,-2.4459,-2.2765,0.0,0.0,-1.4815,-1.1882,-1.0217,-1.1866,-1.2482,0.0,0.0,0.0,0.0,0.0,0.0,0.0,0.0,0.0,0.0,0.0,0.0,0.0,0.0,0.0,0.0,0.0,-2.1109,-2.1109,-2.1109,-2.0855,-2.0561,-2.0234,-1.9973,-1.9693,-1.9412,-1.994,-2.0221,-2.0294,-2.0822,-2.1082,-2.1109,0.0,0.0,0.0,-2.0748,-2.0434,-1.9466,-2.0047,-2.0094,-1.9806,-1.9512,-1.9392,-1.9366,0.0,0.0,0.0,0.0,0.0,0.0,0.0,-1.8196,-1.876,-1.9695,-1.9891,-1.9917,-1.9812,-1.9904,0.0,0.0,0.0,0.0,0.0,0.0,0.0,0.0,0.0,0.0,0.0,0.0,0.0,0.0,0.0,0.0,0.0,0.0,0.0,0.0,0.0,0.0,0.0,0.0,0.0,0.0,0.0,0.0,0.0,0.0,0.0,0.0,0.0,0.0,0.0,0.0,0.0,0.0,-1.6179,-1.6846,0.0,0.0,-2.1588,-2.2824,-2.3071,-2.3608,-2.4272,-2.4572,-2.4765,-2.3944,-2.0805,0.0,0.0,-1.3127,-1.0903,-0.9931,-1.0907,-1.1451,-1.2255,0.0,0.0,0.0,0.0,0.0,0.0,0.0,0.0,0.0,0.0,0.0,0.0,0.0,0.0,0.0,0.0,-2.1015,-2.1029,-2.0855,-2.0735,-2.0448,-1.9973,-1.986,-1.9826,-1.9887,-2.012,-2.0421,-2.0768,-2.1002,-2.1109,-2.1109,0.0,0.0,0.0,-2.0341,-1.9947,-1.8664,-1.9606,-1.99,-1.9766,-1.9472,-1.9366,-1.9366,0.0,0.0,0.0,0.0,0.0,0.0,-1.8054,-1.8695,-1.9326,-1.9982,-2.0463,-2.0555,-2.01,-2.0463,-2.0371,-1.9499,0.0,0.0,0.0,0.0,0.0,0.0,0.0,0.0,0.0,0.0,0.0,0.0,0.0,0.0,0.0,0.0,0.0,0.0,0.0,0.0,0.0,0.0,0.0,0.0,0.0,0.0,0.0,0.0,0.0,0.0,0.0,0.0,0.0,0.0,0.0,0.0,0.0,0.0,0.0,0.0,-2.0033,-2.1664,-2.1939,-2.295,-2.3904,-2.4165,-2.386,-2.2634,0.0,0.0,0.0,-1.1605,-1.0256,-0.9747,-1.015,-1.0705,-1.1562,-1.2818,0.0,-1.3853,0.0,0.0,0.0,0.0,0.0,0.0,0.0,0.0,0.0,0.0,0.0,0.0,0.0,-2.0735,-2.0755,-2.0548,-2.0461,-2.0221,-1.9806,-1.98,-1.99,-2.0107,-2.0281,-2.0488,-2.0728,-2.0989,-2.1015,-2.0862,0.0,0.0,0.0,-2.0147,-1.9693,-1.8283,-1.9379,-1.9746,-1.9646,-1.9446,-1.9366,-1.9366,0.0,0.0,0.0,0.0,0.0,0.0,0.0,-1.9339,-2.0009,-2.062,-2.0699,-2.0699,-2.0699,-2.0699,-2.0699,-2.0686,0.0,0.0,0.0,0.0,0.0,0.0,0.0,0.0,0.0,0.0,0.0,-1.8278,-1.7799,0.0,0.0,0.0,0.0,0.0,0.0,0.0,0.0,0.0,0.0,0.0,0.0,0.0,0.0,0.0,0.0,0.0,0.0,0.0,0.0,0.0,0.0,0.0,0.0,0.0,0.0,0.0,-1.9199,-2.0269,-2.2256,-2.336,-2.3926,-2.3963,-2.2353,-2.0263,0.0,0.0,-1.3119,-1.0873,-1.0102,-0.9851,-1.0007,-1.0701,-1.1721,-1.2976,-1.3264,0.0,0.0,0.0,0.0,0.0,0.0,0.0,0.0,0.0,0.0,0.0,0.0,0.0,0.0,-2.0241,-2.0241,-2.0234,-1.996,-1.9806,-1.98,-1.98,-1.98,-1.9813,-2.0394,-2.0368,-1.9846,-2.0715,-2.0788,0.0,0.0,0.0,0.0,-2.0314,-1.9813,-1.8577,-1.9452,-1.9626,-1.9372,-1.9366,-1.9366,-1.9366,0.0,0.0,0.0,0.0,0.0,0.0,0.0,-1.9231,-1.9865,-2.0048,-2.0463,-2.0699,-2.0699,-2.0699,-2.0699,-2.0699,0.0,0.0,0.0,0.0,0.0,0.0,0.0,0.0,0.0,0.0,-1.8452,-1.7865,-1.8018,-1.7799,0.0,0.0,0.0,0.0,0.0,0.0,0.0,0.0,0.0,0.0,0.0,0.0,0.0,0.0,0.0,0.0,0.0,0.0,0.0,0.0,0.0,0.0,0.0,0.0,0.0,-1.5293,0.0,0.0,-1.8692,-1.9602,-2.0368,-1.9706,-1.9133,-1.7981,-1.5143,0.0,-1.2557,-1.0325,-0.9836,-0.9851,-0.9999,-1.0524,-1.1464,-1.2879,-1.3023,0.0,0.0,0.0,0.0,0.0,0.0,0.0,0.0,0.0,0.0,0.0,0.0,0.0,0.0,0.0,-1.994,-1.994,-1.9846,-1.9706,-1.9506,-1.97,-1.99,-2.01,-2.0488,-2.0474,-2.012,-2.0802,0.0,0.0,0.0,0.0,0.0,-1.988,-1.9452,-1.8557,-1.9239,-1.9446,-1.9366,-1.9366,-1.9366,-1.9366,0.0,0.0,0.0,0.0,0.0,0.0,0.0,-1.9603,-2.0126,-2.0126,-2.0489,-2.0699,-2.0699,-2.0699,-2.0699,-2.0699,0.0,0.0,0.0,0.0,0.0,0.0,0.0,0.0,0.0,-1.8367,-1.8302,-1.7755,-1.7975,-1.7865,-1.7445,-1.7379,-1.7434,0.0,0.0,0.0,0.0,0.0,0.0,0.0,0.0,0.0,-1.5023,0.0,0.0,0.0,0.0,0.0,0.0,0.0,0.0,0.0,0.0,0.0,0.0,0.0,-1.4572,-1.5534,0.0,-1.7586,-1.8432,-1.7367,-1.6651,0.0,0.0,0.0,-1.1318,-0.994,-1.0186,-1.0497,-1.0045,-1.08,-1.165,-1.2077,-1.2822,0.0,0.0,0.0,0.0,0.0,0.0,0.0,0.0,0.0,0.0,0.0,0.0,0.0,0.0,0.0,-1.9639,-1.9639,-1.9639,-1.9553,-1.9366,-1.9659,-1.9887,-2.0074,-2.0368,-2.053,-2.0621,-2.0753,0.0,0.0,0.0,0.0,0.0,-1.9726,-1.9412,-1.8858,-1.9225,-1.9366,-1.9366,-1.9366,-1.9366,-1.9366,0.0,0.0,0.0,0.0,0.0,0.0,0.0,0.0,0.0,0.0,-2.0699,-2.0699,-2.0699,-2.0699,-2.0699,0.0,0.0,0.0,0.0,0.0,0.0,0.0,0.0,0.0,0.0,-1.8084,-1.8018,-1.7897,-1.7755,-1.7711,-1.7711,-1.759,-1.759,-1.7711,-1.7711,-1.759,-1.7479,-1.7323,-1.6961,-1.6426,-1.5667,-1.5084,0.0,0.0,0.0,0.0,0.0,0.0,0.0,0.0,0.0,0.0,0.0,0.0,0.0,0.0,0.0,0.0,0.0,-1.6656,0.0,0.0,0.0,0.0,0.0,0.0,0.0,-0.9918,-1.108,-1.1684,-1.0217,-1.1546,-1.2332,-1.0997,-1.2664,0.0,0.0,0.0,0.0,0.0,0.0,0.0,0.0,0.0,0.0,0.0,0.0,0.0,0.0,0.0,-1.9366,-1.9366,-1.9366,-1.9366,-1.9366,-1.9659,-1.978,-1.974,-2.0074,-2.0488,-2.1016,-2.0417,0.0,0.0,0.0,0.0,0.0,-1.978,-1.9606,-1.9366,-1.9366,-1.9366,-1.9366,-1.9366,-1.9366,-1.9366,0.0,0.0,0.0,0.0,0.0,0.0,0.0,0.0,0.0,0.0,0.0,-2.0699,-2.0699,-2.0699,0.0,0.0,0.0,0.0,0.0,0.0,0.0,0.0,0.0,0.0,0.0,-1.8084,-1.8018,-1.7897,-1.7755,-1.7711,-1.7711,-1.759,-1.7634,-1.7854,-1.7645,-1.7479,-1.7323,-1.7334,-1.683,-1.6071,-1.559,-1.4853,0.0,0.0,0.0,0.0,-1.376,-1.4005,0.0,0.0,0.0,0.0,0.0,0.0,0.0,0.0,-1.2672,-1.22,-1.2048,0.0,-1.312,-1.1839,-1.1362,-1.1038,0.0,0.0,-1.0074,-1.1203,0.0,0.0,-1.1765,-1.2752,-1.3393,0.0,0.0,0.0,0.0,0.0,0.0,0.0,0.0,0.0,0.0,0.0,0.0,0.0,0.0,0.0,0.0,0.0,-1.9366,-1.9366,-1.9366,-1.9366,-1.9366,-1.9659,-1.9573,-1.9138,-1.988,-1.9811,-1.9172,-1.9878,0.0,0.0,0.0,0.0,-1.978,-1.9559,-1.9432,-1.9366,-1.9366,-1.9366,-1.9366,-1.9366,-1.9366,-1.9366,0.0,0.0,0.0,0.0,0.0,0.0,0.0,0.0,0.0,0.0,0.0,0.0,0.0,0.0,0.0,0.0,0.0,0.0,0.0,0.0,0.0,0.0,0.0,0.0,-1.8084,-1.7909,-1.7844,-1.7963,-1.7639,-1.7596,-1.7865,-1.7744,-1.7799,-1.7963,-1.77,-1.7534,-1.7479,-1.7082,-1.6492,-1.568,-1.5107,0.0,0.0,0.0,0.0,0.0,-1.3896,-1.4204,0.0,-1.4984,-1.4927,-1.4428,0.0,0.0,0.0,0.0,-1.1918,-1.1495,-1.0449,-1.0895,-1.1437,-1.07,-1.0512,-1.0509,-1.0591,0.0,0.0,0.0,0.0,0.0,0.0,0.0,0.0,0.0,0.0,0.0,0.0,0.0,0.0,0.0,0.0,0.0,0.0,0.0,0.0,0.0,0.0,0.0,0.0,0.0,-1.9366,-1.9366,-1.9366,-1.9366,-1.9366,-1.9519,-1.9372,-1.8931,-1.9546,-1.9775,-1.948,-1.9712,0.0,0.0,0.0,0.0,-1.9579,-1.9285,-1.9245,-1.9366,-1.9366,-1.9366,-1.9366,-1.9366,-1.9366,-1.9366,0.0,0.0,0.0,0.0,0.0,0.0,0.0,0.0,0.0,0.0,0.0,0.0,0.0,0.0,0.0,0.0,0.0,0.0,0.0,0.0,0.0,0.0,0.0,-1.8084,-1.8084,-1.7645,-1.7588,-1.797,-1.7425,-1.7391,-1.7855,-1.7816,-1.785,-1.797,-1.7709,-1.7555,-1.7399,-1.6751,-1.6027,-1.5254,-1.461,0.0,0.0,0.0,0.0,0.0,0.0,0.0,0.0,-1.5003,-1.4896,-1.4412,-1.3377,0.0,0.0,0.0,0.0,0.0,-0.975,-1.0171,-1.0924,-1.0987,-1.0753,-1.0767,-1.1624,0.0,0.0,0.0,0.0,0.0,0.0,0.0,0.0,0.0,0.0,0.0,0.0,0.0,0.0,0.0,0.0,0.0,0.0,0.0,0.0,0.0,0.0,0.0,0.0,0.0,0.0,-1.9366,-1.9366,-1.9366,-1.9366,-1.9366,-1.9192,-1.8865,-1.9205,-1.9752,-2.0298,-1.9658,-1.9931,0.0,0.0,0.0,-1.9352,-1.9092,-1.9138,-1.9366,-1.9366,-1.9366,-1.9366,-1.9366,-1.9366,-1.9366,0.0,0.0,0.0,0.0,0.0,0.0,0.0,0.0,0.0,0.0,0.0,0.0,0.0,0.0,0.0,0.0,0.0,0.0,0.0,0.0,0.0,0.0,-1.8193,-1.8084,-1.8084,-1.7645,-1.7415,-1.7496,-1.694,-1.6734,-1.6814,-1.7197,-1.7349,-1.7361,-1.7308,-1.6901,-1.628,-1.6265,-1.5741,-1.4946,-1.4613,0.0,0.0,0.0,0.0,0.0,0.0,0.0,0.0,-1.4619,-1.4355,-1.3588,-1.2982,0.0,0.0,0.0,0.0,0.0,-0.942,-0.9439,-0.9824,-1.0531,-1.0359,-1.0402,-1.1563,0.0,0.0,0.0,0.0,0.0,0.0,0.0,0.0,0.0,0.0,0.0,0.0,0.0,0.0,0.0,0.0,0.0,0.0,0.0,0.0,0.0,0.0,0.0,0.0,0.0,0.0,-1.9366,-1.9366,-1.9366,-1.9366,-1.9366,-1.9092,-1.8564,-1.9105,-1.9193,-1.8904,-1.9233,-1.9482,0.0,0.0,-1.9325,-1.9366,-1.9319,-1.9325,-1.9366,-1.9366,-1.9366,-1.9366,-1.9366,-1.9366,-1.9366,0.0,0.0,0.0,0.0,0.0,0.0,0.0,0.0,0.0,0.0,0.0,0.0,0.0,0.0,0.0,0.0,0.0,0.0,0.0,0.0,0.0,-1.8518,-1.8089,-1.797,-1.8247,-1.7845,-1.7537,-1.7381,-1.7027,-1.6723,-1.6585,-1.6814,-1.7077,-1.7276,-1.694,-1.6576,-1.6188,-1.5681,-1.5191,-1.4609,0.0,0.0,0.0,0.0,0.0,0.0,0.0,0.0,0.0,0.0,-1.3714,-1.2663,-1.2132,0.0,0.0,0.0,0.0,0.0,-0.8936,-0.9175,-0.9967,-1.1526,-1.1168,-1.1133,-1.3707,0.0,0.0,0.0,0.0,0.0,0.0,0.0,0.0,0.0,0.0,0.0,0.0,0.0,0.0,0.0,0.0,0.0,0.0,0.0,0.0,0.0,0.0,0.0,0.0,0.0,0.0,0.0,-1.9366,-1.9366,-1.9366,-1.9366,-1.9152,-1.8731,-1.9158,-1.9138,-1.8738,-1.9172,-1.9366,-1.9359,0.0,-1.9219,-1.9359,-1.9192,-1.9225,-1.9366,-1.9366,-1.9366,-1.9366,-1.9366,-1.9366,-1.9345,0.0,0.0,0.0,0.0,0.0,0.0,0.0,0.0,0.0,0.0,0.0,0.0,0.0,0.0,0.0,0.0,0.0,0.0,0.0,0.0,-1.8437,-1.8437,-1.7902,-1.7763,-1.8182,-1.7669,-1.728,-1.7076,-1.6767,-1.6581,-1.65,-1.6451,-1.6669,-1.7014,-1.6523,-1.6173,-1.5879,-1.5121,-1.4569,-1.4135,0.0,0.0,0.0,0.0,0.0,0.0,0.0,0.0,0.0,0.0,0.0,0.0,0.0,0.0,0.0,-0.9414,-0.9235,-0.9215,-0.8608,-0.9021,-1.0105,-1.2289,0.0,-1.1733,-1.5553,0.0,0.0,0.0,0.0,0.0,0.0,0.0,0.0,0.0,0.0,0.0,0.0,0.0,0.0,0.0,0.0,0.0,0.0,0.0,0.0,0.0,0.0,0.0,0.0,0.0,0.0,0.0,-1.9366,-1.9366,-1.9366,-1.9366,-1.9252,-1.9032,-1.9259,-1.9252,-1.9038,-1.9265,-1.9366,-1.9359,-1.9125,-1.9158,-1.9352,-1.9125,-1.9158,-1.9366,-1.9366,-1.9366,-1.9366,-1.9366,-1.9325,-1.9232,0.0,0.0,0.0,0.0,0.0,0.0,0.0,0.0,0.0,0.0,0.0,0.0,0.0,0.0,0.0,0.0,0.0,0.0,0.0,0.0,-1.8021,-1.8021,-1.7661,-1.7476,-1.7647,-1.6607,-1.6099,-1.6183,-1.5672,-1.5661,-1.6125,-1.5994,-1.598,-1.6015,-1.598,-1.5398,-1.4529,-1.4589,-1.4099,-1.3258,-1.2977,0.0,0.0,0.0,0.0,0.0,0.0,0.0,0.0,0.0,0.0,0.0,0.0,0.0,-1.0148,-0.9118,-0.8693,-0.8599,-0.8663,-0.898,-0.9785,-1.1628,-1.1312,0.0,-1.549,-1.3588,0.0,-1.5713,0.0,0.0,0.0,0.0,0.0,0.0,0.0,0.0,0.0,0.0,0.0,0.0,0.0,0.0,0.0,0.0,0.0,0.0,0.0,0.0,0.0,0.0,0.0,0.0,0.0,-1.9366,-1.9366,-1.9366,-1.9359,-1.9332,-1.9359,-1.9359,-1.9339,-1.9359,-1.9366,-1.9366,-1.9345,-1.9352,-1.9366,-1.9345,-1.9352,-1.9366,-1.9366,-1.9366,-1.9366,-1.9366,-1.9192,-1.8951,0.0,0.0,0.0,0.0,0.0,0.0,0.0,0.0,0.0,0.0,0.0,0.0,0.0,0.0,0.0,0.0,0.0,0.0,0.0,0.0,-1.8103,-1.8103,-1.7278,-1.6812,-1.6869,-1.6761,-1.6477,-1.5961,-1.5453,-1.5464,-1.6114,-1.5602,-1.5579,-1.5913,-1.5544,-1.5072,-1.4477,-1.4025,-1.3484,-1.2909,-1.2589,-1.251,0.0,0.0,0.0,0.0,0.0,0.0,0.0,0.0,-1.142,-1.0769,0.0,-0.9966,-0.9432,-0.9027,-0.8654,-0.8357,-0.8645,-0.9046,-0.9984,-1.2663,-1.1884,0.0,0.0,-1.4194,-1.3323,-1.6639,0.0,0.0,0.0,0.0,0.0,0.0,0.0,0.0,0.0,0.0,0.0,0.0,0.0,0.0,0.0,0.0,0.0,0.0,0.0,0.0,0.0,0.0,0.0,0.0,0.0,-1.9366,-1.9366,-1.9366,-1.9366,-1.9366,-1.9366,-1.9366,-1.9366,-1.9366,-1.9366,-1.9366,-1.9366,-1.9366,-1.9366,-1.9366,-1.9366,-1.9366,-1.9366,-1.9366,-1.9345,-1.9158,-1.9018,-1.8871,0.0,0.0,0.0,0.0,0.0,0.0,0.0,0.0,0.0,0.0,0.0,0.0,0.0,0.0,0.0,0.0,0.0,0.0,0.0,-1.8049,-1.7781,-1.7651,-1.6693,-1.6182,-1.6182,-1.6527,-1.6386,-1.5765,-1.5372,-1.5383,-1.5823,-1.5314,-1.5292,-1.5555,-1.5119,-1.4651,-1.4035,-1.3484,-1.2909,-1.2433,-1.2067,-1.1994,0.0,0.0,0.0,0.0,0.0,0.0,0.0,0.0,-1.0861,0.0,0.0,0.0,0.0,-0.9082,-0.8694,-0.8385,-0.8826,-0.917,-1.0081,-1.2719,0.0,0.0,-1.4835,-1.431,-1.3926,-1.6813,0.0,0.0,0.0,0.0,0.0,0.0,0.0,0.0,0.0,0.0,0.0,0.0,0.0,0.0,0.0,0.0,0.0,0.0,0.0,0.0,0.0,0.0,0.0,0.0,0.0,0.0,-1.9366,-1.9366,-1.9366,-1.9366,-1.9366,-1.9366,-1.9366,-1.9366,-1.9366,-1.9366,-1.9366,-1.9366,-1.9366,-1.9366,-1.9366,-1.9366,-1.9366,-1.9312,-1.9199,-1.8998,-1.8804,-1.8591,0.0,0.0,0.0,0.0,0.0,0.0,0.0,0.0,0.0,0.0,0.0,0.0,0.0,0.0,0.0,0.0,0.0,0.0,-1.7687,-1.7213,-1.6822,-1.6432,-1.5932,-1.5715,-1.5715,-1.557,-1.5513,-1.5513,-1.5345,-1.5312,-1.5312,-1.5153,-1.5006,-1.4858,-1.4673,-1.3999,-1.2967,-1.288,-1.2353,-1.1678,-1.1276,-1.13,-1.1573,0.0,0.0,0.0,0.0,0.0,0.0,0.0,-1.0522,-1.047,0.0,0.0,0.0,-0.9275,-0.887,-0.8633,-0.9268,-0.9514,-0.9979,0.0,0.0,0.0,-1.426,-1.3837,-1.3535,-1.6042,0.0,0.0,0.0,0.0,0.0,0.0,0.0,0.0,0.0,0.0,0.0,0.0,0.0,0.0,0.0,0.0,0.0,0.0,0.0,0.0,0.0,0.0,0.0,0.0,0.0,0.0,-1.9366,-1.9366,-1.9366,-1.9366,-1.9366,-1.9366,-1.9366,-1.9366,-1.9366,-1.9366,-1.9366,-1.9366,-1.9366,-1.9366,-1.9366,-1.9366,-1.9366,-1.9185,-1.8925,-1.8918,-1.8551,-1.805,0.0,0.0,0.0,0.0,0.0,0.0,0.0,0.0,0.0,0.0,0.0,0.0,0.0,0.0,0.0,0.0,0.0,0.0,-1.7756,-1.701,-1.6586,-1.6525,-1.6035,-1.5748,-1.5748,-1.548,-1.5345,-1.5345,-1.5312,-1.5165,-1.4858,-1.4549,-1.4365,-1.4244,-1.4379,-1.3868,-1.2891,-1.3286,-1.263,-1.14,-1.1461,-1.1393,-1.1242,0.0,0.0,0.0,0.0,0.0,0.0,0.0,0.0,0.0,0.0,0.0,0.0,-1.053,-0.9684,-0.8781,-1.0415,-1.0202,0.0,0.0,0.0,0.0,0.0,-1.3825,0.0,0.0,0.0,0.0,0.0,0.0,0.0,0.0,0.0,0.0,0.0,0.0,0.0,0.0,0.0,0.0,0.0,0.0,0.0,0.0,0.0,0.0,0.0,0.0,0.0,0.0,0.0,0.0,-1.9366,-1.9366,-1.9366,-1.9366,-1.9366,-1.9366,-1.9366,-1.9366,-1.9366,-1.9366,-1.9366,-1.9366,-1.9366,-1.9366,-1.9366,-1.9366,-1.9366,-1.9185,-1.8898,-1.8691,-1.8377,-1.8016,0.0,0.0,0.0,0.0,0.0,0.0,0.0,0.0,0.0,0.0,0.0,0.0,0.0,0.0,0.0,0.0,0.0,0.0,0.0,0.0,-1.629,-1.6238,-1.5927,-1.5703,-1.5614,-1.53,-1.5062,-1.4834,-1.4937,-1.4823,-1.4606,-1.4064,-1.37,-1.3525,-1.352,-1.302,-1.2203,-1.2536,-1.1999,-1.0983,-1.1044,-1.0954,-1.074,0.0,0.0,0.0,0.0,0.0,0.0,0.0,0.0,0.0,0.0,0.0,0.0,-1.0582,-1.0027,-0.9604,-1.09,0.0,0.0,0.0,0.0,0.0,0.0,0.0,0.0,0.0,0.0,0.0,0.0,0.0,0.0,0.0,0.0,0.0,0.0,0.0,0.0,0.0,0.0,0.0,0.0,0.0,0.0,0.0,0.0,0.0,0.0,0.0,0.0,0.0,0.0,0.0,-1.9192,-1.9305,-1.9305,-1.9192,-1.9192,-1.9132,-1.9025,-1.9259,-1.9366,-1.9366,-1.9366,-1.9366,-1.9366,-1.9366,-1.9366,-1.9359,-1.9239,-1.9011,-1.8718,-1.8424,-1.8123,-1.7836,0.0,0.0,0.0,0.0,0.0,0.0,0.0,0.0,0.0,0.0,0.0,0.0,0.0,0.0,0.0,0.0,0.0,0.0,0.0,0.0,-1.602,-1.5727,-1.5715,-1.5525,-1.5267,-1.496,-1.4628,-1.4176,-1.4272,-1.4286,-1.4253,-1.3543,-1.2974,-1.2619,-1.2311,-1.1813,-1.1233,-1.12,-1.0935,-1.047,-1.0407,-1.0327,-1.0213,-1.0257,0.0,0.0,0.0,0.0,0.0,0.0,0.0,0.0,-1.0522,-1.0875,-1.113,-1.0061,-1.0194,-1.0768,-1.1055,0.0,0.0,0.0,0.0,0.0,0.0,0.0,0.0,0.0,0.0,0.0,0.0,0.0,0.0,0.0,0.0,0.0,0.0,0.0,0.0,0.0,0.0,0.0,0.0,0.0,0.0,0.0,0.0,0.0,0.0,0.0,0.0,0.0,0.0,0.0,-1.8885,-1.9152,-1.9152,0.0,-1.8885,-1.8744,-1.851,-1.9045,-1.9299,-1.9325,-1.9325,-1.9339,-1.9366,-1.9366,-1.9352,-1.9299,-1.9032,-1.8731,-1.8417,-1.8143,-1.7849,-1.7582,0.0,0.0,0.0,0.0,0.0,0.0,0.0,0.0,0.0,0.0,0.0,0.0,0.0,0.0,0.0,0.0,0.0,0.0,0.0,0.0,-1.579,-1.5804,-1.5614,-1.5334,-1.4846,-1.4408,-1.4165,-1.4025,-1.3777,-1.3268,-1.2619,-1.2006,-1.1592,-1.1331,-1.1722,-1.1382,-1.0565,-1.1624,-1.1351,-1.028,-1.0561,-1.057,-1.0424,-1.0179,-1.0167,0.0,0.0,0.0,0.0,0.0,0.0,0.0,-1.0522,-1.0375,-1.0379,-1.1201,-1.1156,-1.1105,0.0,-1.2093,0.0,0.0,0.0,0.0,0.0,0.0,0.0,0.0,0.0,0.0,0.0,0.0,0.0,0.0,0.0,0.0,0.0,0.0,0.0,0.0,0.0,0.0,0.0,0.0,0.0,0.0,0.0,0.0,0.0,0.0,0.0,0.0,0.0,-1.8584,-1.8584,-1.8651,-1.8651,0.0,-1.8584,-1.8551,-1.8497,-1.8624,-1.8804,-1.9018,-1.9018,-1.9152,-1.9366,-1.9366,-1.9232,-1.9011,-1.8951,-1.8604,-1.8136,-1.807,-1.7849,-1.7582,0.0,0.0,0.0,0.0,0.0,0.0,0.0,0.0,0.0,0.0,0.0,0.0,0.0,0.0,0.0,0.0,0.0,0.0,0.0,0.0,0.0,-1.5468,-1.5244,-1.488,-1.4362,-1.3978,-1.3439,-1.2698,-1.2404,-1.2256,-1.213,-1.1318,-1.0819,-1.0706,-1.1054,-1.0719,-1.0091,-1.1036,-1.0918,-1.0081,-1.0337,-1.0431,-1.0355,-1.0119,-1.011,-1.0316,-1.0316,0.0,0.0,0.0,0.0,0.0,0.0,0.0,-1.0917,-1.1044,-1.1164,-1.1405,0.0,0.0,0.0,0.0,0.0,0.0,0.0,0.0,0.0,0.0,0.0,0.0,0.0,0.0,0.0,0.0,0.0,0.0,0.0,0.0,0.0,0.0,0.0,0.0,0.0,0.0,0.0,0.0,0.0,0.0,0.0,0.0,0.0,0.0,-1.8203,-1.8277,-1.8277,-1.8424,-1.8424,-1.8277,-1.8277,-1.8203,-1.8063,-1.8357,-1.8577,-1.8718,-1.8718,-1.8804,-1.8945,-1.8945,-1.8858,-1.8704,-1.8557,-1.8317,-1.8029,-1.7883,-1.7722,-1.7582,0.0,0.0,0.0,0.0,0.0,0.0,0.0,0.0,0.0,0.0,0.0,0.0,0.0,0.0,0.0,0.0,0.0,0.0,0.0,0.0,0.0,-1.5017,-1.4743,-1.4419,-1.3931,-1.348,-1.2644,-1.1302,-1.1004,-1.1309,0.0,0.0,-1.0655,-1.0601,-1.0656,-1.0305,-0.9624,-1.0187,-1.0174,-0.9826,-0.9992,-1.0162,-1.0316,-1.011,-1.0162,-1.0316,-1.0316,-1.0419,-1.047,-1.0368,0.0,0.0,0.0,0.0,-1.1404,-1.0295,-1.0806,-1.1579,0.0,0.0,0.0,0.0,0.0,0.0,0.0,0.0,0.0,0.0,0.0,0.0,0.0,0.0,0.0,0.0,0.0,0.0,0.0,0.0,0.0,0.0,0.0,0.0,0.0,0.0,0.0,0.0,0.0,0.0,0.0,0.0,-1.7582,-1.7582,-1.7836,-1.7969,-1.7969,-1.821,-1.821,-1.7969,-1.7969,-1.7829,-1.7602,-1.8103,-1.8364,-1.841,-1.841,-1.8444,-1.849,-1.849,-1.8464,-1.839,-1.8143,-1.7908,-1.7828,-1.7576,-1.7477,-1.7477,0.0,0.0,0.0,0.0,0.0,0.0,0.0,0.0,0.0,0.0,0.0,0.0,0.0,0.0,0.0,0.0,0.0,0.0,-1.5142,0.0,0.0,-1.4743,-1.4455,-1.4082,-1.3658,-1.2518,-1.1734,-1.1302,-1.0423,0.0,0.0,0.0,0.0,-1.104,0.0,-1.057,-0.9142,-0.9784,-0.9833,-0.9525,-1.005,-1.0368,-1.047,-1.0316,-1.0368,-1.047,-1.047,-1.047,-1.0522,-1.047,-1.047,0.0,0.0,0.0,0.0,-0.9888,-1.0528,-1.1267,0.0,0.0,0.0,0.0,0.0,0.0,0.0,0.0,0.0,0.0,0.0,0.0,0.0,0.0,0.0,0.0,0.0,0.0,0.0,0.0,0.0,0.0,0.0,0.0,0.0,0.0,0.0,0.0,0.0,0.0,0.0,-1.7582,-1.7582,-1.7582,-1.7622,-1.7642,-1.7642,-1.7682,-1.7682,-1.7642,-1.7642,-1.7622,-1.7589,-1.7662,-1.7849,-1.8103,-1.8103,-1.8257,-1.849,-1.849,-1.8337,-1.8103,-1.8063,-1.7675,-1.7338,-1.7298,-1.7279,-1.7279,0.0,0.0,0.0,0.0,0.0,0.0,0.0,0.0,0.0,0.0,0.0,0.0,0.0,0.0,0.0,-1.5243,-1.4963,-1.4744,-1.4708,-1.4789,-1.4789,-1.4558,-1.3871,-1.3309,-1.2866,-1.1777,-1.093,-1.0478,0.0,0.0,0.0,-1.2645,-1.2224,0.0,0.0,0.0,0.0,-1.0249,-1.0068,-0.9097,-0.9524,-0.974,-0.9762,-0.9475,-0.957,-0.9865,-0.9634,-0.973,-0.9984,-0.9888,-0.994,-0.9984,-0.9829,0.0,0.0,0.0,0.0,0.0,0.0,0.0,0.0,0.0,0.0,0.0,0.0,0.0,0.0,0.0,0.0,0.0,0.0,0.0,0.0,0.0,0.0,0.0,0.0,0.0,0.0,0.0,0.0,0.0,0.0,0.0,0.0,0.0,0.0,0.0,-1.7582,-1.7582,-1.7582,-1.7582,-1.7582,-1.7582,-1.7582,-1.7582,-1.7582,-1.7582,-1.7582,-1.7582,-1.7582,-1.7582,-1.7655,-1.7789,-1.7789,-1.7862,-1.7983,-1.7983,-1.7903,-1.7789,-1.7789,-1.7496,-1.7179,-1.7179,-1.7179,-1.7179,0.0,0.0,0.0,0.0,0.0,0.0,0.0,0.0,0.0,0.0,0.0,0.0,0.0,0.0,0.0,0.0,-1.4341,-1.4253,-1.4373,-1.4523,-1.4457,-1.4049,-1.3286,-1.2594,-1.196,-1.1093,-1.0363,0.0,0.0,0.0,-1.2578,-1.3168,-1.2913,0.0,-1.2795,-1.1897,0.0,0.0,-1.0348,-0.9112,-0.9489,-0.9437,-0.9183,-0.8843,-0.9001,-0.9332,-0.9054,-0.922,-0.9562,-0.9458,-0.951,-0.9614,-0.9562,-0.9629,0.0,0.0,0.0,0.0,0.0,0.0,0.0,0.0,0.0,0.0,0.0,0.0,0.0,0.0,0.0,0.0,0.0,0.0,0.0,0.0,0.0,0.0,0.0,0.0,0.0,0.0,0.0,0.0,0.0,0.0,0.0,0.0,0.0,0.0,-1.7694,-1.7687,-1.7582,-1.7694,-1.7687,-1.7582,-1.7582,-1.7582,-1.7582,-1.7582,-1.7582,-1.7582,-1.7582,-1.7582,-1.7582,-1.7582,-1.7582,-1.7582,-1.7582,-1.7582,-1.7582,-1.7582,-1.7582,-1.7378,-1.7067,-1.7067,-1.7067,-1.7067,0.0,0.0,0.0,0.0,0.0,0.0,0.0,0.0,0.0,0.0,0.0,0.0,-1.453,-1.407,-1.3884,-1.3852,-1.3672,-1.3768,-1.4351,-1.4419,-1.4017,-1.3104,-1.2721,0.0,-1.0982,-1.0417,-1.0055,0.0,0.0,0.0,-1.1207,-1.2383,-1.2759,-1.2445,-1.2706,-1.2211,-1.1074,0.0,0.0,0.0,-1.0465,-1.0086,-0.9211,-0.919,-0.9197,-0.9204,0.0,-0.9399,-0.9413,-0.9562,-0.9614,-0.9562,-0.9458,-0.9413,-0.9413,0.0,0.0,0.0,0.0,0.0,0.0,0.0,0.0,0.0,0.0,0.0,0.0,0.0,0.0,0.0,0.0,0.0,0.0,0.0,0.0,0.0,0.0,0.0,0.0,0.0,0.0,0.0,0.0,0.0,0.0,0.0,0.0,0.0,-1.8016,-1.7694,-1.7694,-1.8016,-1.7694,-1.7582,-1.7582,-1.7582,-1.7582,-1.7582,-1.7582,-1.7582,-1.7582,-1.7582,-1.7582,-1.7582,-1.7582,-1.7582,-1.7582,-1.7582,-1.7582,-1.7582,-1.7582,-1.7265,-1.673,-1.673,-1.673,-1.673,0.0,0.0,0.0,0.0,0.0,0.0,0.0,0.0,0.0,0.0,0.0,0.0,0.0,-1.3868,-1.3695,-1.3493,-1.3772,-1.3911,-1.3894,-1.3655,-1.323,-1.2574,-1.1626,-1.1088,-1.0901,-0.9986,-0.9703,0.0,0.0,-1.0322,-1.1445,-1.1684,-1.1933,-1.2312,-1.3679,-1.2834,-1.037,-1.1639,0.0,0.0,0.0,0.0,0.0,0.0,0.0,0.0,0.0,0.0,0.0,-0.9322,-0.9113,-0.9061,-0.9008,-0.9106,-0.9316,0.0,0.0,0.0,0.0,0.0,0.0,0.0,0.0,0.0,0.0,0.0,0.0,0.0,0.0,0.0,0.0,0.0,0.0,0.0,0.0,0.0,0.0,0.0,0.0,0.0,0.0,0.0,0.0,0.0,0.0,0.0,0.0,0.0,-1.8199,-1.7846,-1.7811,-1.8206,-1.8213,-1.8108,-1.8108,-1.7905,-1.7911,-1.7806,-1.7687,-1.7582,-1.7582,-1.7582,-1.7582,-1.7582,-1.7582,-1.7582,-1.7582,-1.7582,-1.7582,-1.7582,-1.7582,-1.7378,-1.6955,-1.673,-1.6842,-1.6955,0.0,0.0,0.0,0.0,0.0,0.0,0.0,0.0,0.0,0.0,0.0,0.0,0.0,0.0,-1.3296,-1.3228,-1.363,-1.3752,-1.3563,-1.3027,-1.2498,-1.1966,-1.0988,-1.0485,-1.049,-0.9629,-0.9502,0.0,0.0,0.0,0.0,-1.0814,-1.0955,-1.13,-1.2872,-1.2527,0.0,0.0,0.0,-0.9506,0.0,0.0,-0.904,0.0,0.0,0.0,0.0,0.0,0.0,0.0,0.0,0.0,0.0,0.0,0.0,0.0,0.0,0.0,0.0,0.0,0.0,0.0,0.0,0.0,0.0,0.0,0.0,0.0,0.0,0.0,0.0,0.0,0.0,0.0,0.0,0.0,0.0,0.0,0.0,0.0,0.0,0.0,0.0,0.0,0.0,0.0,0.0,0.0,-1.852,-1.8037,-1.8002,-1.8408,-1.8422,-1.8422,-1.8422,-1.822,-1.8122,-1.8016,-1.7799,-1.7694,-1.7582,-1.7582,-1.7582,-1.7582,-1.7582,-1.7582,-1.7582,-1.7582,-1.7582,-1.7582,-1.7582,-1.7483,-1.7179,-1.6842,-1.6955,-1.7173,0.0,0.0,0.0,0.0,0.0,0.0,0.0,0.0,0.0,-1.3686,0.0,0.0,0.0,0.0,0.0,-1.3031,-1.3154,-1.3256,-1.3351,-1.2543,-1.1845,-1.1302,-1.0822,-1.031,-0.9698,-0.9399,-0.9383,0.0,0.0,0.0,0.0,0.0,-0.9863,-0.9479,-1.0082,-1.1289,-1.2811,0.0,-1.2663,-1.245,0.0,-1.1371,-1.0953,0.0,0.0,0.0,-1.1263,-1.0961,0.0,0.0,0.0,0.0,0.0,0.0,0.0,0.0,0.0,0.0,0.0,0.0,0.0,0.0,0.0,0.0,0.0,0.0,0.0,0.0,0.0,0.0,0.0,0.0,0.0,0.0,0.0,0.0,0.0,0.0,0.0,0.0,0.0,0.0,0.0,0.0,0.0,0.0,0.0,-1.852,-1.8869,-1.8646,-1.8422,-1.8422,-1.8422,-1.8422,-1.8422,-1.8422,-1.8325,-1.8016,-1.8016,-1.7905,-1.7582,-1.7582,-1.7582,-1.7582,-1.7582,-1.7582,-1.7582,-1.7582,-1.7582,-1.7582,-1.7582,-1.7483,-1.7173,-1.6842,-1.6955,-1.7173,0.0,0.0,0.0,0.0,0.0,0.0,0.0,0.0,-1.4233,0.0,0.0,0.0,-1.2548,-1.2652,-1.2748,-1.2802,-1.2966,-1.2733,-1.1912,-1.1546,-1.1161,-1.0615,-1.0157,-0.9935,-0.9867,-0.9636,-0.9609,-0.9789,0.0,0.0,0.0,0.0,0.0,0.0,-0.9444,-0.9997,-1.0503,-1.1879,0.0,0.0,-1.2074,-1.1585,0.0,0.0,0.0,0.0,0.0,-1.1972,0.0,0.0,-1.1303,-1.0601,0.0,0.0,0.0,0.0,0.0,0.0,-0.8832,0.0,0.0,0.0,0.0,0.0,0.0,0.0,0.0,0.0,0.0,0.0,0.0,0.0,0.0,0.0,0.0,0.0,0.0,0.0,0.0,0.0,0.0,0.0,0.0,0.0,0.0,0.0,-1.8432,-1.8375,-1.9153,-1.9063,-1.9063,-1.9063,-1.9063,-1.9063,-1.9063,-1.8862,-1.8764,-1.866,-1.8233,-1.7911,-1.7911,-1.7694,-1.7582,-1.7582,-1.7582,-1.7582,-1.7582,-1.7582,-1.7582,-1.7582,-1.7582,-1.7582,-1.7483,-1.7173,-1.7272,-1.7483,0.0,0.0,0.0,0.0,0.0,0.0,0.0,0.0,-1.3535,0.0,0.0,0.0,-1.261,-1.2761,-1.2836,-1.2752,-1.2503,-1.2094,-1.1429,-1.0819,-1.0424,-1.0252,-0.9723,-0.9547,-0.978,-0.9471,-0.9358,-0.9562,0.0,0.0,0.0,0.0,0.0,0.0,0.0,0.0,0.0,0.0,0.0,0.0,-1.2072,0.0,0.0,-1.2559,-1.2501,0.0,0.0,0.0,-1.2805,-1.2587,-1.1832,0.0,0.0,0.0,0.0,0.0,0.0,0.0,0.0,0.0,0.0,0.0,0.0,0.0,0.0,0.0,0.0,0.0,0.0,0.0,0.0,0.0,0.0,0.0,0.0,0.0,0.0,0.0,0.0,0.0,0.0,0.0,0.0,0.0,0.0,0.0,-1.8826,-1.8673,-1.9257,-1.9279,-1.9279,-1.9279,-1.9279,-1.9279,-1.9279,-1.9175,-1.8974,-1.8869,-1.8555,-1.8331,-1.8115,-1.7905,-1.7799,-1.7799,-1.7687,-1.7582,-1.7582,-1.7582,-1.7582,-1.7582,-1.7582,-1.7477,-1.7378,-1.706,-1.7166,-1.7378,0.0,0.0,0.0,0.0,0.0,0.0,0.0,0.0,0.0,0.0,-1.2493,-1.2599,-1.2645,-1.275,-1.2803,-1.2706,-1.1922,-1.1401,-1.1316,-1.0285,-0.978,-1.0079,-0.9509,-0.9293,-0.9555,-0.9058,-0.8904,-0.9159,0.0,0.0,0.0,0.0,0.0,0.0,0.0,0.0,0.0,0.0,0.0,-1.2571,-1.184,-1.2314,0.0,0.0,-1.285,0.0,-1.3891,-1.3806,-1.2931,-1.3224,-1.2407,0.0,0.0,0.0,0.0,0.0,-0.9428,0.0,0.0,0.0,0.0,0.0,0.0,0.0,-0.9083,-1.0958,-1.264,0.0,0.0,0.0,0.0,0.0,0.0,0.0,0.0,0.0,0.0,0.0,0.0,0.0,0.0,0.0,0.0,0.0,-1.9279,-1.9279,-1.9279,-1.9279,-1.9279,-1.9279,-1.9279,-1.9279,-1.9279,-1.9279,-1.9279,-1.9279,-1.9175,-1.8974,-1.8869,-1.8757,-1.8422,-1.8122,-1.8016,-1.8016,-1.7799,-1.7582,-1.7582,-1.7582,-1.7582,-1.7582,-1.7582,-1.7483,-1.7179,-1.6948,-1.6955,-1.7173,-1.3204,0.0,0.0,0.0,0.0,0.0,0.0,0.0,-1.2205,-1.2445,-1.2493,-1.2599,-1.2792,-1.2871,-1.2619,-1.1969,-1.1398,-1.0856,-1.0238,-0.9721,-0.9504,-0.9562,-0.9511,-0.9452,-0.9263,-0.9144,-0.904,-0.8857,0.0,0.0,0.0,0.0,0.0,0.0,0.0,0.0,0.0,0.0,0.0,-1.0054,-1.107,0.0,-1.1787,-1.3077,-1.2667,-1.17,-1.3658,-1.3768,-1.2982,0.0,-1.2583,-1.1787,0.0,0.0,0.0,0.0,0.0,0.0,0.0,0.0,0.0,0.0,0.0,0.0,-0.9729,-1.0126,-1.0737,0.0,0.0,0.0,0.0,0.0,0.0,0.0,0.0,0.0,0.0,0.0,0.0,0.0,0.0,0.0,0.0,0.0,-1.9279,-1.9279,-1.9279,-1.9279,-1.9279,-1.9279,-1.9279,-1.9279,-1.9279,-1.9279,-1.9279,-1.9279,-1.9272,-1.9175,-1.8974,-1.8869,-1.8757,-1.8429,-1.822,-1.8016,-1.7911,-1.7799,-1.7582,-1.7582,-1.7483,-1.7279,-1.7483,-1.7483,-1.7179,-1.7371,-1.7477,-1.7477,-1.2662,0.0,0.0,0.0,0.0,0.0,0.0,0.0,-1.2158,-1.2311,-1.2541,-1.2676,-1.2676,-1.2304,-1.1908,-1.1504,-1.0672,-1.0046,-0.9791,-0.9379,-0.9211,-0.9309,-0.9263,-0.9159,-0.9008,-0.9008,-0.8956,-0.8804,0.0,0.0,0.0,0.0,0.0,0.0,0.0,0.0,0.0,0.0,-0.853,-0.9618,-1.0581,0.0,-1.1624,-1.3015,-1.2814,-1.2065,-1.3402,-1.3483,-1.2928,-1.3219,-1.2691,0.0,0.0,-1.0947,-1.0091,0.0,-0.9146,-0.8823,0.0,0.0,0.0,-0.8673,0.0,0.0,0.0,-1.0262,0.0,0.0,0.0,0.0,0.0,0.0,0.0,0.0,0.0,0.0,0.0,0.0,0.0,0.0,0.0,0.0,0.0,0.0,-1.9279,-1.9279,-1.9279,-1.9279,-1.9279,-1.9279,-1.9279,-1.9279,-1.9279,-1.9279,-1.9279,-1.9279,-1.9279,-1.9279,-1.9078,-1.8974,-1.9078,-1.8436,-1.822,-1.822,-1.7905,-1.7694,-1.7582,-1.7582,-1.7483,-1.7179,-1.7483,-1.7483,-1.7179,-1.7378,-1.7378,-1.7378,-1.2252,0.0,0.0,0.0,0.0,0.0,0.0,0.0,-1.2069,-1.2148,-1.2464,-1.2772,-1.2761,-1.1835,-1.131,-1.1533,-1.0408,-0.9606,0.0,0.0,-0.9079,-0.9008,-0.885,-0.8752,-0.8752,-0.8751,-0.8724,-0.8724,0.0,0.0,0.0,0.0,0.0,0.0,0.0,0.0,0.0,0.0,0.0,-0.9958,0.0,-1.1295,-1.2043,-1.3058,-1.2923,-1.2318,-1.3126,-1.3152,-1.2876,-1.3164,0.0,-1.1826,-1.253,-1.1614,0.0,0.0,0.0,0.0,0.0,0.0,0.0,0.0,0.0,-0.9134,0.0,0.0,0.0,0.0,0.0,0.0,0.0,0.0,0.0,0.0,0.0,0.0,0.0,0.0,0.0,0.0,0.0,0.0,0.0,0.0,-1.9074,-1.9264,-1.9279,-1.9279,-1.9279,-1.9279,-1.9279,-1.9279,-1.9279,-1.9279,-1.9279,-1.9279,-1.9279,-1.9279,-1.9078,-1.8974,-1.9175,-1.8436,-1.8122,-1.8325,-1.7898,-1.7687,-1.7582,-1.7582,-1.7483,-1.7279,-1.7483,-1.7483,-1.7179,-1.7279,-1.7279,-1.7279,-1.191,-1.1704,0.0,0.0,0.0,0.0,0.0,0.0,-1.1423,-1.1868,-1.2098,-1.2591,0.0,0.0,0.0,0.0,0.0,0.0,-0.9313,0.0,-0.9208,-0.8359,-0.8527,-0.8626,-0.8626,-0.8499,-0.8424,-0.8424,0.0,0.0,0.0,0.0,0.0,0.0,-0.841,0.0,0.0,0.0,-1.0174,0.0,-1.1492,-1.1972,0.0,-1.2936,-1.267,-1.1865,-1.2623,-1.2861,-1.2753,0.0,-1.1558,-1.1225,0.0,-1.0639,0.0,0.0,0.0,0.0,0.0,0.0,0.0,0.0,-0.919,0.0,0.0,0.0,0.0,0.0,0.0,0.0,0.0,0.0,0.0,0.0,0.0,0.0,0.0,0.0,0.0,0.0,0.0,0.0,0.0,0.0,0.0,-1.9213,-1.9279,-1.9279,-1.9279,-1.9279,-1.9279,-1.9279,-1.9279,-1.9279,-1.9279,-1.9279,-1.9279,-1.9279,-1.9078,-1.8869,-1.8974,-1.8541,-1.822,-1.8016,-1.8016,-1.7799,-1.7582,-1.7582,-1.7582,-1.7582,-1.7582,-1.7483,-1.7179,-1.7483,-1.7582,-1.7582,-1.2459,-1.2437,0.0,0.0,0.0,0.0,0.0,0.0,-1.1737,-1.2008,-1.2076,0.0,0.0,0.0,0.0,0.0,0.0,-1.1035,0.0,0.0,-0.9468,-0.9009,0.0,0.0,-0.8326,-0.8373,-0.829,-0.8116,-0.7948,0.0,0.0,0.0,0.0,0.0,-0.855,0.0,-0.9376,0.0,0.0,0.0,0.0,0.0,0.0,-1.2405,-1.2559,-1.2318,-1.2339,-1.2527,-1.2614,0.0,-1.1854,0.0,0.0,0.0,0.0,0.0,0.0,0.0,0.0,0.0,0.0,0.0,0.0,0.0,0.0,0.0,-0.996,0.0,0.0,0.0,0.0,0.0,0.0,0.0,0.0,0.0,0.0,0.0,0.0,0.0,0.0,0.0,0.0,0.0,0.0,0.0,0.0,-1.8313,-1.8694,-1.9067,-1.9279,-1.9279,-1.9279,-1.9279,-1.9279,-1.9182,-1.9078,-1.9078,-1.8548,-1.8443,-1.8541,-1.8115,-1.801,-1.8016,-1.7799,-1.7687,-1.7582,-1.7582,-1.7582,-1.7582,-1.7582,-1.7477,-1.7483,-1.7582,-1.7582,-1.7582,-1.278,0.0,0.0,0.0,0.0,0.0,0.0,0.0,0.0,0.0,0.0,0.0,-1.3879,-1.237,0.0,0.0,0.0,-1.1663,0.0,0.0,-1.0085,-0.9899,-0.8979,0.0,0.0,0.0,-0.8054,-0.7802,-0.7722,0.0,0.0,0.0,0.0,0.0,0.0,-0.878,-0.9101,0.0,0.0,-1.0738,-1.2025,-1.2242,-1.1798,-1.2048,-1.2447,-1.2716,-1.2366,-1.2468,-1.2603,-1.1537,-1.1887,0.0,-1.1481,0.0,0.0,0.0,0.0,0.0,-1.1001,0.0,0.0,0.0,0.0,0.0,0.0,0.0,0.0,0.0,0.0,0.0,0.0,0.0,0.0,0.0,0.0,0.0,0.0,0.0,0.0,0.0,0.0,0.0,0.0,0.0,0.0,0.0,-1.7318,0.0,-1.8138,-1.8877,-1.9279,-1.9279,-1.9279,-1.9279,-1.9279,-1.9078,-1.8869,-1.8869,-1.8338,-1.8122,-1.8318,-1.7793,-1.7694,-1.7911,-1.7687,-1.7582,-1.7582,-1.7582,-1.7582,-1.7582,-1.7582,-1.7582,-1.7582,-1.7582,-1.7582,-1.7582,-1.2438,-1.2438,0.0,0.0,0.0,0.0,0.0,0.0,0.0,0.0,0.0,0.0,0.0,0.0,0.0,0.0,0.0,-1.2124,-1.1755,0.0,-1.1184,0.0,0.0,-0.8465,0.0,0.0,-0.7636,-0.7527,-0.7194,-0.7012,0.0,0.0,0.0,0.0,0.0,-0.8652,-0.9138,-1.0842,-1.1389,-1.1254,-1.2855,-1.352,-1.3295,0.0,-1.2156,-1.2759,-1.2748,0.0,0.0,-1.1919,-1.146,0.0,0.0,0.0,0.0,0.0,0.0,0.0,0.0,0.0,0.0,-1.1302,0.0,0.0,0.0,0.0,-1.066,0.0,0.0,0.0,0.0,0.0,-1.058,-1.0842,0.0,0.0,0.0,0.0,0.0,0.0,0.0,0.0,0.0,0.0,0.0,0.0,-1.6813,0.0,-1.7808,-1.8752,-1.9279,-1.9279,-1.9279,-1.9279,-1.9279,-1.9078,-1.8869,-1.8869,-1.8338,-1.8016,-1.8016,-1.7694,-1.7582,-1.7582,-1.7582,-1.7582,-1.7582,-1.7582,-1.7582,-1.7582,-1.7582,-1.7582,-1.7582,-1.7582,-1.7582,-1.7582,0.0,0.0,0.0,0.0,0.0,0.0,0.0,-1.2373,0.0,0.0,0.0,0.0,0.0,0.0,-1.5256,0.0,0.0,-1.4604,-1.3673,-1.308,0.0,0.0,0.0,-0.9926,0.0,0.0,0.0,-0.7616,-0.7327,-0.7333,0.0,0.0,0.0,0.0,0.0,-0.8254,0.0,0.0,0.0,0.0,0.0,-1.2584,-1.2642,0.0,0.0,-1.2953,-1.2953,-1.2953,0.0,-1.1941,-1.2139,-1.2581,-1.2086,-1.1815,-1.1866,-1.2894,-1.2095,0.0,0.0,0.0,-1.2482,-1.2661,0.0,0.0,0.0,0.0,0.0,0.0,0.0,0.0,0.0,0.0,-0.9875,-0.997,-0.9781,-0.9869,0.0,0.0,0.0,0.0,0.0,0.0,0.0,0.0,0.0,-1.4882,-1.5255,-1.5767,0.0,-1.7669,-1.8408,-1.8621,-1.9052,-1.9175,-1.9078,-1.875,-1.8436,-1.8338,-1.7905,-1.7694,-1.7694,-1.7687,-1.7582,-1.7582,-1.7582,-1.7582,-1.7582,-1.7582,-1.7582,-1.7582,-1.7582,-1.7582,-1.7582,-1.7582,-1.7582,-1.7582,-1.2696,0.0,0.0,0.0,0.0,0.0,0.0,0.0,0.0,0.0,-1.5115,0.0,-1.7681,0.0,-1.6951,0.0,-1.6521,-1.5804,-1.5419,-1.3852,0.0,-1.3372,-1.1866,0.0,0.0,0.0,0.0,0.0,-0.7895,-0.7756,0.0,0.0,0.0,0.0,0.0,0.0,0.0,0.0,-1.0929,0.0,0.0,-1.2263,0.0,0.0,-1.3305,-1.3249,0.0,-1.305,-1.2785,-1.2231,-1.257,-1.3165,-1.2314,-1.2351,-1.2716,-1.3104,-1.2456,-1.1764,-1.2692,-1.3004,0.0,-1.3138,-1.2883,0.0,-1.2511,0.0,0.0,0.0,0.0,0.0,0.0,0.0,-0.9415,-0.9284,-0.9127,-0.9396,0.0,-1.1115,0.0,0.0,0.0,0.0,0.0,0.0,-1.2803,-1.3558,-1.4033,-1.467,0.0,0.0,-1.7962,-1.8291,-1.8935,-1.9175,-1.8869,-1.8541,-1.822,-1.8016,-1.7694,-1.7582,-1.7582,-1.7582,-1.7582,-1.7582,-1.7582,-1.7582,-1.7582,-1.7582,-1.7582,-1.7582,-1.7582,-1.7582,-1.7582,-1.7582,-1.7582,-1.7582,0.0,0.0,0.0,0.0,-1.214,0.0,0.0,0.0,-1.5169,0.0,-1.6729,-1.6495,-1.7949,-1.68,-1.6349,-1.7406,-1.6039,0.0,-1.6629,-1.3899,0.0,0.0,-1.2198,-1.1328,-1.2498,0.0,0.0,0.0,0.0,0.0,0.0,0.0,0.0,0.0,-0.8704,0.0,-0.8205,-0.9796,-1.034,-1.0269,-1.1585,-1.2648,-1.3402,-1.3056,0.0,-1.3443,-1.3249,-1.3147,-1.3055,-1.2856,-1.2764,-1.2764,-1.2764,-1.2764,-1.2764,-1.2764,-1.2764,-1.2861,-1.3346,-1.3443,-1.3305,-1.2867,0.0,0.0,0.0,0.0,-1.1204,0.0,0.0,0.0,0.0,0.0,0.0,-0.8926,-0.8646,-0.8941,-1.0225,0.0,0.0,0.0,0.0,0.0,0.0,-1.2423,-1.2716,-1.2014,-1.3214,0.0,0.0,0.0,-1.786,-1.8262,-1.8862,-1.9109,-1.8869,-1.8506,-1.8192,-1.8016,-1.7694,-1.7582,-1.7582,-1.7582,-1.7582,-1.7582,-1.7582,-1.7582,-1.7582,-1.7582,-1.7582,-1.7582,-1.7582,-1.7582,-1.7582,-1.7582,-1.7582,-1.7582,-1.2314,-1.2076,-1.2168,0.0,-1.302,-1.3635,0.0,0.0,0.0,0.0,-1.8022,-1.8641,-1.9354,-1.926,-1.849,-1.6952,-1.6324,0.0,0.0,0.0,0.0,-1.5295,-1.4404,-1.3696,-1.3278,-1.2349,0.0,-1.1316,0.0,0.0,-1.0135,0.0,0.0,0.0,0.0,0.0,-0.8228,-1.0172,-1.1129,-1.1338,-1.1413,-1.1921,0.0,0.0,-1.2944,-1.3539,-1.3636,-1.3539,-1.3346,-1.3147,-1.305,-1.2953,-1.2861,-1.2764,-1.2764,-1.2764,-1.2764,-1.2861,-1.2958,-1.2958,-1.2995,-1.3214,-1.2898,-1.2592,0.0,0.0,0.0,0.0,0.0,0.0,0.0,0.0,0.0,-0.861,-0.8539,-0.8619,0.0,0.0,0.0,0.0,0.0,0.0,0.0,0.0,-1.2475,-1.2,-1.2797,0.0,0.0,0.0,0.0,-1.7889,-1.7688,-1.791,-1.8527,-1.777,-1.7572,-1.7687,-1.7582,-1.7582,-1.7582,-1.7582,-1.7582,-1.7582,-1.7582,-1.7582,-1.7582,-1.7582,-1.7582,-1.7582,-1.7582,-1.7582,-1.7582,-1.7582,-1.7582,-1.7582,-1.2314,0.0,0.0,-1.2865,0.0,0.0,-1.5524,0.0,0.0,-1.888,-1.9366,0.0,-2.064,-2.0783,-2.0192,-1.8355,-1.7302,0.0,0.0,0.0,0.0,-1.5589,-1.5147,-1.4611,-1.3947,-1.3503,0.0,-1.2628,0.0,0.0,-1.1045,0.0,0.0,0.0,0.0,-0.9285,0.0,-1.051,-1.1492,-1.186,-1.1553,0.0,0.0,-1.2331,-1.2724,-1.3346,-1.3642,-1.3642,-1.3443,-1.3346,-1.3249,-1.305,-1.2953,-1.2861,-1.2764,-1.2764,-1.2764,-1.2764,-1.2764,-1.2764,-1.2861,-1.3152,-1.2931,-1.271,-1.2802,-1.2479,-1.191,0.0,0.0,0.0,0.0,0.0,0.0,0.0,0.0,0.0,0.0,0.0,0.0,0.0,0.0,0.0,0.0,0.0,0.0,-1.1853,-1.2299,0.0,0.0,0.0,0.0,-1.6552,-1.6908,-1.7091,-1.7209,-1.6918,-1.6919,-1.7201,-1.7201,-1.7335,-1.7582,-1.7582,-1.7582,-1.7582,-1.7582,-1.7582,-1.7582,-1.7582,-1.7582,-1.7582,-1.7265,-1.7265,-1.7153,-1.6948,-1.716,-1.7582,0.0,0.0,0.0,0.0,0.0,0.0,0.0,-1.7678,0.0,-2.0759,0.0,-2.053,-2.1475,-2.1535,-2.1221,-2.0369,0.0,-1.7258,-1.7465,-1.5064,-1.4318,-1.5947,-1.5245,-1.4792,-1.4792,-1.4371,0.0,0.0,0.0,0.0,0.0,0.0,0.0,0.0,0.0,0.0,0.0,-1.0866,-1.156,0.0,-1.1904,-1.2097,-1.2661,-1.2318,-1.2505,-1.305,-1.3346,-1.3443,-1.3443,-1.3443,-1.3244,-1.3147,-1.305,-1.2953,-1.2764,-1.2764,-1.2764,-1.2764,-1.2764,-1.2764,-1.2764,-1.2764,-1.2764,-1.2764,-1.2467,-1.2494,-1.2314,-1.1629,-1.185,-1.175,0.0,0.0,0.0,0.0,0.0,0.0,0.0,0.0,0.0,0.0,0.0,0.0,0.0,0.0,0.0,0.0,0.0,0.0,0.0,0.0,0.0,-1.514,-1.6204,0.0,-1.5876,0.0,-1.6449,-1.682,-1.674,-1.7014,-1.7582,-1.7582,-1.7582,-1.7582,-1.7582,-1.7582,-1.7582,-1.7582,-1.7582,-1.7477,-1.6942,-1.6624,-1.6518,-1.6099,-1.6418,-1.7041,0.0,0.0,0.0,0.0,0.0,-1.7092,-1.91,-2.0008,-2.0512,-2.0613,-2.1089,0.0,-2.0787,-2.0908,-2.0763,-2.0138,-1.8933,0.0,0.0,0.0,0.0,-1.7008,-1.6101,-1.5584,-1.5584,-1.5531,-1.5411,0.0,0.0,0.0,0.0,0.0,0.0,0.0,0.0,0.0,-1.226,-1.1246,0.0,-1.2674,-1.2355,-1.2122,-1.1935,-1.2498,-1.2748,-1.2856,-1.3055,-1.3346,-1.3443,-1.3244,-1.3147,-1.305,-1.2861,-1.2861,-1.2764,-1.2764,-1.2764,-1.2764,-1.2764,-1.2764,-1.2764,-1.2764,-1.2764,-1.2764,-1.2759,-1.291,-1.2945,-1.284,-1.3005,-1.3121,-1.2532,0.0,0.0,0.0,0.0,0.0,0.0,0.0,0.0,0.0,0.0,0.0,0.0,0.0,0.0,0.0,0.0,0.0,0.0,0.0,0.0,0.0,0.0,0.0,0.0,0.0,-1.6366,-1.7422,-1.6934,-1.7014,-1.7582,-1.7582,-1.7582,-1.7582,-1.7582,-1.7582,-1.7582,-1.7582,-1.7265,-1.6836,-1.673,-1.6418,-1.5992,-1.5891,-1.5446,-1.4669,0.0,0.0,0.0,0.0,0.0,0.0,0.0,-2.0686,0.0,-2.12,-2.1493,-2.1585,-2.119,-2.1401,-2.1055,-1.9671,-1.91,-1.8409,-1.7647,-1.6508,-1.6169,-1.6791,-1.6198,0.0,-1.5384,-1.5671,-1.5591,-1.5285,0.0,0.0,-1.2758,0.0,0.0,0.0,0.0,-1.1499,0.0,0.0,0.0,-1.2709,-1.2777,-1.2631,-1.2472,-1.2822,-1.2861,-1.2764,-1.2953,-1.3055,-1.3152,-1.3249,-1.3244,-1.305,-1.2958,-1.2856,-1.2764,-1.2764,-1.2764,-1.2764,-1.2764,-1.2764,-1.2764,-1.2764,-1.2764,-1.2797,-1.2915,-1.3023,-1.3141,-1.327,-1.3394,-1.3367,-1.2793,-1.1979,0.0,0.0,0.0,0.0,0.0,0.0,0.0,0.0,0.0,0.0,0.0,0.0,0.0,0.0,0.0,0.0,0.0,0.0,0.0,0.0,0.0,0.0,0.0,0.0,0.0,-1.7128,-1.684,-1.7014,-1.7582,-1.7582,-1.7582,-1.7582,-1.7582,-1.7371,-1.7153,-1.6842,-1.6524,-1.6205,-1.5992,-1.5672,-1.5357,-1.5148,-1.3835,-1.2403,0.0,-1.5377,0.0,0.0,-1.7431,0.0,0.0,-2.1089,-2.2089,-2.1777,-2.1887,-2.1961,-2.1869,-2.2291,-2.1844,-1.998,-1.9755,-1.8934,-1.7462,-1.6517,-1.6075,-1.645,-1.6074,-1.5678,-1.5157,-1.5591,-1.5605,0.0,0.0,0.0,0.0,0.0,0.0,0.0,0.0,0.0,0.0,0.0,-1.3034,-1.2869,-1.3009,-1.305,-1.305,-1.305,-1.2953,-1.2764,-1.2764,-1.2764,-1.2861,-1.3249,-1.3249,-1.305,-1.305,-1.2958,-1.2764,-1.2764,-1.2764,-1.2764,-1.2764,-1.2764,-1.2764,-1.2764,-1.2764,-1.2824,-1.3055,-1.3147,-1.3254,-1.3502,-1.3593,-1.3443,-1.2623,-1.2331,0.0,0.0,0.0,0.0,0.0,0.0,0.0,0.0,0.0,0.0,0.0,0.0,0.0,0.0,0.0,0.0,0.0,0.0,0.0,0.0,0.0,-1.4442,-1.4863,0.0,-1.5899,0.0,-1.6666,-1.6912,-1.7582,-1.7371,-1.7265,-1.7371,-1.7265,-1.6948,-1.6524,-1.6099,-1.5785,-1.5678,-1.5143,-1.4821,-1.4385,-1.3964,-1.2318,-1.0453,0.0,0.0,0.0,0.0,0.0,0.0,0.0,-2.2126,-2.1777,-2.1741,-2.229,-2.2694,-2.2309,-2.2969,-2.3039,-2.2106,-2.1796,-2.1035,-1.9566,-1.8555,-1.7587,-1.6861,-1.6422,-1.6079,-1.5752,-1.5798,-1.5805,0.0,0.0,0.0,0.0,0.0,0.0,0.0,0.0,0.0,0.0,-1.3492,-1.3532,-1.3706,-1.3307,-1.2958,-1.2861,-1.2861,-1.2861,-1.2764,-1.2764,-1.2764,-1.2764,-1.2861,-1.2861,-1.2861,-1.2861,-1.2861,-1.2764,-1.2764,-1.2764,-1.2764,-1.2764,-1.2764,-1.2764,-1.2764,-1.2764,-1.2824,-1.3055,-1.3281,-1.3507,-1.3739,-1.397,-1.3928,-1.311,-1.2923,-1.2699,0.0,0.0,0.0,0.0,0.0,0.0,0.0,0.0,0.0,0.0,0.0,0.0,0.0,0.0,0.0,0.0,0.0,0.0,-1.2829,0.0,-1.3728,-1.4556,-1.5117,0.0,-1.7495,-1.6451,-1.6503,-1.7582,-1.6524,-1.6311,-1.673,-1.6311,-1.5992,-1.5992,-1.5891,-1.5571,-1.5035,-1.5035,-1.4051,-1.2635,-1.2635,-1.1109,-0.903,0.0,0.0,0.0,0.0,0.0,0.0,0.0,-2.2566,-2.2731,-2.2409,-2.2656,-2.2802,-2.2722,-2.3208,-2.3112,-2.21,-2.2183,-2.1428,-1.9568,-1.8843,-1.8095,-1.7134,-1.6619,-1.6219,-1.6099,-1.5919,-1.5832,0.0,0.0,0.0,0.0,0.0,0.0,0.0,0.0,-1.3493,-1.341,-1.3445,-1.3449,-1.3431,-1.3147,-1.305,-1.2953,-1.2953,-1.2953,-1.2764,-1.2764,-1.2764,-1.2764,-1.2764,-1.2764,-1.2764,-1.2764,-1.2764,-1.2764,-1.2764,-1.2764,-1.2764,-1.2764,-1.2764,-1.2764,-1.2764,-1.2764,-1.2861,-1.3243,-1.3405,-1.3588,-1.3965,-1.4126,-1.4164,-1.3944,-1.3879,-1.3523,0.0,0.0,0.0,0.0,0.0,0.0,0.0,0.0,0.0,0.0,0.0,0.0,0.0,0.0,0.0,0.0,0.0,0.0,-1.3253,0.0,-1.397,-1.5818,-1.5429,-1.611,-1.7575,-1.6821,-1.6625,-1.7047,-1.6205,-1.5998,-1.6205,-1.5571,-1.5357,-1.5357,-1.5041,-1.4724,-1.4509,-1.4509,-1.3624,-1.2417,-1.2417,-1.0887,-0.892,-2.0911,0.0,-2.0173,0.0,-2.1456,-2.1841,-2.1906,-2.2942,-2.3492,-2.285,-2.3079,-2.3263,-2.3048,-2.3483,-2.332,-2.2294,-2.2343,-2.1619,-1.9683,-1.9512,-1.8774,-1.75,-1.7145,0.0,-1.6279,-1.6066,-1.5919,-1.5832,-1.4589,0.0,0.0,0.0,0.0,0.0,-1.398,-1.382,-1.3411,-1.3501,-1.3346,-1.305,-1.305,-1.305,-1.305,-1.305,-1.2958,-1.2861,-1.2861,-1.2958,-1.2958,-1.2953,-1.2861,-1.2856,-1.2861,-1.2764,-1.2764,-1.2861,-1.2861,-1.2764,-1.2861,-1.2861,-1.2764,-1.2764,-1.2764,-1.2888,-1.3367,-1.348,-1.3615,-1.4094,-1.4196,-1.4299,-1.4396,-1.4299,-1.4087,-1.3628,0.0,0.0,0.0,0.0,0.0,0.0,0.0,-1.0917,-1.1649,0.0,0.0,0.0,0.0,0.0,0.0,0.0,0.0,0.0,0.0,0.0,0.0,-1.4975,-1.5464,-1.7054,-1.6524,-1.6311,-1.6418,-1.5891,-1.5571,-1.5357,-1.4934,-1.4719,-1.4724,-1.4407,-1.4196,-1.4196,-1.4196,-1.3305,-1.1873,-1.1873,-1.0449,-0.8371,-2.2141,-2.2528,-2.2939,-2.3428,-2.3501,-2.3244,-2.2437,-2.3354,-2.3712,-2.2492,-2.3391,-2.3987,-2.3584,-2.3895,-2.3822,-2.2939,-2.2698,-2.1893,-2.0486,-2.0704,-2.0015,0.0,0.0,-1.7953,-1.6384,-1.6273,-1.6126,-1.5832,0.0,0.0,-1.4075,0.0,-1.4222,-1.4543,-1.4875,-1.4771,-1.4286,-1.3727,-1.3249,-1.2764,-1.2764,-1.2764,-1.2764,-1.2764,-1.2958,-1.3147,-1.3147,-1.3249,-1.3443,-1.3147,-1.3147,-1.305,-1.2861,-1.2764,-1.2861,-1.305,-1.2958,-1.2861,-1.305,-1.2953,-1.2764,-1.2764,-1.2764,-1.2888,-1.3367,-1.348,-1.3615,-1.4094,-1.4196,-1.4196,-1.4196,-1.4196,-1.4142,-1.3859,0.0,0.0,0.0,0.0,0.0,0.0,-1.1074,-1.0599,-1.0659,0.0,0.0,0.0,0.0,0.0,0.0,0.0,0.0,-1.1186,-1.0882,0.0,-1.3133,-1.3399,-1.4322,-1.5891,-1.5357,-1.5357,-1.5891,-1.525,-1.4719,-1.4191,-1.4196,-1.4196,-1.4196,-1.4196,-1.4196,-1.4196,-1.4196,-1.2758,-1.0672,-1.0672,-0.9244,-0.7265,-2.0722,-2.1755,-2.282,-2.2867,-2.3293,-2.3672,-2.3611,-2.3904,-2.4015,-2.362,-2.3914,-2.4106,-2.3978,-2.4079,-2.4051,0.0,-2.3211,-2.2461,0.0,-2.1374,-2.0827,-1.9976,-1.8837,-1.7909,-1.7423,-1.6252,-1.5631,-1.5531,0.0,0.0,0.0,-1.4382,-1.475,-1.5332,-1.476,-1.449,-1.4202,-1.3437,-1.2958,-1.2764,-1.2764,-1.2764,-1.2764,-1.2764,-1.2861,-1.2861,-1.2861,-1.3055,-1.3244,-1.3147,-1.3244,-1.3346,-1.3346,-1.3055,-1.2861,-1.305,-1.2958,-1.2861,-1.305,-1.2953,-1.2764,-1.2764,-1.2764,-1.2845,-1.3152,-1.3475,-1.3803,-1.4126,-1.4196,-1.4196,-1.4196,-1.4196,-1.4035,-1.3659,-1.4095,0.0,0.0,0.0,0.0,0.0,0.0,-1.1057,0.0,-1.0969,0.0,0.0,0.0,0.0,0.0,0.0,0.0,0.0,-1.2238,0.0,-1.4467,-1.4087,-1.4554,-1.5891,-1.525,-1.4934,-1.4724,-1.4515,-1.4407,-1.4196,-1.4196,-1.4196,-1.4196,-1.4196,-1.4196,-1.4196,-1.4196,-1.2762,-1.0672,-1.0672,-0.9244,-0.7154,-2.1119,-2.2046,-2.2903,-2.2946,-2.3323,-2.3601,-2.3344,-2.3752,-2.3889,-2.3529,-2.3868,-2.4152,-2.4152,-2.4152,0.0,-2.4152,-2.3694,-2.332,-2.3103,-2.2681,-2.212,-2.1481,-2.0257,-1.9161,-1.8258,0.0,0.0,-1.5725,-1.5244,-1.501,-1.501,-1.4837,-1.5035,-1.5452,-1.449,-1.401,-1.3919,-1.3147,-1.2764,-1.2764,-1.2764,-1.2764,-1.2764,-1.2764,-1.2861,-1.2953,-1.2953,-1.3055,-1.3249,-1.3147,-1.3249,-1.3443,-1.3346,-1.3249,-1.3152,-1.3346,-1.3152,-1.2958,-1.3147,-1.3055,-1.2764,-1.2764,-1.2764,-1.2824,-1.3055,-1.3475,-1.3863,-1.4024,-1.4126,-1.4196,-1.4196,-1.4196,-1.4094,-1.3892,-1.4334,-1.4472,-1.3652,0.0,0.0,0.0,0.0,0.0,0.0,-1.1381,0.0,0.0,0.0,0.0,0.0,0.0,0.0,-1.2181,-1.2349,0.0,-1.4202,-1.3845,-1.4191,-1.5256,-1.4826,-1.4509,-1.4196,-1.4196,-1.4196,-1.4196,-1.4196,-1.4196,-1.4196,-1.4196,-1.4196,-1.4191,-1.3748,-1.2318,-1.0672,-1.0233,-0.8806,-0.7154,-2.2763,-2.3059,0.0,0.0,-2.3311,0.0,-2.2155,-2.3033,-2.3447,-2.251,-2.3446,-2.4152,-2.4152,-2.4152,-2.4152,-2.4152,0.0,0.0,0.0,-2.4097,-2.3692,-2.2627,-2.2475,-2.1361,-1.9026,-1.8607,-1.7717,-1.6273,-1.5972,-1.5737,-1.573,-1.5267,-1.5083,-1.4987,-1.3925,-1.3539,-1.3443,-1.2958,-1.2764,-1.2764,-1.2764,-1.2764,-1.2764,-1.2764,-1.2958,-1.305,-1.305,-1.3244,-1.3443,-1.3147,-1.3249,-1.3443,-1.3249,-1.3346,-1.3539,-1.3835,-1.3539,-1.3147,-1.3443,-1.3152,-1.2861,-1.2861,-1.2861,-1.2824,-1.305,-1.3448,-1.3776,-1.3793,-1.3981,-1.4148,-1.4148,-1.4148,-1.425,-1.4449,-1.4367,-1.4311,-1.4579,0.0,0.0,0.0,0.0,0.0,0.0,-1.1752,-1.1844,0.0,0.0,0.0,0.0,0.0,-1.0412,-1.1112,-1.158,-1.2151,-1.2829,-1.3066,-1.3518,-1.4196,-1.4196,-1.4196,-1.4196,-1.4196,-1.4196,-1.4196,-1.4196,-1.4196,-1.4191,-1.4083,-1.4083,-1.397,-1.2753,-1.1542,-1.0453,-0.9361,-0.8149,-0.7154,0.0,0.0,-2.2663,-2.2267,-2.2652,-2.3059,-2.3073,-2.3467,-2.3746,-2.3465,-2.387,-2.4152,-2.4152,-2.4152,-2.4152,-2.4152,-2.3593,-2.3501,-2.4115,-2.3584,-2.3414,-2.3818,-2.2549,-2.1505,-2.092,-1.9028,-1.7495,-1.6273,-1.5972,-1.5642,-1.5267,-1.5178,-1.4885,-1.449,-1.3829,-1.3539,-1.3443,-1.2958,-1.2764,-1.2764,-1.2764,-1.2764,-1.2764,-1.2764,-1.2861,-1.2861,-1.2861,-1.305,-1.3147,-1.3147,-1.3249,-1.3539,-1.3642,-1.3738,-1.3835,-1.3835,-1.3642,-1.3443,-1.3738,-1.3539,-1.3346,-1.3346,-1.3152,-1.311,-1.3353,-1.3295,-1.333,-1.3523,-1.361,-1.3647,-1.3647,-1.3647,-1.3647,-1.3746,-1.3898,-1.3763,-1.3213,-1.321,0.0,0.0,-1.2032,-1.2108,-1.2042,-1.2296,-1.2307,0.0,0.0,0.0,0.0,-1.2073,-1.2237,-1.2587,-1.2899,-1.3222,-1.3566,-1.3814,-1.4024,-1.4196,-1.4196,-1.4196,-1.4196,-1.4196,-1.4196,-1.4196,-1.4196,-1.4196,-1.4083,-1.3197,-1.2861,-1.2748,-1.1546,-1.0343,-0.9251,-0.903,-0.8149,-0.7154,-2.1105,-2.185,-2.2515,-2.2201,-2.2568,-2.2946,-2.3347,-2.3447,-2.3555,-2.3954,-2.3954,-2.4053,-2.4152,-2.4152,-2.4152,-2.4152,-2.3758,-2.3694,-2.4125,-2.3749,-2.3694,-2.4134,-2.3322,-2.2585,-2.1999,-2.0549,-1.8857,-1.7036,-1.5972,-1.5363,-1.5083,-1.4604,-1.4214,-1.3919,-1.3443,-1.3152,-1.3152,-1.2958,-1.2764,-1.2764,-1.2764,-1.2764,-1.2764,-1.2764,-1.2764,-1.2764,-1.2764,-1.2861,-1.2958,-1.2958,-1.3147,-1.3346,-1.3443,-1.3636,-1.3738,-1.3738,-1.3738,-1.3738,-1.3835,-1.3738,-1.3443,-1.3346,-1.3244,-1.3083,-1.3215,-1.3232,-1.3347,-1.3483,-1.3502,-1.3583,-1.3685,-1.3685,-1.368,-1.3879,-1.3696,-1.343,-1.3119,-1.2951,0.0,-1.2126,-1.2338,-1.2498,-1.2543,-1.2704,-1.2646,-1.2361,0.0,0.0,-1.2684,-1.2805,-1.2975,-1.326,-1.3507,-1.3696,-1.382,-1.4067,-1.4196,-1.4196,-1.4196,-1.4196,-1.4196,-1.4196,-1.4196,-1.4196,-1.4196,-1.3862,-1.3305,-1.2639,-1.2087,-1.1542,-1.0343,-0.9467,-0.8809,-0.8371,-0.7706,-0.7154,-2.2644,-2.2644,-2.2644,-2.2644,-2.2644,-2.2745,-2.3247,-2.3147,-2.3347,-2.3954,-2.3954,-2.3954,-2.4152,-2.4152,-2.4152,-2.4152,-2.4152,-2.4152,-2.4152,-2.4152,-2.4152,-2.4152,-2.4152,-2.3746,-2.2728,-2.2339,-2.0614,-1.7763,-1.6128,-1.5217,-1.4796,-1.3925,-1.3443,-1.3346,-1.2958,-1.2764,-1.2764,-1.2764,-1.2764,-1.2764,-1.2764,-1.2764,-1.2764,-1.2764,-1.2764,-1.2764,-1.2764,-1.2764,-1.2764,-1.2764,-1.2953,-1.305,-1.305,-1.3249,-1.3443,-1.3443,-1.3642,-1.3835,-1.3931,-1.3738,-1.3539,-1.334,-1.3244,-1.3147,-1.2958,-1.321,-1.3452,-1.3452,-1.3523,-1.3576,-1.3779,-1.3886,-1.3853,-1.4065,-1.3522,-1.3082,-1.3275,0.0,-1.2481,-1.2723,-1.2843,-1.2966,-1.3108,-1.3088,-1.2997,-1.3187,-1.2905,-1.2992,0.0,-1.3279,-1.3263,-1.3572,-1.3739,-1.3836,-1.3873,-1.4089,-1.4196,-1.4196,-1.4196,-1.4196,-1.4196,-1.4196,-1.4196,-1.4191,-1.397,-1.3305,-1.2417,-1.1978,-1.1324,-1.0343,-0.9137,-0.8592,-0.8481,-0.7598,-0.7154,-0.7154,-2.2644,-2.2644,-2.2644,-2.2644,-2.2644,-2.2653,-2.2745,-2.3046,-2.3347,-2.3555,-2.3854,-2.4152,-2.4152,-2.4152,-2.4152,-2.4152,-2.4152,-2.4152,-2.4152,-2.4152,-2.4152,-2.4152,-2.4152,-2.4152,-2.3945,-2.2545,-2.0335,-1.7295,-1.6696,-1.5564,-1.3732,-1.3539,-1.3249,-1.2958,-1.2861,-1.2764,-1.2764,-1.2764,-1.2764,-1.2764,-1.2764,-1.2764,-1.2764,-1.2764,-1.2764,-1.2764,-1.2764,-1.2764,-1.2764,-1.2764,-1.2861,-1.2856,-1.305,-1.3147,-1.3244,-1.3443,-1.3539,-1.3636,-1.3835,-1.4022,-1.4202,-1.4106,-1.3919,-1.3738,-1.3738,-1.3574,-1.3499,-1.3499,-1.3533,-1.3464,-1.3562,-1.3562,-1.342,-1.2983,-1.2819,-1.2688,-1.2534,0.0,-1.2966,-1.3041,-1.3444,-1.3651,-1.3437,-1.363,-1.3667,-1.3402,-1.4033,-1.4177,-1.376,-1.4095,-1.4205,-1.4083,-1.3911,-1.3922,-1.4132,-1.4175,-1.4196,-1.4196,-1.4196,-1.4196,-1.4196,-1.4196,-1.4196,-1.4191,-1.3083,-1.2526,-1.22,-1.0233,-0.9357,-0.903,-0.7928,-0.7485,-0.7487,-0.7265,-0.7154,-0.7154,-2.2644,-2.2644,-2.2644,-2.2644,-2.2644,-2.2644,-2.2745,-2.2946,-2.3046,-2.3347,-2.3456,-2.3646,-2.3954,-2.3954,-2.4053,-2.4152,-2.4152,-2.4152,-2.4152,-2.4152,-2.4152,-2.4152,-2.4152,-2.3845,-2.312,-2.2133,-2.0466,-1.8057,-1.6863,-1.5603,-1.4292,-1.3534,-1.3055,-1.2764,-1.2764,-1.2764,-1.2764,-1.2764,-1.2764,-1.2764,-1.2764,-1.2764,-1.2764,-1.2764,-1.2764,-1.2764,-1.2764,-1.2764,-1.2764,-1.2764,-1.2764,-1.2861,-1.2953,-1.2953,-1.2958,-1.3055,-1.3346,-1.3545,-1.3835,-1.3925,-1.3919,-1.4022,-1.4022,-1.3835,-1.3738,-1.3738,-1.3738,-1.3738,-1.3636,-1.3539,-1.3738,-1.3738,-1.3657,-1.342,-1.3234,0.0,0.0,-1.3177,-1.3332,-1.3332,-1.3614,-1.3835,-1.3738,-1.3739,-1.372,-1.3886,-1.4225,-1.437,-1.421,-1.4438,-1.4504,-1.4196,-1.4083,-1.4078,-1.4196,-1.4196,-1.4196,-1.4196,-1.4196,-1.4196,-1.4196,-1.4196,-1.4196,-1.4083,-1.297,-1.2087,-1.1328,-0.9578,-0.8589,-0.7928,-0.7374,-0.7154,-0.7154,-0.7154,-0.7154,-0.7154,-2.2644,-2.2644,-2.2644,-2.2644,-2.2644,-2.2644,-2.2946,-2.2846,-2.2946,-2.3347,-2.3347,-2.3447,-2.3755,-2.3854,-2.3954,-2.4152,-2.4152,-2.4152,-2.4152,-2.4152,-2.4152,-2.4152,-2.4152,-2.3637,-2.24,-2.2227,-2.1048,-1.8845,-1.7421,-1.6249,-1.5134,-1.3811,-1.3147,-1.3147,-1.2861,-1.2764,-1.2764,-1.2764,-1.2764,-1.2764,-1.2764,-1.2764,-1.2764,-1.2764,-1.2764,-1.2764,-1.2764,-1.2764,-1.2764,-1.2764,-1.2764,-1.2764,-1.2764,-1.2764,-1.2764,-1.2764,-1.3055,-1.3443,-1.3738,-1.3738,-1.3636,-1.3835,-1.3931,-1.3925,-1.3732,-1.3829,-1.4022,-1.4022,-1.3829,-1.3732,-1.3925,-1.4022,-1.3986,-1.3868,0.0,0.0,0.0,-1.3513,-1.3562,-1.3682,-1.3874,-1.4022,-1.4022,-1.3881,-1.3883,-1.4268,-1.4349,-1.4476,-1.4601,-1.4517,-1.4443,-1.4191,-1.4196,-1.4196,-1.4196,-1.4196,-1.4196,-1.4196,-1.4196,-1.4196,-1.4196,-1.4196,-1.4196,-1.4083,-1.2644,-1.1542,-1.0562,-0.9137,-0.8039,-0.7154,-0.7154,-0.7154,-0.7043,-0.7043,-0.693,-0.6821,-2.2946,-2.2745,-2.2644,-2.2946,-2.2745,-2.2644,-2.2946,-2.3147,-2.3347,-2.3347,-2.3854,-2.4053,-2.3854,-2.4053,-2.4152,-2.4152,-2.4152,-2.4152,-2.4152,-2.4152,-2.4152,-2.4152,-2.4152,-2.3954,-2.3347,-2.332,-2.1917,-1.9138,-1.9018,-1.7904,-1.5704,-1.4669,-1.4202,-1.4106,-1.3244,-1.2764,-1.2764,-1.2764,-1.2764,-1.2764,-1.2764,-1.2764,-1.2764,-1.2764,-1.2764,-1.2764,-1.2764,-1.2764,-1.2764,-1.2764,-1.2764,-1.2764,-1.2764,-1.2764,-1.2764,-1.2764,-1.2861,-1.2958,-1.3443,-1.3738,-1.3835,-1.3931,-1.4118,-1.4298,-1.4298,-1.4298,-1.4298,-1.4298,-1.4298,-1.4298,-1.4298,-1.4298,-1.4141,-1.3652,0.0,0.0,-1.3513,-1.3513,-1.3694,-1.4183,-1.4274,-1.4298,-1.4298,-1.4436,-1.4505,-1.4336,-1.456,-1.4613,-1.4577,-1.4378,-1.4166,-1.4186,-1.4196,-1.4196,-1.4196,-1.4196,-1.4196,-1.4196,-1.4196,-1.4196,-1.4196,-1.4196,-1.4196,-1.4083,-1.1769,-1.0781,-1.0562,-0.8257,-0.7265,-0.7154,-0.7154,-0.6821,-0.6374,-0.6374,-0.604,-0.5483,-2.2946,-2.2946,-2.2846,-2.2745,-2.2846,-2.2846,-2.2946,-2.3247,-2.3447,-2.3447,-2.3546,-2.3755,-2.3746,-2.3845,-2.4053,-2.4152,-2.4152,-2.4152,-2.4152,-2.4152,-2.4152,-2.4152,-2.4152,-2.3737,-2.261,-2.3138,-2.2051,-1.9334,-1.9236,-1.8312,-1.6734,-1.5704,-1.486,-1.4298,-1.3913,-1.334,-1.2764,-1.2764,-1.2764,-1.2764,-1.2764,-1.2764,-1.2764,-1.2764,-1.2764,-1.2764,-1.2764,-1.2764,-1.2764,-1.2764,-1.2764,-1.2764,-1.2764,-1.2764,-1.2764,-1.2764,-1.2764,-1.2861,-1.3055,-1.3249,-1.3443,-1.3835,-1.4027,-1.4118,-1.4298,-1.4298,-1.4298,-1.4298,-1.4298,-1.4298,-1.4298,-1.4298,-1.4232,-1.4032,0.0,-1.4002,-1.4002,-1.4002,-1.4075,-1.4274,-1.4298,-1.4298,-1.4298,-1.4395,-1.4527,-1.4505,-1.4606,-1.4678,-1.4624,-1.4584,-1.45,-1.4495,-1.4641,-1.4509,-1.4196,-1.4196,-1.4196,-1.4196,-1.4196,-1.4196,-1.4196,-1.4196,-1.4196,-1.4083,-1.1324,-1.0335,-1.0449,-0.7365,-0.6262,-0.6596,-0.6262,-0.5929,-0.5706,-0.5706,-0.5594,-0.5371,-2.3247,-2.3147,-2.3046,-2.2946,-2.3046,-2.3147,-2.3247,-2.3456,-2.3555,-2.3555,-2.3546,-2.3655,-2.3755,-2.3854,-2.3954,-2.4152,-2.4152,-2.4152,-2.4152,-2.4152,-2.4152,-2.4152,-2.4152,-2.3538,-2.2501,-2.3038,-2.2158,-1.9836,-1.9747,-1.9,-1.777,-1.6734,-1.5893,-1.5235,-1.4956,-1.4196,-1.3244,-1.3244,-1.305,-1.2764,-1.2764,-1.2958,-1.3244,-1.3244,-1.3431,-1.3709,-1.3709,-1.3709,-1.3715,-1.3335,-1.3244,-1.3244,-1.2861,-1.2764,-1.2764,-1.2764,-1.2764,-1.2764,-1.2764,-1.2861,-1.3147,-1.3539,-1.3738,-1.3829,-1.4112,-1.4208,-1.4208,-1.4298,-1.4298,-1.4298,-1.4298,-1.4298,-1.4298,-1.4298,-1.4298,-1.4298,-1.4298,-1.4298,-1.4298,-1.4298,-1.4298,-1.4298,-1.4298,-1.4298,-1.4377,-1.457,-1.4582,-1.4598,-1.456,-1.4613,-1.4584,-1.456,-1.473,-1.4748,-1.4293,-1.4299,-1.4299,-1.4196,-1.4196,-1.4196,-1.4196,-1.4196,-1.4196,-1.4083,-1.1651,-1.0773,-1.0781,-0.7913,-0.6924,-0.7038,-0.6705,-0.6371,-0.6258,-0.6258,-0.5815,-0.5371,-2.3646,-2.3546,-2.3456,-2.3746,-2.3546,-2.3447,-2.3755,-2.3755,-2.3755,-2.3755,-2.4053,-2.4053,-2.3845,-2.4053,-2.4152,-2.4152,-2.4152,-2.4152,-2.4152,-2.3954,-2.3954,-2.4152,-2.3954,-2.3646,-2.3456,-2.3147,-2.2275,-2.0669,-2.0669,-2.0099,-1.8735,-1.777,-1.7296,-1.7296,-1.6264,-1.5235,-1.4298,-1.4298,-1.3721,-1.2861,-1.2861,-1.3431,-1.4298,-1.4298,-1.4956,-1.5798,-1.5798,-1.5798,-1.5609,-1.4675,-1.4298,-1.4106,-1.3147,-1.2764,-1.2764,-1.2764,-1.2764,-1.2764,-1.2764,-1.2764,-1.2861,-1.305,-1.3346,-1.3539,-1.3835,-1.3931,-1.3925,-1.4202,-1.4298,-1.4298,-1.4298,-1.4298,-1.4298,-1.4298,-1.4298,-1.4298,-1.4298,-1.4298,-1.4298,-1.4298,-1.4298,-1.4298,-1.4298,-1.4298,-1.4298,-1.4298,-1.4298,-1.4322,-1.4295,-1.4554,-1.471,-1.4659,-1.456,-1.4573,-1.46,-1.4606,-1.4504,-1.4196,-1.4196,-1.4196,-1.4196,-1.4196,-1.4196,-1.4083,-1.297,-1.2091,-1.1546,-1.0343,-0.9467,-0.892,-0.892,-0.8475,-0.8029,-0.8029,-0.6922,-0.5371,-2.3546,-2.3655,-2.3655,-2.3546,-2.3655,-2.3755,-2.3755,-2.3954,-2.4053,-2.4053,-2.4152,-2.4152,-2.4053,-2.4152,-2.4152,-2.4152,-2.4152,-2.4152,-2.3954,-2.3854,-2.3746,-2.3646,-2.3546,-2.3447,-2.3447,-2.3147,-2.2382,-2.095,-2.0757,-2.0099,-1.8827,-1.8442,-1.7963,-1.7296,-1.7016,-1.6264,-1.533,-1.533,-1.514,-1.4949,-1.4949,-1.5038,-1.533,-1.533,-1.5514,-1.5798,-1.5798,-1.533,-1.4669,-1.4388,-1.3817,-1.3244,-1.2861,-1.2764,-1.2764,-1.2764,-1.2764,-1.2764,-1.2764,-1.2764,-1.2861,-1.305,-1.3147,-1.3244,-1.3545,-1.3636,-1.3738,-1.3925,-1.4022,-1.4118,-1.4298,-1.4298,-1.4298,-1.4298,-1.4298,-1.4298,-1.4298,-1.4112,-1.4118,-1.4298,-1.4112,-1.4112,-1.4298,-1.4298,-1.4298,-1.4298,-1.4298,-1.4334,-1.4316,-1.4586,-1.4749,-1.4909,-1.5092,-1.5211,-1.5261,-1.4821,-1.4504,-1.4196,-1.4196,-1.4196,-1.4196,-1.4196,-1.4196,-1.4083,-1.2521,-1.1751,-1.1437,-0.934,-0.8465,-0.8251,-0.7805,-0.7033,-0.6146,-0.6146,-0.5258,-0.4145,-2.3447,-2.3546,-2.3546,-2.3456,-2.3646,-2.3755,-2.3755,-2.4053,-2.4152,-2.4152,-2.4152,-2.4152,-2.4152,-2.4152,-2.4152,-2.4152,-2.3945,-2.3746,-2.3438,-2.3338,-2.3247,-2.3247,-2.3147,-2.3147,-2.3247,-2.2946,-2.2352,-2.1265,-2.0928,-2.0172,-1.922,-1.8891,-1.845,-1.787,-1.787,-1.7304,-1.6358,-1.6358,-1.617,-1.5798,-1.5798,-1.6075,-1.6344,-1.6313,-1.6557,-1.6914,-1.6868,-1.6458,-1.5814,-1.4987,-1.369,-1.2479,-1.2479,-1.2479,-1.2479,-1.2479,-1.2479,-1.2501,-1.2597,-1.2624,-1.2742,-1.2931,-1.2953,-1.305,-1.3244,-1.3346,-1.3443,-1.3738,-1.3738,-1.3835,-1.4112,-1.4112,-1.4208,-1.4298,-1.4298,-1.4298,-1.4208,-1.4022,-1.3931,-1.4016,-1.3829,-1.3829,-1.4016,-1.4112,-1.4208,-1.4298,-1.4298,-1.4298,-1.4298,-1.4461,-1.4721,-1.5095,-1.5264,-1.5425,-1.5482,-1.5154,-1.4719,-1.4401,-1.4401,-1.4401,-1.4401,-1.4299,-1.4191,-1.418,-1.2748,-1.2091,-1.1664,-1.0225,-0.9457,-0.9244,-0.902,-0.8468,-0.7805,-0.7362,-0.6364,-0.5256,-2.3347,-2.3347,-2.3447,-2.3447,-2.3546,-2.3755,-2.3755,-2.3954,-2.4152,-2.4152,-2.4152,-2.4152,-2.4152,-2.4152,-2.4152,-2.4152,-2.3637,-2.3229,-2.2929,-2.2627,-2.2636,-2.2946,-2.2745,-2.2745,-2.2946,-2.2745,-2.2264,-2.161,-2.107,-2.0416,-1.9833,-1.922,-1.8859,-1.8827,-1.8827,-1.8257,-1.739,-1.739,-1.6922,-1.6075,-1.6055,-1.6605,-1.7402,-1.7258,-1.7784,-1.8572,-1.8406,-1.8362,-1.7921,-1.5779,-1.3736,-1.214,-1.214,-1.214,-1.214,-1.214,-1.214,-1.2097,-1.2323,-1.2382,-1.2441,-1.2673,-1.2732,-1.2834,-1.305,-1.305,-1.3147,-1.3443,-1.3443,-1.3539,-1.3835,-1.3931,-1.4027,-1.4298,-1.4298,-1.4202,-1.3925,-1.3931,-1.3738,-1.3539,-1.3443,-1.3443,-1.3539,-1.3738,-1.4027,-1.4202,-1.4298,-1.4298,-1.4298,-1.4322,-1.457,-1.5089,-1.5131,-1.5287,-1.5476,-1.5589,-1.5261,-1.4606,-1.4606,-1.4606,-1.46,-1.4293,-1.4186,-1.4062,-1.3527,-1.2767,-1.2005,-1.2005,-1.1673,-1.1126,-1.1459,-1.1568,-1.1236,-1.0127,-0.8913,-0.7697,-2.3147,-2.3247,-2.3447,-2.3447,-2.3456,-2.3456,-2.3456,-2.3746,-2.3854,-2.3854,-2.4053,-2.4152,-2.4152,-2.4152,-2.4152,-2.4152,-2.3637,-2.3329,-2.3247,-2.2837,-2.2535,-2.2644,-2.2644,-2.2653,-2.2644,-2.2653,-2.2264,-2.161,-2.1427,-2.0856,-1.9841,-1.9665,-1.9284,-1.8827,-1.8827,-1.8635,-1.8442,-1.8442,-1.835,-1.8141,-1.8063,-1.8135,-1.8277,-1.8177,-1.8224,-1.8485,-1.8395,-1.7921,-1.6858,-1.4724,-1.3211,-1.214,-1.214,-1.214,-1.214,-1.214,-1.214,-1.2151,-1.2113,-1.2129,-1.2188,-1.2431,-1.249,-1.2538,-1.2818,-1.2861,-1.2958,-1.3147,-1.3147,-1.3346,-1.3835,-1.3931,-1.4027,-1.4298,-1.4298,-1.4298,-1.4202,-1.3829,-1.3636,-1.3835,-1.3443,-1.3249,-1.3443,-1.3539,-1.3732,-1.3925,-1.4027,-1.4118,-1.4298,-1.4509,-1.4775,-1.5101,-1.5306,-1.5565,-1.5785,-1.5785,-1.5464,-1.4928,-1.4928,-1.4713,-1.4277,-1.4283,-1.3959,-1.3532,-1.3315,-1.2876,-1.2327,-1.2327,-1.2005,-1.1459,-1.1568,-1.1013,-1.0017,-0.8803,-0.7584,-0.6473,-2.2846,-2.2946,-2.3046,-2.3046,-2.3147,-2.3247,-2.3247,-2.3447,-2.3646,-2.3755,-2.3954,-2.4053,-2.4152,-2.4152,-2.3872,-2.3171,-2.2658,-2.2283,-2.212,-2.1816,-2.1793,-2.227,-2.2287,-2.2364,-2.2644,-2.2644,-2.2458,-2.2062,-2.1793,-2.131,-2.0636,-2.0091,-1.9641,-1.926,-1.8899,-1.8732,-1.8672,-1.8672,-1.8659,-1.8572,-1.8563,-1.849,-1.8449,-1.8341,-1.8286,-1.8261,-1.8255,-1.7508,-1.6382,-1.4742,-1.3448,-1.2403,-1.1887,-1.1715,-1.1715,-1.1715,-1.1715,-1.1741,-1.1849,-1.1881,-1.1941,-1.2178,-1.2328,-1.2474,-1.2711,-1.2764,-1.2861,-1.2953,-1.2958,-1.3055,-1.3443,-1.3539,-1.3636,-1.3823,-1.3919,-1.3913,-1.3727,-1.3534,-1.3346,-1.3346,-1.3152,-1.305,-1.3244,-1.3346,-1.3443,-1.3738,-1.3835,-1.3931,-1.4118,-1.4472,-1.4835,-1.5101,-1.536,-1.5626,-1.5885,-1.5891,-1.5571,-1.5041,-1.4821,-1.4498,-1.3959,-1.3851,-1.3635,-1.3315,-1.2989,-1.2659,-1.2223,-1.2223,-1.2005,-1.1787,-1.1341,-1.0785,-1.0014,-0.8251,-0.6813,-0.5706,-2.2644,-2.2644,-2.2644,-2.2644,-2.2745,-2.2946,-2.2946,-2.3147,-2.3447,-2.3646,-2.3646,-2.3845,-2.4053,-2.3989,-2.3475,-2.2186,-2.1475,-2.1064,-2.0782,-2.0765,-2.0995,-2.1786,-2.1961,-2.2141,-2.2449,-2.2518,-2.2644,-2.2644,-2.2045,-2.1668,-2.1593,-2.0586,-2.005,-1.9817,-1.9172,-1.8819,-1.8669,-1.8604,-1.8482,-1.8362,-1.839,-1.8366,-1.8324,-1.8221,-1.8162,-1.812,-1.807,-1.7286,-1.6191,-1.5115,-1.3944,-1.2766,-1.1682,-1.1262,-1.1262,-1.1262,-1.1262,-1.131,-1.1585,-1.1639,-1.1698,-1.193,-1.214,-1.2366,-1.2641,-1.2732,-1.2764,-1.2764,-1.2764,-1.2861,-1.305,-1.3147,-1.3147,-1.3443,-1.3539,-1.3443,-1.3249,-1.3147,-1.305,-1.2861,-1.2861,-1.2861,-1.305,-1.305,-1.3152,-1.3443,-1.3642,-1.3835,-1.3931,-1.4416,-1.4784,-1.5101,-1.5403,-1.5674,-1.5885,-1.5785,-1.5464,-1.4821,-1.4498,-1.4072,-1.3645,-1.3423,-1.3207,-1.3098,-1.2659,-1.2219,-1.2114,-1.2114,-1.2114,-1.2001,-1.1114,-1.0672,-1.0453,-0.8033,-0.6379,-0.5382,-2.2745,-2.2644,-2.2644,-2.2644,-2.2644,-2.2644,-2.2644,-2.2846,-2.3046,-2.3147,-2.3347,-2.3546,-2.3854,-2.3332,-2.277,-2.2187,-2.1298,-2.0815,-2.1046,-2.0862,-2.0878,-2.1218,-2.1727,-2.2021,-2.2073,-2.2381,-2.2644,-2.2644,-2.2501,-2.2212,-2.161,-2.1402,-2.0912,-1.9997,-1.9652,-1.9282,-1.8912,-1.8584,-1.8419,-1.8423,-1.8287,-1.8246,-1.8205,-1.8091,-1.8036,-1.8019,-1.7976,-1.7286,-1.6191,-1.5115,-1.3944,-1.2766,-1.1682,-1.1262,-1.1262,-1.1262,-1.1262,-1.1273,-1.13,-1.131,-1.1456,-1.1688,-1.1768,-1.1914,-1.2361,-1.2619,-1.2764,-1.2764,-1.2764,-1.2861,-1.305,-1.3147,-1.3147,-1.3443,-1.3539,-1.3443,-1.3443,-1.3244,-1.305,-1.305,-1.2953,-1.2764,-1.2861,-1.2861,-1.2958,-1.3147,-1.3147,-1.3443,-1.3835,-1.4383,-1.4862,-1.5107,-1.5584,-1.5855,-1.5891,-1.5357,-1.4821,-1.4277,-1.3743,-1.3423,-1.3315,-1.3315,-1.2985,-1.255,-1.2441,-1.2332,-1.2327,-1.2327,-1.2327,-1.2219,-1.1114,-1.0672,-1.0453,-0.8033,-0.6379,-0.5382,-2.361,-2.342,-2.322,-2.2745,-2.2644,-2.2644,-2.2644,-2.2745,-2.2846,-2.2946,-2.3247,-2.3367,-2.3439,-2.2567,-2.1796,-2.1131,-2.0355,-1.9987,-2.0058,-1.9947,-2.0038,-2.0529,-2.0791,-2.1071,-2.129,-2.145,-2.1632,-2.1731,-2.2338,-2.2458,-2.2195,-2.1582,-2.1113,-2.0674,-1.9928,-1.9355,-1.8887,-1.8712,-1.8489,-1.8179,-1.8102,-1.8116,-1.8099,-1.8019,-1.804,-1.804,-1.804,-1.77,-1.7033,-1.5289,-1.4364,-1.3607,-1.1854,-1.1262,-1.1262,-1.1262,-1.1262,-1.1262,-1.1262,-1.1262,-1.1289,-1.1478,-1.1602,-1.179,-1.2129,-1.2398,-1.2608,-1.2737,-1.2764,-1.2861,-1.2958,-1.2958,-1.2958,-1.3055,-1.3152,-1.3152,-1.3152,-1.3055,-1.2958,-1.2958,-1.2861,-1.2764,-1.2764,-1.2764,-1.2861,-1.2958,-1.305,-1.3249,-1.3642,-1.4319,-1.4796,-1.5107,-1.5614,-1.5891,-1.5891,-1.525,-1.4713,-1.4169,-1.3635,-1.3098,-1.2767,-1.2767,-1.2659,-1.2441,-1.2441,-1.1996,-1.1446,-1.1446,-1.1,-1.0339,-0.9133,-0.8251,-0.759,-0.6487,-0.5824,-0.5382]},{"header":{"parameterUnit":"m.s-1","parameterCategory":1,"la1":30.6,"la2":28.766,"lo1":-90.7593,"lo2":-88.6598,"dy":0.0162,"dx":0.0183,"nx":116,"ny":114,"refTime":"2023-07-14T12:00:00:Z","depth":0,"parameterNumber":3,"parameterNumberName":"V-component_of_WINDS"},"data":[0.0,0.0,0.0,0.0,0.0,0.0,0.0,0.0,0.0,0.0,0.0,0.0,0.0,0.0,0.0,0.0,0.0,0.0,0.0,0.0,0.0,0.0,0.0,0.0,0.0,0.0,0.0,0.0,0.0,0.0,0.0,0.0,0.0,0.0,0.0,0.0,0.0,0.0,0.0,0.0,0.0,0.0,0.0,0.0,0.0,0.0,0.0,0.0,0.0,0.0,0.0,0.0,0.0,0.0,0.0,0.0,0.0,0.0,0.0,0.0,0.0,0.0,0.0,0.0,0.0,0.0,0.0,0.0,0.0,0.0,0.0,0.0,0.0,0.0,0.0,0.0,0.0,0.0,0.0,0.0,0.0,0.0,0.0,0.0,0.0,0.0,0.0,0.0,0.0,0.0,0.0,0.0,0.0,0.0,0.0,0.0,0.0,0.0,0.0,0.0,0.0,0.0,0.0,0.0,0.0,0.0,0.0,0.0,0.0,0.0,0.0,0.0,0.0,0.0,0.0,0.0,0.0,0.0,0.0,0.0,0.0,0.0,0.0,0.0,0.0,0.0,0.0,0.0,0.0,0.0,0.0,0.0,0.0,0.0,0.0,0.0,0.0,0.0,0.0,0.0,0.0,0.0,0.0,0.0,0.0,0.0,0.0,0.0,0.0,0.0,0.0,0.0,0.0,0.0,0.0,0.0,0.0,0.0,0.0,0.0,0.0,0.0,0.0,0.0,0.0,0.0,0.0,0.0,0.0,0.0,0.0,0.0,0.0,0.0,0.0,0.0,0.0,0.0,0.0,0.0,0.0,0.0,0.0,0.0,0.0,0.0,0.0,0.0,0.0,0.0,0.0,0.0,0.0,0.0,0.0,0.0,0.0,0.0,0.0,0.0,0.0,0.0,0.0,0.0,0.0,0.0,0.0,0.0,0.0,0.0,0.0,0.0,0.0,0.0,0.0,0.0,0.0,0.0,0.0,0.0,0.0,0.0,0.0,0.0,0.0,0.0,0.0,0.0,0.0,0.0,0.0,0.0,0.0,0.0,0.0,0.0,0.0,0.0,0.0,0.0,0.0,0.0,0.0,0.0,0.0,0.0,0.0,0.0,0.0,0.0,0.0,0.0,0.0,0.0,0.0,0.0,0.0,0.0,0.0,0.0,0.0,0.0,0.0,0.0,0.0,0.0,0.0,0.0,0.0,0.0,0.0,0.0,0.0,0.0,0.0,0.0,0.0,0.0,0.0,0.0,0.0,0.0,0.0,0.0,0.0,0.0,0.0,0.0,0.0,0.0,0.0,0.0,0.0,0.0,0.0,0.0,0.0,0.0,0.0,0.0,0.0,0.0,0.0,0.0,0.0,0.0,0.0,0.0,0.0,0.0,0.0,0.0,0.0,0.0,0.0,0.0,0.0,0.0,0.0,0.0,0.0,0.0,0.0,0.0,0.0,0.0,0.0,0.0,0.0,0.0,0.0,0.0,0.0,0.0,0.0,0.0,0.0,0.0,0.0,0.0,0.0,0.0,0.0,0.0,0.0,0.0,0.0,0.0,0.0,0.0,0.0,0.0,0.0,0.0,0.0,0.0,0.0,0.0,0.0,0.0,0.0,0.0,0.0,0.0,0.0,0.0,0.0,0.0,0.0,0.0,0.0,0.0,0.0,0.0,0.0,0.0,0.0,0.0,0.0,0.0,0.0,0.0,0.0,0.0,0.0,0.0,0.0,0.0,0.0,0.0,0.0,0.0,0.0,0.0,0.0,0.0,0.0,0.0,0.0,0.0,0.0,0.0,0.0,0.0,0.0,0.0,0.0,0.0,0.0,0.0,0.0,0.0,0.0,0.0,0.0,0.0,0.0,0.0,0.0,0.0,0.0,0.0,0.0,0.0,0.0,0.0,0.0,0.0,0.0,0.0,0.0,0.0,0.0,0.0,0.0,0.0,0.0,0.0,0.0,0.0,0.0,0.0,0.0,0.0,0.0,0.0,0.0,0.0,0.0,0.0,0.0,0.0,0.0,0.0,0.0,0.0,0.0,0.0,0.0,0.0,0.0,0.0,0.0,0.0,0.0,0.0,0.0,0.0,0.0,0.0,0.0,0.0,0.0,0.0,0.0,0.0,0.0,0.0,0.0,0.0,0.0,0.0,0.0,0.0,0.0,0.0,0.0,0.0,0.0,0.0,0.0,0.0,0.0,0.0,0.0,0.0,0.0,0.0,0.0,0.0,0.0,0.0,0.0,0.0,0.0,0.0,0.0,0.0,0.0,0.0,0.0,0.0,0.0,0.0,0.0,0.0,0.0,0.0,0.0,0.0,0.0,0.0,0.0,0.0,0.0,0.0,0.0,0.0,0.0,0.0,0.0,0.0,0.0,0.0,0.0,0.0,0.0,0.0,0.0,0.0,0.0,0.0,0.0,0.0,0.0,0.0,0.0,0.0,0.0,0.0,0.0,0.0,0.0,0.0,0.0,0.0,0.0,0.0,0.0,0.0,0.0,0.0,0.0,0.0,0.0,0.0,0.0,0.0,0.0,0.0,0.0,0.0,0.0,0.0,0.0,0.0,0.0,0.0,0.0,0.0,0.0,0.0,0.0,0.0,0.0,0.0,0.0,0.0,0.0,0.0,0.0,0.0,0.0,0.0,0.0,0.0,0.0,0.0,0.0,0.0,0.0,0.0,0.0,0.0,0.0,0.0,0.0,0.0,0.0,0.0,0.0,0.0,0.0,0.0,0.0,0.0,0.0,0.0,0.0,0.0,0.0,0.0,0.0,0.0,0.0,0.0,0.0,0.0,0.0,0.0,0.0,0.0,0.0,0.0,0.0,0.0,0.0,0.0,0.0,0.0,0.0,0.0,0.0,0.0,0.0,0.0,0.0,0.0,0.0,0.0,0.0,0.0,0.0,0.0,0.0,0.0,0.0,0.0,0.0,0.0,0.0,0.0,0.0,0.0,0.0,0.0,0.0,0.0,0.0,0.0,0.0,0.0,0.0,0.0,0.0,0.0,0.0,0.0,0.0,0.0,0.0,0.0,0.0,0.0,0.0,0.0,0.0,0.0,0.0,0.0,0.0,0.0,0.0,0.0,0.0,0.0,0.0,0.0,0.0,0.0,0.0,0.0,0.0,0.0,0.0,0.0,0.0,0.0,0.0,0.0,0.0,0.0,0.0,0.0,0.0,0.0,0.0,0.0,0.0,0.0,0.0,0.0,0.0,0.0,0.0,0.0,0.0,0.0,0.0,0.0,0.0,0.0,0.0,0.0,0.0,0.0,0.0,0.0,0.0,0.0,0.0,0.0,0.0,0.0,0.0,0.0,0.0,0.0,0.0,0.0,0.0,0.0,0.0,0.0,0.0,0.0,0.0,0.0,0.0,0.0,0.0,0.0,0.0,0.0,0.0,0.0,0.0,0.0,0.0,0.0,0.0,0.0,0.0,0.0,0.0,0.0,0.0,0.0,0.0,0.0,0.0,0.0,0.0,0.0,0.0,0.0,0.0,0.0,0.0,0.0,0.0,0.0,0.0,0.0,0.0,0.0,0.0,0.0,0.0,0.0,0.0,0.0,0.0,0.0,0.0,0.0,0.0,0.0,0.0,0.0,0.0,0.0,0.0,0.0,0.0,0.0,0.0,0.0,0.0,0.0,0.0,0.0,0.0,0.0,0.0,0.0,0.0,0.0,0.0,0.0,0.0,0.0,0.0,0.0,0.0,0.0,0.0,0.0,0.0,0.0,0.0,0.0,0.0,0.0,0.0,0.0,0.0,0.0,0.0,0.0,0.0,0.0,0.0,0.0,0.0,0.0,0.0,0.0,0.0,0.0,0.0,0.0,0.0,0.0,0.0,0.0,0.0,0.0,0.0,0.0,0.0,0.0,0.0,0.0,0.0,0.0,0.0,0.0,0.0,0.0,0.0,0.0,0.0,0.0,0.0,0.0,0.0,0.0,0.0,0.0,0.0,0.0,0.0,0.0,0.0,0.0,0.0,0.0,0.0,0.0,0.0,0.0,0.0,0.0,0.0,0.0,0.0,0.0,0.0,0.0,0.0,0.0,0.0,0.0,0.0,0.0,0.0,0.0,0.0,0.0,0.0,0.0,0.0,0.0,0.0,0.0,0.0,0.0,0.0,0.0,0.0,0.0,0.0,0.0,0.0,0.0,0.0,0.0,0.0,0.0,0.0,0.0,0.0,0.0,0.0,0.0,0.0,0.0,0.0,0.0,0.0,0.0,0.0,0.0,0.0,0.0,0.0,0.0,0.0,0.0,0.0,0.0,0.0,0.0,0.0,0.0,0.0,0.0,0.0,0.0,0.0,0.0,0.0,0.0,0.0,0.0,0.0,0.0,0.0,0.0,0.0,0.0,0.0,0.0,0.0,0.0,0.0,0.0,0.0,0.0,0.0,0.0,0.0,0.0,0.0,0.0,0.0,0.0,0.0,0.0,0.0,0.0,0.0,0.0,0.0,0.0,0.0,0.0,0.0,0.0,0.0,0.0,0.0,0.0,0.0,0.0,0.0,0.0,0.0,0.0,0.0,0.0,0.0,0.0,0.0,0.0,0.0,0.0,0.0,0.0,0.0,0.0,0.0,0.0,0.0,0.0,0.0,0.0,0.0,0.0,0.0,0.0,0.0,0.0,0.0,0.0,0.0,0.0,0.0,0.0,0.0,0.0,0.0,0.0,0.0,0.0,0.0,0.0,0.0,0.0,0.0,0.0,0.0,0.0,0.0,0.0,0.0,0.0,0.0,0.0,0.0,0.0,0.0,0.0,0.0,0.0,0.0,0.0,0.0,0.0,0.0,0.0,0.0,0.0,0.0,0.0,0.0,0.0,0.0,0.0,0.0,0.0,0.0,0.0,0.0,0.0,0.0,0.0,0.0,0.0,0.0,0.0,0.0,0.0,0.0,0.0,0.0,0.0,0.0,0.0,0.0,0.0,0.0,0.0,0.0,0.0,0.0,0.0,0.0,0.0,0.0,0.0,0.0,0.0,0.0,0.0,0.0,0.0,0.0,0.0,0.0,0.0,0.0,0.0,0.0,0.0,0.0,0.0,0.0,0.0,0.0,0.0,0.0,0.0,0.0,0.0,0.0,0.0,0.0,0.0,0.0,0.0,0.0,0.0,0.0,0.0,0.0,0.0,0.0,0.0,0.0,0.0,0.0,0.0,0.0,0.0,0.0,0.0,0.0,0.0,0.0,0.0,0.0,0.0,0.0,0.0,0.0,0.0,0.0,0.0,0.0,0.0,0.0,0.0,0.0,0.0,0.0,0.0,0.0,0.0,0.0,0.0,0.0,0.0,0.0,0.0,0.0,0.0,0.0,0.0,0.0,0.0,0.0,0.0,0.0,0.0,0.0,0.0,0.0,0.0,0.0,0.0,0.0,0.0,0.0,0.0,0.0,0.0,0.0,0.0,0.0,0.0,0.0,0.0,0.0,0.0,0.0,0.0,0.0,0.0,0.0,0.0,0.0,0.0,0.0,0.0,0.0,0.0,0.0,0.0,0.0,0.0,0.0,0.0,0.0,0.0,0.0,0.0,0.0,0.0,0.0,0.0,0.0,0.0,0.0,0.0,0.0,0.0,0.0,0.0,0.0,0.0,0.0,0.0,0.0,0.0,0.0,0.0,0.0,0.0,0.0,0.0,0.0,0.0,0.0,0.0,0.0,0.0,0.0,0.0,0.0,0.0,0.0,0.0,0.0,0.0,0.0,0.0,0.0,0.0,0.0,0.0,0.0,0.0,0.0,0.0,0.0,0.0,0.0,0.0,0.0,0.0,0.0,0.0,0.0,0.0,0.0,0.0,0.0,0.0,0.0,0.0,0.0,0.0,0.0,0.0,0.0,0.0,0.0,0.0,0.0,0.0,0.0,0.0,0.0,0.0,0.0,0.0,0.0,0.0,0.0,0.0,0.0,0.0,0.0,0.0,0.0,0.0,0.0,0.0,0.0,0.0,0.0,0.0,0.0,0.0,0.0,0.0,0.0,0.0,0.0,0.0,0.0,0.0,0.0,0.0,0.0,0.0,0.0,0.0,0.0,0.0,0.0,0.0,0.0,0.0,0.0,0.0,0.0,0.0,0.0,0.0,0.0,0.0,0.0,0.0,0.0,0.0,0.0,0.0,-2.9322,0.0,0.0,0.0,0.0,0.0,0.0,0.0,0.0,0.0,0.0,0.0,0.0,0.0,0.0,0.0,0.0,0.0,0.0,0.0,0.0,0.0,0.0,0.0,0.0,0.0,0.0,0.0,0.0,0.0,0.0,0.0,0.0,0.0,0.0,0.0,0.0,0.0,0.0,0.0,0.0,0.0,0.0,0.0,0.0,0.0,0.0,0.0,0.0,0.0,0.0,0.0,0.0,0.0,0.0,0.0,0.0,0.0,0.0,0.0,0.0,0.0,0.0,0.0,0.0,0.0,0.0,0.0,0.0,0.0,0.0,0.0,0.0,0.0,0.0,0.0,0.0,0.0,0.0,0.0,0.0,0.0,0.0,0.0,0.0,0.0,0.0,0.0,0.0,0.0,0.0,0.0,0.0,0.0,0.0,0.0,0.0,0.0,0.0,0.0,0.0,0.0,0.0,0.0,0.0,0.0,0.0,0.0,0.0,0.0,0.0,0.0,0.0,0.0,0.0,0.0,0.0,-2.9737,0.0,0.0,0.0,0.0,0.0,0.0,0.0,0.0,0.0,0.0,0.0,0.0,0.0,0.0,0.0,0.0,0.0,0.0,0.0,0.0,0.0,0.0,0.0,0.0,0.0,0.0,0.0,0.0,0.0,0.0,0.0,0.0,0.0,0.0,0.0,0.0,0.0,0.0,0.0,0.0,0.0,0.0,0.0,0.0,0.0,0.0,0.0,0.0,0.0,0.0,0.0,0.0,0.0,0.0,0.0,0.0,0.0,0.0,0.0,0.0,0.0,0.0,0.0,0.0,0.0,0.0,0.0,0.0,0.0,0.0,0.0,0.0,0.0,0.0,0.0,0.0,0.0,0.0,0.0,0.0,0.0,0.0,0.0,0.0,0.0,0.0,0.0,0.0,0.0,0.0,0.0,0.0,0.0,0.0,0.0,0.0,0.0,0.0,0.0,0.0,0.0,0.0,0.0,0.0,0.0,0.0,0.0,0.0,0.0,-3.3916,-3.3993,-3.4254,-3.4467,-3.4568,-3.5133,-3.6065,-3.6941,0.0,0.0,0.0,0.0,0.0,0.0,0.0,0.0,0.0,0.0,0.0,0.0,0.0,0.0,0.0,0.0,0.0,0.0,0.0,0.0,0.0,0.0,0.0,0.0,0.0,0.0,0.0,0.0,0.0,0.0,0.0,0.0,0.0,0.0,0.0,0.0,0.0,0.0,0.0,-2.8963,-2.8914,-2.8223,-2.6889,-2.4968,0.0,0.0,0.0,0.0,0.0,0.0,0.0,0.0,0.0,0.0,0.0,0.0,0.0,0.0,0.0,0.0,0.0,0.0,0.0,0.0,0.0,0.0,0.0,0.0,0.0,0.0,0.0,0.0,0.0,0.0,0.0,0.0,0.0,0.0,0.0,0.0,0.0,0.0,0.0,0.0,0.0,0.0,0.0,-2.6328,-2.7745,0.0,0.0,0.0,0.0,0.0,0.0,0.0,0.0,0.0,0.0,0.0,0.0,0.0,0.0,-3.1873,-3.428,-3.5472,-3.5526,-3.9186,-4.0884,-4.075,-4.1834,-4.2295,-4.2179,-3.9634,0.0,-3.6206,-3.6419,0.0,0.0,0.0,0.0,0.0,0.0,0.0,0.0,0.0,0.0,0.0,0.0,0.0,0.0,0.0,0.0,0.0,0.0,0.0,0.0,0.0,0.0,0.0,0.0,0.0,0.0,0.0,0.0,0.0,0.0,0.0,0.0,0.0,0.0,0.0,0.0,-2.931,-3.0973,-3.2064,-3.1916,-3.1739,-3.1473,-3.0291,-2.7585,-2.3856,-2.342,0.0,0.0,0.0,0.0,0.0,0.0,0.0,0.0,0.0,0.0,0.0,0.0,0.0,0.0,0.0,0.0,0.0,0.0,0.0,0.0,0.0,0.0,0.0,0.0,0.0,0.0,0.0,0.0,0.0,0.0,0.0,0.0,0.0,0.0,0.0,0.0,0.0,0.0,0.0,-2.6055,-2.7611,-2.8837,-2.9377,-2.8882,0.0,0.0,0.0,0.0,0.0,0.0,0.0,0.0,0.0,-3.3309,-3.4322,-3.5387,-3.6425,-3.8853,-3.9871,-3.9548,-4.1423,-4.2301,-4.2353,-4.2885,-4.3407,-4.3836,-4.244,-4.128,-4.0244,-3.8601,-3.8053,-3.8032,0.0,0.0,0.0,0.0,0.0,-3.1374,0.0,0.0,0.0,0.0,0.0,0.0,0.0,0.0,0.0,0.0,0.0,0.0,0.0,0.0,0.0,-2.8363,0.0,0.0,0.0,0.0,0.0,0.0,0.0,0.0,0.0,0.0,0.0,-2.9275,-3.1278,-3.3022,-3.4489,-3.4169,-3.4069,-3.4218,-3.3761,-3.0863,-2.622,-2.5967,-2.446,0.0,0.0,0.0,0.0,0.0,0.0,0.0,0.0,0.0,0.0,0.0,0.0,0.0,0.0,0.0,0.0,0.0,0.0,0.0,0.0,0.0,0.0,0.0,0.0,0.0,0.0,0.0,0.0,0.0,0.0,0.0,0.0,0.0,0.0,0.0,0.0,0.0,0.0,-2.7558,-2.9394,-3.071,-3.1632,-3.1606,0.0,0.0,0.0,0.0,0.0,0.0,-3.3912,-3.3798,-3.4371,-3.5783,-3.7558,-3.9179,-4.058,-4.2574,-4.3375,-4.3011,-4.345,-4.3719,-4.3855,-4.4091,-4.4485,-4.4952,-4.492,-4.4601,-4.3882,-4.1029,-3.9989,-4.0108,-3.9198,-3.7563,-3.5618,-3.4729,-3.4879,-3.5499,0.0,0.0,0.0,0.0,0.0,0.0,0.0,0.0,0.0,0.0,0.0,0.0,0.0,0.0,-3.0058,-3.0327,-3.0309,-2.9666,0.0,0.0,0.0,0.0,0.0,0.0,0.0,0.0,0.0,-3.2822,-3.3482,-3.4256,-3.5169,-3.4525,-3.4066,-3.3726,-3.3072,-3.1342,-2.9023,-2.9262,-2.7546,-2.4603,0.0,0.0,0.0,0.0,0.0,0.0,0.0,0.0,0.0,0.0,0.0,0.0,0.0,0.0,0.0,0.0,0.0,0.0,0.0,0.0,0.0,0.0,0.0,0.0,0.0,0.0,0.0,0.0,0.0,0.0,0.0,0.0,0.0,0.0,0.0,0.0,0.0,0.0,0.0,-3.4051,-3.7051,0.0,0.0,0.0,0.0,-3.3375,-3.3225,-3.4943,-3.8826,-3.8301,-3.9278,-4.2321,-4.252,-4.2814,-4.3296,-4.4176,-4.4722,-4.4894,-4.6616,-4.7339,-4.7183,-4.8136,-4.8203,-4.7516,-4.7432,-4.6493,-4.4875,-4.39,-4.3624,-4.3417,-4.0031,-3.9254,-3.9668,-3.6233,-3.732,-4.0495,0.0,0.0,0.0,0.0,0.0,0.0,0.0,0.0,0.0,0.0,0.0,0.0,0.0,-2.9978,-3.1759,-3.1918,-3.2644,-3.2488,-3.0986,0.0,0.0,0.0,0.0,0.0,0.0,0.0,-3.0561,-3.2543,-3.4003,-3.5117,-3.5898,-3.5883,-3.6137,-3.6728,-3.6283,-3.524,-3.3623,-3.171,-2.9726,-2.786,-2.7008,-2.5099,0.0,0.0,0.0,0.0,0.0,0.0,0.0,0.0,0.0,0.0,0.0,0.0,0.0,0.0,0.0,0.0,0.0,0.0,0.0,0.0,0.0,0.0,0.0,0.0,0.0,0.0,0.0,0.0,0.0,0.0,0.0,0.0,0.0,0.0,0.0,0.0,0.0,-3.567,-3.7109,0.0,0.0,-3.7413,-3.7594,-3.7232,-3.9081,-4.0673,-4.1596,-4.1868,-4.2737,-4.4385,-4.3932,-4.4342,-4.581,-4.559,-4.5657,-4.5968,-4.6609,-4.6888,-4.682,-4.7185,-4.72,-4.6921,-4.6802,-4.64,-4.5743,-4.5416,-4.466,-4.3553,-4.2519,-4.221,-4.2258,-4.1176,-4.1549,-4.2567,0.0,0.0,0.0,0.0,0.0,0.0,0.0,0.0,0.0,0.0,0.0,-2.8199,-2.8836,-3.1545,-3.3321,-3.3379,-3.4083,-3.3725,-3.17,0.0,0.0,0.0,0.0,0.0,0.0,-2.9895,-3.1753,-3.36,-3.472,-3.574,-3.6643,-3.6596,-3.6987,-3.7663,-3.7535,-3.7122,-3.6513,-3.414,-3.2273,-3.0709,-2.9632,-2.7284,-2.4374,0.0,0.0,0.0,0.0,0.0,0.0,0.0,0.0,0.0,0.0,0.0,0.0,0.0,0.0,0.0,0.0,0.0,0.0,0.0,0.0,0.0,0.0,0.0,0.0,0.0,0.0,0.0,0.0,0.0,0.0,0.0,0.0,0.0,0.0,0.0,-3.497,-3.7386,-3.8448,-3.9297,-4.0093,-4.0184,-4.051,-4.127,-4.3299,-4.4258,-4.3733,-4.4222,-4.4787,-4.5391,-4.5077,-4.5654,-4.7169,-4.6875,-4.6892,-4.7311,-4.7311,-4.7311,-4.7311,-4.7311,-4.6865,-4.6108,-4.6786,-4.6406,-4.5413,-4.6138,-4.5606,-4.434,-4.4561,-4.466,-4.4744,-4.4967,-4.5084,-4.5112,0.0,0.0,0.0,0.0,0.0,0.0,0.0,0.0,0.0,0.0,-2.919,-3.0879,-3.2237,-3.3769,-3.4691,-3.4691,-3.4448,-3.3078,-3.0239,-2.8582,0.0,0.0,0.0,0.0,-3.0849,-3.0932,-3.2725,-3.6303,-3.5747,-3.6121,-3.7307,-3.6734,-3.6442,-3.6367,-3.6367,-3.674,-3.7307,-3.6627,-3.5137,-3.3032,-3.0969,-2.8825,-2.6701,0.0,0.0,0.0,0.0,0.0,0.0,0.0,0.0,0.0,0.0,0.0,0.0,0.0,0.0,0.0,0.0,0.0,0.0,0.0,0.0,0.0,0.0,0.0,0.0,0.0,0.0,0.0,0.0,0.0,0.0,0.0,0.0,0.0,-2.9927,-3.4726,-3.8572,-3.9441,-4.1578,-4.3262,-4.4059,-4.4132,-4.4458,-4.5236,-4.5327,-4.5345,-4.5345,-4.5291,-4.5334,-4.5567,-4.6136,-4.6734,-4.7313,-4.7997,-4.8495,-4.8946,-4.8946,-4.8946,-4.8983,-4.8946,-4.763,-4.5467,-4.7661,-4.6797,-4.4036,-4.6232,-4.6691,-4.5975,-4.592,-4.6379,-4.7076,-4.7076,-4.7572,-4.8214,0.0,0.0,0.0,0.0,0.0,0.0,0.0,0.0,0.0,0.0,-2.7137,-2.9123,-2.992,-3.2833,-3.4643,-3.4546,-3.4399,-3.329,-3.0884,0.0,0.0,0.0,0.0,0.0,-3.2432,-3.3485,-3.4799,-3.636,-3.6632,-3.6988,-3.7323,-3.7757,-3.7919,-3.7825,-3.7936,-3.8033,-3.8051,-3.7339,-3.6691,-3.6011,-3.4426,-3.248,-3.0441,0.0,0.0,0.0,0.0,0.0,0.0,0.0,0.0,0.0,0.0,0.0,0.0,0.0,0.0,0.0,0.0,0.0,0.0,0.0,0.0,0.0,0.0,0.0,0.0,0.0,0.0,0.0,0.0,0.0,0.0,0.0,0.0,-3.623,-3.5074,-3.7778,-4.06,-4.2574,-4.3878,-4.4729,-4.4947,-4.4965,-4.5055,-4.5273,-4.5852,-4.6178,-4.6178,-4.5055,-4.4499,-4.4672,-4.4853,-4.5187,-4.5595,-4.7554,-4.8919,-4.9782,-4.9782,-5.0098,-5.0692,-5.006,-4.941,-4.8763,-4.8623,-4.8088,-4.7296,-4.7776,-4.7847,-4.7517,-4.6361,-4.6049,-4.6232,-4.6232,-4.6379,-4.6305,0.0,0.0,0.0,0.0,0.0,0.0,0.0,0.0,0.0,0.0,-2.7098,-2.9058,-3.0293,-3.2875,-3.4497,-3.4399,-3.43,-3.3031,-3.0198,0.0,0.0,0.0,0.0,-3.1239,-3.394,-3.4799,-3.5724,-3.6799,-3.7112,-3.763,-3.823,-3.8707,-3.9064,-3.9266,-3.9381,-3.934,-3.9233,-3.8521,-3.823,-3.81,-3.6659,-3.4797,-3.2805,-3.2109,-3.04,-2.8324,-2.7908,-2.7137,-2.6152,-2.4804,0.0,0.0,0.0,0.0,0.0,0.0,0.0,0.0,0.0,0.0,0.0,0.0,0.0,0.0,0.0,0.0,0.0,0.0,0.0,0.0,0.0,0.0,0.0,0.0,-3.6414,-3.9841,-3.9913,-4.1397,-4.3027,-4.444,-4.5019,-4.5436,-4.578,-4.5798,-4.5943,-4.6287,-4.6739,-4.7156,-4.75,-4.6676,-4.6163,-4.599,-4.6667,-4.693,-4.6567,-4.8605,-4.9806,-5.0098,-5.0469,-5.0729,-5.0859,-5.0711,-5.0043,0.0,-4.9103,-4.855,-4.7609,-4.8106,-4.8306,0.0,0.0,0.0,0.0,0.0,-4.6911,-4.6709,0.0,0.0,0.0,0.0,0.0,0.0,0.0,0.0,0.0,0.0,0.0,-2.976,-3.1938,-3.3453,-3.43,-3.43,-3.4005,-3.2369,0.0,0.0,0.0,-3.0752,-3.1688,-3.3129,-3.5266,-3.538,-3.6076,-3.7436,-3.7517,-3.8213,-3.9476,-3.9557,-3.9914,-4.0496,-4.0496,-4.0496,-4.0448,-3.9849,-3.9557,-3.9379,-3.8068,-3.6319,-3.4392,-3.3712,-3.2255,-3.0445,-2.954,-2.8794,-2.8163,-2.7466,0.0,0.0,0.0,0.0,0.0,0.0,0.0,0.0,0.0,0.0,0.0,0.0,0.0,0.0,0.0,0.0,0.0,0.0,0.0,0.0,0.0,0.0,0.0,0.0,-3.8992,-4.194,-4.4059,-4.5055,-4.5544,-4.5454,-4.5526,-4.5852,-4.6576,-4.6721,-4.7083,-4.779,-4.7935,-4.8279,-4.9046,0.0,0.0,0.0,0.0,-4.9878,-4.8779,-5.0361,-5.0861,-5.0359,-5.112,-5.1138,-5.0526,-5.1194,-5.0248,-4.8081,-4.9344,-4.8606,-4.6616,-4.7793,-4.8306,-4.8306,-4.8306,-4.8306,-4.8269,-4.7994,-4.8086,0.0,0.0,0.0,0.0,0.0,0.0,0.0,0.0,0.0,0.0,-2.6351,-2.7557,-2.9121,-3.1751,-3.3405,-3.425,-3.4151,-3.2999,-3.1209,0.0,0.0,-2.7624,-3.0752,-3.2063,-3.3758,-3.6044,-3.6627,-3.7323,-3.8197,-3.8764,-3.9201,-3.9493,-4.0043,-4.0367,-4.0496,-4.0496,-4.0496,-4.048,-4.0351,-3.9978,-3.946,-3.9169,-3.81,-3.6627,-3.5946,-3.5239,-3.4567,-3.3841,-3.3335,-3.2653,-3.0497,-2.9688,-2.9626,-3.0158,0.0,0.0,0.0,0.0,0.0,0.0,0.0,0.0,0.0,0.0,0.0,0.0,0.0,0.0,0.0,0.0,0.0,0.0,0.0,0.0,-3.9247,-4.2864,-4.5606,-4.5979,-4.6739,-4.7011,-4.6359,-4.6848,-4.7301,-4.7464,-4.8061,-4.8514,-4.8677,-4.9275,-4.976,-5.0077,-4.8302,0.0,-4.7573,-4.7959,-4.8085,-4.7924,-5.0192,-5.1547,-5.1954,0.0,0.0,-5.2973,-5.2436,-5.1565,-5.0472,-5.0084,-4.9565,-4.8973,-4.8491,-4.8306,-4.8306,-4.8306,-4.8306,-4.8067,-4.6122,-4.6636,-4.8031,0.0,0.0,0.0,0.0,0.0,0.0,0.0,0.0,0.0,0.0,-2.5529,-2.7266,-3.0085,-3.07,-3.1332,-3.2353,-3.0741,0.0,0.0,-2.9299,-3.01,-3.2417,-3.3856,-3.5134,-3.6287,-3.6967,-3.7623,-3.8294,-3.9136,-3.9671,-3.9909,-4.0707,-4.1225,-4.1565,-4.1565,-4.1565,-4.1533,-4.1177,-4.0626,-3.9962,-3.9622,-3.8829,-3.7776,-3.708,-3.6625,-3.6348,-3.5782,-3.523,-3.4526,-3.3118,-3.2348,-3.2012,-3.2208,-3.1339,-2.9758,0.0,0.0,0.0,0.0,0.0,0.0,0.0,0.0,0.0,0.0,0.0,0.0,0.0,0.0,-3.379,0.0,0.0,-3.9532,-4.1959,-4.4388,-4.6422,-4.762,-4.8448,-4.8605,-4.7808,-4.8079,-4.846,-4.8858,-4.9257,-4.9492,-4.9492,-4.9985,-5.0496,-5.0964,-5.008,-4.9432,-4.9215,-5.0139,-5.0304,-4.9559,-5.1584,-5.2512,-5.2397,-5.2862,-5.3026,-5.3006,-5.3026,-5.2786,-5.2266,-5.1026,-5.0414,-5.0207,-4.8859,-4.8306,-4.8306,-4.8306,-4.8306,-4.8159,-4.6948,-4.7278,-4.8141,0.0,0.0,0.0,0.0,0.0,0.0,0.0,0.0,0.0,0.0,-2.3832,-2.5535,-2.8288,-2.802,-2.8178,0.0,0.0,0.0,0.0,-3.1306,-3.2547,-3.4036,-3.5509,-3.6303,-3.6303,-3.7112,-3.7753,-3.8237,-3.9079,-3.9709,-4.0172,-4.1116,-4.1873,-4.2423,-4.2423,-4.2423,-4.2375,-4.1662,-4.095,-4.0254,-3.9703,-3.9039,-3.8286,-3.7744,-3.7422,-3.727,-3.6648,-3.6055,-3.5505,-3.5021,-3.445,-3.3886,-3.355,-3.3591,-3.2976,-2.8958,-2.9279,0.0,0.0,0.0,0.0,0.0,0.0,0.0,0.0,0.0,-3.4089,-3.4542,-3.581,-3.7468,-3.9422,-4.002,-4.1343,-4.4685,-4.5845,-4.6985,-4.9047,-4.9778,-4.9908,-4.942,-4.9238,-4.9383,-5.0035,-5.0234,-5.0369,-5.0395,-5.0635,-5.1128,-5.1871,-5.2283,-5.2207,-5.1523,-5.2993,-5.3181,-5.1881,-5.3273,-5.3643,-5.2878,-5.369,-5.3706,-5.2998,-5.3576,-5.3706,-5.3385,-5.2075,-5.1279,-5.0793,-4.9703,-4.8985,-4.8545,-4.8545,-4.8453,-4.8324,-4.8489,-4.8655,-4.8802,0.0,0.0,0.0,0.0,0.0,0.0,0.0,0.0,0.0,0.0,0.0,0.0,0.0,0.0,0.0,0.0,0.0,0.0,-2.8725,-3.0679,-3.2515,-3.4036,-3.5509,-3.6303,-3.6303,-3.7598,-3.8327,-3.8391,-3.912,-3.9525,-3.9622,-4.095,-4.1614,-4.1695,-4.1695,-4.1695,-4.1646,-4.0917,-4.0221,-3.959,-3.9509,-3.8998,-3.8221,-3.8254,-3.8278,-3.8125,-3.7302,-3.6941,-3.6667,-3.5428,-3.4908,-3.4784,-3.421,-3.405,-3.3452,-3.0461,0.0,-2.9826,-2.4859,-2.2965,-2.3202,-2.6703,-2.9423,-3.1654,0.0,0.0,-4.1292,-3.995,-4.2535,-4.5156,-4.5664,-4.6964,-4.8115,-4.8507,-4.9294,-4.9895,-5.0119,-5.0141,-5.0325,-5.0959,-5.0397,-4.9981,-5.0071,-5.0741,-5.123,-5.1431,-5.2025,-5.2594,-5.3088,-5.3171,-5.3274,-5.3378,-5.3643,-5.372,-5.3534,-5.4346,-5.4674,-5.446,-5.5225,-5.5491,-5.538,-5.4741,-5.4022,-5.33,-5.3088,-5.2165,-5.0894,-5.2142,-5.1389,-4.9444,-4.9444,-4.8967,-4.8398,-4.9169,-4.9903,-5.0527,0.0,0.0,0.0,0.0,0.0,0.0,0.0,0.0,0.0,0.0,0.0,0.0,0.0,0.0,0.0,0.0,0.0,0.0,-2.7875,-3.0435,-3.2579,-3.4036,-3.5088,-3.5849,-3.6303,-3.7274,-3.7915,-3.8278,-3.912,-3.946,-3.9344,-4.048,-4.095,-4.095,-4.095,-4.095,-4.0917,-4.0626,-4.0092,-3.9476,-3.9476,-3.9039,-3.8351,-3.8391,-3.8391,-3.8197,-3.6573,-3.5695,0.0,0.0,-3.3885,-3.3319,-3.439,-3.3533,-3.1982,-3.1332,-3.0441,0.0,-2.7656,-2.7905,0.0,0.0,-3.4979,-3.8,-3.9286,-4.2308,-4.4713,-4.4204,-4.5809,-4.7443,-4.7993,-4.7605,-4.7755,0.0,-4.9349,-4.944,-5.0842,-5.1328,-5.1611,-5.1955,-5.047,-4.9427,-4.9495,-5.1118,-5.1686,-5.0451,-5.2059,-5.3217,-5.34,-5.3521,-5.3639,-5.3754,-5.3774,-5.4017,-5.45,-5.4814,-5.5161,-5.5503,-5.5729,-5.5828,-5.5785,-5.5417,-5.4809,-5.3999,-5.3928,-5.3261,-5.2252,-5.2931,-5.2619,-5.1646,-5.1169,-5.1059,-5.1041,-4.9976,-4.9793,-5.016,0.0,0.0,0.0,0.0,0.0,0.0,0.0,0.0,0.0,0.0,0.0,0.0,0.0,0.0,0.0,0.0,0.0,0.0,0.0,-3.0222,-3.2627,-3.4036,-3.4797,-3.5428,-3.5979,-3.6675,-3.7235,-3.7657,-3.848,-3.8804,-3.8689,-3.9725,-4.0205,-4.0205,-4.0205,-4.0205,-4.0205,-3.9994,-3.9638,-3.9169,-3.8974,-3.857,-3.81,-3.81,-3.7614,-3.6686,-3.5311,-3.4503,0.0,0.0,-3.2337,-3.2192,-3.2902,-3.2191,-3.1048,-3.1092,-2.9874,-2.8816,-3.0233,0.0,0.0,-3.5778,-3.8941,-4.1825,-4.321,-4.4929,-4.6316,-4.6687,-4.7347,-4.8143,-4.8896,-4.7929,0.0,-5.0326,-4.9919,-4.9877,-5.1693,-5.2281,-5.229,-5.1547,-4.9963,-4.8454,-4.7256,-4.9956,-5.1493,-5.0677,-5.2342,-5.3459,-5.3499,-5.3658,-5.3736,-5.3736,-5.3958,-5.4387,-5.4981,-5.5347,-5.5844,-5.6353,-5.6448,-5.6473,-5.6386,-5.6183,-5.5503,-5.4491,-5.4902,-5.462,-5.3885,-5.4106,-5.394,-5.3463,-5.2656,-5.2546,-5.2656,-5.0894,-5.038,-5.0674,0.0,0.0,0.0,0.0,0.0,0.0,0.0,0.0,0.0,0.0,0.0,0.0,0.0,0.0,0.0,0.0,0.0,0.0,0.0,-2.9932,-3.2627,-3.4036,-3.4797,-3.5185,-3.5218,-3.5946,-3.6351,-3.6367,-3.7064,-3.7388,-3.742,-3.8845,-3.9509,-3.9509,-3.9509,-3.9509,-3.946,-3.8764,-3.844,-3.8375,-3.7663,-3.7371,-3.7355,-3.7355,-3.557,-3.3143,-3.3705,0.0,0.0,0.0,-3.0567,-3.2208,-2.8957,-2.9793,0.0,-2.9486,-2.8336,0.0,0.0,0.0,-3.1808,-3.6937,-3.9125,-4.0713,-4.32,-4.5006,-4.6275,-4.6781,-4.7345,-4.7953,-4.8768,-4.9579,-5.0471,-5.142,-5.2186,-5.2696,-5.2769,-5.268,-5.1665,-4.9223,-4.8974,-4.7211,0.0,-4.6515,-5.0442,-5.3164,-5.3258,-5.3295,-5.3499,-5.3499,-5.3499,-5.3499,-5.4396,-5.488,-5.4899,-5.6264,-5.6945,-5.6982,-5.7647,-5.7923,-5.7905,-5.7134,-5.5904,-5.4491,-5.6051,-5.6271,-5.5574,-5.6381,-5.5776,-5.4289,-5.3482,-5.2711,-5.2013,-5.194,-5.2417,-5.3096,0.0,0.0,0.0,0.0,0.0,0.0,0.0,0.0,0.0,0.0,0.0,0.0,0.0,0.0,0.0,0.0,0.0,0.0,0.0,-2.7682,-3.017,-3.2611,-3.3841,-3.4683,-3.5169,-3.5428,-3.5801,-3.6303,-3.6546,-3.6869,-3.7323,-3.7825,-3.8311,-3.8764,-3.8764,-3.8764,-3.8748,-3.8505,-3.8116,-3.7695,-3.7938,-3.7744,-3.7226,-3.6254,-3.5007,-3.329,0.0,0.0,0.0,0.0,0.0,-2.7933,-2.8327,-2.7729,-2.676,-2.615,-2.8012,-3.0497,0.0,0.0,-3.6496,-3.8723,-4.1443,-4.3751,-4.4594,-4.5775,-4.666,-4.6863,-4.5612,-4.4765,-4.5562,-4.5192,-4.5524,-4.7966,-4.8129,-4.9058,-5.2199,-4.9821,-4.8654,-5.1048,-4.8551,0.0,0.0,0.0,0.0,-4.8698,-5.1574,-5.3658,-5.4275,-5.4312,-5.4552,-5.5087,-5.5424,-5.5812,-5.6348,-5.6817,-5.7389,-5.7943,-5.7534,-5.7298,-5.7189,-5.6363,-5.5996,-5.6033,-5.6565,-5.6657,-5.6455,-5.7262,-5.7281,-5.6712,-5.5904,-5.5097,-5.4308,-5.3775,-5.3427,-5.3206,0.0,0.0,0.0,0.0,0.0,0.0,0.0,0.0,0.0,0.0,0.0,0.0,0.0,0.0,0.0,0.0,0.0,0.0,0.0,0.0,-2.7801,-3.0489,-3.1338,-3.2079,-3.2773,-3.3598,-3.4244,-3.4729,-3.6044,-3.6886,-3.7323,-3.7582,-3.7954,-3.8391,-3.8391,-3.8391,-3.8391,-3.8391,-3.7987,-3.7274,-3.6724,-3.606,-3.5234,-3.355,-3.1932,0.0,0.0,0.0,0.0,0.0,0.0,-2.5905,-2.6063,-2.5373,-2.4879,-2.6596,-2.9263,-3.1978,-3.3553,-3.6484,-3.9463,-4.1131,-4.3297,-4.5035,-4.5035,-4.5716,-4.6406,-4.6548,-4.539,-4.4277,-4.4111,-4.3338,-4.3449,-4.5809,-4.6048,-4.7357,-5.1546,-4.9749,-4.8805,-5.102,-4.8694,0.0,0.0,0.0,0.0,-4.7627,-5.0654,-5.2813,-5.3289,-5.3603,-5.4396,-5.5815,-5.6129,-5.6559,-5.71,-5.7371,-5.7604,-5.7906,-5.7258,-5.6599,-5.5941,-5.5684,-5.5244,-5.4748,-5.618,-5.6326,-5.5647,-5.7317,-5.7997,-5.7923,-5.7116,-5.6308,-5.5482,-5.4693,-5.3904,-5.3206,0.0,0.0,0.0,0.0,0.0,0.0,0.0,0.0,0.0,0.0,0.0,0.0,0.0,0.0,0.0,0.0,0.0,0.0,0.0,0.0,0.0,-2.7838,-2.7625,-2.7753,-2.8394,-3.0567,-3.1676,-3.1676,-3.5166,-3.6847,-3.695,-3.7679,-3.8035,-3.8068,-3.8068,-3.8068,-3.8068,-3.8068,-3.763,-3.6707,-3.4052,-3.253,-3.1607,-2.9415,0.0,0.0,0.0,0.0,0.0,0.0,0.0,0.0,0.0,-2.339,-2.6129,-3.0501,-3.1924,-3.3023,-3.7498,-3.9362,-4.0776,-4.3859,-4.4587,-4.4587,-4.4587,-4.4944,-4.5407,-4.5758,-4.6147,-4.5827,0.0,0.0,-4.386,-4.4838,-4.5827,-4.7516,-5.0695,-5.189,-5.1552,0.0,0.0,0.0,0.0,0.0,0.0,-4.9954,0.0,-5.1127,-5.1201,-5.1919,-5.3447,-5.5859,-5.6669,-5.7081,-5.7131,-5.7836,-5.7755,-5.689,-5.6775,-5.5923,-5.4436,-5.5188,-5.3885,-5.1261,-5.5133,-5.55,-5.3628,-5.673,-5.7997,-5.7923,-5.7171,-5.6345,-5.55,-5.473,-5.394,-5.3206,0.0,0.0,0.0,0.0,0.0,0.0,0.0,0.0,0.0,0.0,0.0,0.0,0.0,0.0,0.0,0.0,0.0,0.0,0.0,0.0,0.0,0.0,0.0,0.0,0.0,0.0,0.0,0.0,-3.0068,-3.1096,-3.1785,-3.2466,-3.3031,-3.3631,-3.3631,-3.3631,-3.3631,-3.3631,-3.2919,-3.1753,0.0,-3.0762,-2.9507,0.0,0.0,0.0,0.0,0.0,0.0,0.0,0.0,0.0,0.0,-2.9226,-3.0463,-3.1458,-3.4303,-3.7374,-3.837,-4.0963,-4.3551,-4.4384,-4.4587,-4.4587,-4.4587,-4.4944,-4.4716,-4.2649,-4.0936,-3.8984,0.0,0.0,0.0,-4.0383,-4.2086,0.0,-4.8127,-4.7902,0.0,0.0,0.0,-4.9911,-5.1161,-5.2412,0.0,0.0,-5.2367,-5.4038,-5.5232,-5.5489,-5.6169,-5.74,-5.7638,-5.773,-5.7776,-5.7951,-5.7051,-5.5067,-5.5629,-5.5372,-5.4418,-5.4601,-5.4583,-5.4454,-5.6088,-5.6455,-5.5996,-5.7409,-5.7997,-5.7978,-5.7776,-5.684,-5.5574,-5.5354,-5.4418,-5.3206,0.0,0.0,0.0,0.0,0.0,0.0,0.0,0.0,0.0,0.0,0.0,0.0,0.0,0.0,0.0,0.0,0.0,0.0,0.0,0.0,0.0,0.0,0.0,0.0,0.0,0.0,0.0,0.0,0.0,0.0,-3.0599,-3.0757,-3.1269,-3.1996,-3.1672,-3.172,-3.2012,-3.2012,0.0,0.0,0.0,0.0,0.0,0.0,0.0,0.0,0.0,0.0,0.0,0.0,0.0,-2.7446,-3.1508,-3.2907,-3.3513,-3.5736,0.0,-4.0172,-4.098,-4.2909,-4.4587,-4.4587,-4.4587,-4.4231,-4.2912,-4.2927,-4.2442,-3.9693,-3.8192,0.0,0.0,0.0,0.0,0.0,0.0,0.0,-4.6654,-4.7157,-4.77,0.0,-4.9764,0.0,-5.35,-5.4142,-5.4124,0.0,-5.372,-5.4271,-5.5188,-5.5556,-5.6436,-5.7941,-5.7997,-5.7877,-5.7573,-5.7573,-5.6544,-5.4504,-5.4902,-5.484,-5.4399,-5.4399,-5.4252,-5.4106,0.0,-5.6216,-5.5372,-5.7226,-5.7997,-5.7997,-5.7997,-5.7005,-5.5592,-5.5592,-5.4583,-5.3206,0.0,0.0,0.0,0.0,0.0,0.0,0.0,0.0,0.0,0.0,0.0,0.0,0.0,0.0,0.0,0.0,0.0,0.0,0.0,0.0,0.0,0.0,0.0,0.0,0.0,0.0,0.0,0.0,0.0,0.0,0.0,0.0,0.0,0.0,0.0,0.0,0.0,0.0,0.0,0.0,0.0,0.0,0.0,0.0,0.0,0.0,0.0,0.0,0.0,0.0,-2.8641,-2.8215,-3.4085,-3.566,-3.6262,-4.0679,-4.183,-4.2033,-4.3792,-4.4473,-4.4626,-4.457,-4.4626,-4.3948,-4.1323,-4.0574,-3.9743,-3.7149,0.0,-3.5757,-3.3599,0.0,-3.539,-3.7785,0.0,-4.194,-4.5128,-4.7597,-4.9058,-4.8937,-4.9973,-5.1628,-5.4161,-5.4216,-5.484,-5.6675,-5.4968,-5.3849,-5.3849,-5.4509,-5.5831,-5.7923,-5.7997,-5.762,-5.6809,-5.6901,-5.6091,-5.4441,-5.4497,-5.4491,-5.4418,-5.462,-5.3959,-5.2803,0.0,0.0,-5.4051,-5.684,-5.7997,-5.7997,-5.7886,-5.6914,-5.5574,-5.5464,-5.4491,-5.3206,0.0,0.0,0.0,0.0,0.0,0.0,0.0,0.0,0.0,0.0,0.0,0.0,0.0,0.0,0.0,0.0,0.0,0.0,0.0,0.0,0.0,0.0,0.0,0.0,0.0,0.0,0.0,0.0,0.0,0.0,0.0,0.0,0.0,0.0,0.0,0.0,0.0,0.0,0.0,0.0,0.0,0.0,0.0,0.0,0.0,0.0,0.0,0.0,0.0,0.0,-3.0647,-3.2681,-3.7157,-3.963,-4.0882,-4.0578,-4.2151,-4.3809,-4.2929,-4.3715,-4.4737,-4.4626,-4.4682,-4.4601,-4.3965,-4.1648,0.0,0.0,0.0,-3.1551,-3.1941,-3.3424,0.0,-3.8647,0.0,0.0,0.0,0.0,-4.7974,0.0,0.0,0.0,0.0,0.0,0.0,0.0,0.0,0.0,-5.7171,-5.7299,-5.7574,-5.7997,-5.7997,-5.7299,-5.5857,-5.6518,-5.571,-5.3487,-5.4748,-5.5042,-5.4454,-5.5794,-5.6235,-5.6051,0.0,0.0,-5.7207,-5.7776,-5.7997,-5.7923,-5.7281,-5.6436,-5.55,-5.484,-5.4014,-5.3206,0.0,0.0,0.0,0.0,0.0,0.0,0.0,0.0,0.0,0.0,-2.0371,0.0,0.0,0.0,0.0,0.0,0.0,0.0,0.0,0.0,0.0,0.0,0.0,0.0,0.0,0.0,0.0,0.0,0.0,0.0,0.0,0.0,0.0,0.0,0.0,0.0,0.0,0.0,0.0,0.0,0.0,0.0,0.0,0.0,0.0,0.0,0.0,0.0,0.0,0.0,-2.9311,-3.2444,-3.7496,-4.0629,-4.2121,-4.0544,-4.2289,-4.4342,-4.2799,-4.3603,-4.4886,-4.4737,-4.4737,-4.396,-4.068,0.0,0.0,0.0,0.0,-2.8389,-2.9305,0.0,0.0,0.0,0.0,0.0,0.0,0.0,0.0,0.0,0.0,0.0,0.0,0.0,0.0,0.0,0.0,0.0,-5.796,-5.7997,-5.7997,-5.7997,-5.7997,-5.7226,-5.5611,-5.5978,-5.5372,-5.383,-5.4601,-5.5207,-5.5684,-5.6455,-5.7042,-5.7446,-5.7831,0.0,-5.6216,-5.7483,-5.7262,-5.6161,-5.662,-5.6308,-5.5482,-5.4693,-5.3904,-5.3206,0.0,0.0,0.0,0.0,0.0,0.0,0.0,-2.0425,-2.0587,-2.1272,-2.1146,-2.0872,-2.0538,-1.9914,0.0,0.0,0.0,0.0,0.0,0.0,0.0,0.0,0.0,0.0,0.0,0.0,0.0,0.0,0.0,0.0,0.0,0.0,0.0,0.0,0.0,0.0,0.0,0.0,0.0,0.0,0.0,0.0,0.0,0.0,0.0,0.0,0.0,0.0,0.0,0.0,-2.7755,-3.0806,-3.5926,-3.9139,-4.0883,-4.0273,-4.1985,-4.3892,-4.3178,-4.4002,-4.4978,-4.4831,-4.4831,-4.3331,-3.7648,-3.5711,0.0,0.0,-2.6274,-2.6149,-2.7628,0.0,0.0,0.0,0.0,0.0,0.0,0.0,0.0,0.0,0.0,0.0,0.0,0.0,0.0,0.0,0.0,0.0,-5.7923,-5.7997,-5.7997,-5.7997,-5.7831,-5.7042,-5.5592,-5.5427,-5.4932,-5.4161,-5.4491,-5.5317,-5.6547,-5.6914,-5.7409,-5.7997,-5.7997,0.0,0.0,-5.7005,-5.6473,-5.4308,-5.5904,-5.6051,-5.5244,-5.4436,-5.3739,-5.3206,0.0,0.0,0.0,0.0,0.0,0.0,0.0,-2.0294,-2.0629,-2.1785,-2.138,-2.1206,-2.1757,-2.122,0.0,0.0,0.0,0.0,0.0,0.0,0.0,0.0,0.0,0.0,0.0,0.0,0.0,0.0,0.0,0.0,0.0,0.0,0.0,0.0,0.0,0.0,0.0,0.0,0.0,0.0,0.0,0.0,0.0,0.0,0.0,0.0,0.0,0.0,0.0,0.0,0.0,-2.9697,-3.2144,-3.4438,-3.6738,-3.936,0.0,0.0,-4.4045,-4.4875,-4.514,-4.4886,-4.4886,-4.39,-3.963,0.0,0.0,-2.9234,-2.6072,-2.5131,-2.8825,-3.0134,0.0,0.0,0.0,0.0,0.0,0.0,0.0,0.0,0.0,0.0,0.0,0.0,0.0,0.0,0.0,0.0,0.0,-5.7997,-5.7997,-5.7997,-5.7299,-5.6492,-5.5592,-5.4876,-5.4106,-5.3335,-5.4785,-5.5556,-5.5757,-5.7207,-5.7923,-5.7997,0.0,0.0,0.0,-5.7005,-5.6143,-5.3482,-5.5078,-5.5207,-5.4418,-5.361,-5.328,-5.3206,0.0,0.0,0.0,0.0,0.0,0.0,0.0,-2.0567,-2.1111,-2.1873,-2.2091,-2.212,-2.2004,-2.2106,0.0,0.0,0.0,0.0,0.0,0.0,0.0,0.0,0.0,0.0,0.0,0.0,0.0,0.0,0.0,0.0,0.0,0.0,0.0,0.0,0.0,0.0,0.0,0.0,0.0,0.0,0.0,0.0,0.0,0.0,0.0,0.0,0.0,0.0,0.0,0.0,0.0,0.0,-2.8164,-2.9178,0.0,0.0,-3.7963,-4.0965,-4.1409,-4.3031,-4.4471,-4.4329,-4.4221,-4.2756,-3.7149,0.0,0.0,-2.7214,-2.4927,-2.4426,-2.6495,-2.7475,-2.9404,0.0,0.0,0.0,0.0,0.0,0.0,0.0,0.0,0.0,0.0,0.0,0.0,0.0,0.0,0.0,0.0,-5.774,-5.7776,-5.7299,-5.6969,-5.618,-5.4876,-5.4564,-5.4473,-5.4638,-5.528,-5.6106,-5.706,-5.7703,-5.7997,-5.7997,0.0,0.0,0.0,-5.5886,-5.4803,-5.1279,-5.3867,-5.4675,-5.4308,-5.35,-5.3206,-5.3206,0.0,0.0,0.0,0.0,0.0,0.0,-2.0406,-2.1038,-2.1653,-2.2193,-2.2627,-2.2728,-2.2323,-2.2627,-2.2526,-2.1656,0.0,0.0,0.0,0.0,0.0,0.0,0.0,0.0,0.0,0.0,0.0,0.0,0.0,0.0,0.0,0.0,0.0,0.0,0.0,0.0,0.0,0.0,0.0,0.0,0.0,0.0,0.0,0.0,0.0,0.0,0.0,0.0,0.0,0.0,0.0,0.0,0.0,0.0,0.0,0.0,-3.5589,-3.9286,-3.958,-4.1833,-4.4027,-4.3594,-4.2825,-4.0624,0.0,0.0,0.0,-2.5319,-2.4015,-2.3973,-2.4504,-2.5373,-2.7238,-3.1137,0.0,-3.5393,0.0,0.0,0.0,0.0,0.0,0.0,0.0,0.0,0.0,0.0,0.0,0.0,0.0,-5.6969,-5.7024,-5.6455,-5.6216,-5.5556,-5.4418,-5.4399,-5.4675,-5.5244,-5.5721,-5.629,-5.695,-5.7666,-5.774,-5.7317,0.0,0.0,0.0,-5.5354,-5.4106,-5.0233,-5.3243,-5.4252,-5.3977,-5.3427,-5.3206,-5.3206,0.0,0.0,0.0,0.0,0.0,0.0,0.0,-2.1668,-2.2222,-2.2801,-2.2888,-2.2888,-2.2888,-2.2888,-2.2888,-2.2873,0.0,0.0,0.0,0.0,0.0,0.0,0.0,0.0,0.0,0.0,0.0,-2.4815,-2.5185,0.0,0.0,0.0,0.0,0.0,0.0,0.0,0.0,0.0,0.0,0.0,0.0,0.0,0.0,0.0,0.0,0.0,0.0,0.0,0.0,0.0,0.0,0.0,0.0,0.0,0.0,0.0,-3.4108,-3.6754,-3.9538,-4.2142,-4.3837,-4.279,-4.0534,-3.7514,0.0,0.0,-2.7975,-2.4278,-2.3656,-2.3783,-2.3718,-2.4908,-2.6956,-3.0202,-3.222,0.0,0.0,0.0,0.0,0.0,0.0,0.0,0.0,0.0,0.0,0.0,0.0,0.0,0.0,-5.5611,-5.5611,-5.5592,-5.484,-5.4418,-5.4399,-5.4399,-5.4399,-5.4436,-5.6033,-5.5959,-5.4528,-5.6914,-5.7116,0.0,0.0,0.0,0.0,-5.5812,-5.4436,-5.1041,-5.3445,-5.3922,-5.3225,-5.3206,-5.3206,-5.3206,0.0,0.0,0.0,0.0,0.0,0.0,0.0,-2.1737,-2.2062,-2.2265,-2.2627,-2.2888,-2.2888,-2.2888,-2.2888,-2.2888,0.0,0.0,0.0,0.0,0.0,0.0,0.0,0.0,0.0,0.0,-2.471,-2.5162,-2.5029,-2.5185,0.0,0.0,0.0,0.0,0.0,0.0,0.0,0.0,0.0,0.0,0.0,0.0,0.0,0.0,0.0,0.0,0.0,0.0,0.0,0.0,0.0,0.0,0.0,0.0,0.0,-2.6623,0.0,0.0,-3.3206,-3.5181,-3.6744,-3.6105,-3.5238,-3.364,-3.0206,0.0,-2.7396,-2.4325,-2.3747,-2.3783,-2.37,-2.4495,-2.6365,-3.0158,-3.1833,0.0,0.0,0.0,0.0,0.0,0.0,0.0,0.0,0.0,0.0,0.0,0.0,0.0,0.0,0.0,-5.4785,-5.4785,-5.4528,-5.4142,-5.3592,-5.4124,-5.4675,-5.5225,-5.629,-5.6253,-5.528,-5.7152,0.0,0.0,0.0,0.0,0.0,-5.462,-5.3445,-5.0986,-5.2858,-5.3427,-5.3206,-5.3206,-5.3206,-5.3206,0.0,0.0,0.0,0.0,0.0,0.0,0.0,-2.206,-2.2352,-2.2352,-2.2656,-2.2888,-2.2888,-2.2888,-2.2888,-2.2888,0.0,0.0,0.0,0.0,0.0,0.0,0.0,0.0,0.0,-2.4822,-2.4846,-2.524,-2.5084,-2.5162,-2.5502,-2.5524,-2.5486,0.0,0.0,0.0,0.0,0.0,0.0,0.0,0.0,0.0,-2.3244,0.0,0.0,0.0,0.0,0.0,0.0,0.0,0.0,0.0,0.0,0.0,0.0,0.0,-2.5887,-2.8169,0.0,-3.1564,-3.3083,-3.2662,-3.1649,0.0,0.0,0.0,-2.5875,-2.4147,-2.4743,-2.5185,-2.3956,-2.529,-2.7115,-2.8801,-3.1936,0.0,0.0,0.0,0.0,0.0,0.0,0.0,0.0,0.0,0.0,0.0,0.0,0.0,0.0,0.0,-5.3959,-5.3959,-5.3959,-5.372,-5.3206,-5.4014,-5.4638,-5.5152,-5.5959,-5.565,-5.4428,-5.6255,0.0,0.0,0.0,0.0,0.0,-5.4197,-5.3335,-5.1811,-5.2821,-5.3206,-5.3206,-5.3206,-5.3206,-5.3206,0.0,0.0,0.0,0.0,0.0,0.0,0.0,0.0,0.0,0.0,-2.2888,-2.2888,-2.2888,-2.2888,-2.2888,0.0,0.0,0.0,0.0,0.0,0.0,0.0,0.0,0.0,0.0,-2.5005,-2.5029,-2.5091,-2.524,-2.5294,-2.5294,-2.5355,-2.5355,-2.5294,-2.5294,-2.5355,-2.5432,-2.5562,-2.5146,-2.4353,-2.3896,-2.3227,0.0,0.0,0.0,0.0,0.0,0.0,0.0,0.0,0.0,0.0,0.0,0.0,0.0,0.0,0.0,0.0,0.0,-3.036,0.0,0.0,0.0,0.0,0.0,0.0,0.0,-2.4093,-2.6423,-2.7525,-2.4667,-2.7202,-2.9053,-2.688,-3.2566,0.0,0.0,0.0,0.0,0.0,0.0,0.0,0.0,0.0,0.0,0.0,0.0,0.0,0.0,0.0,-5.3206,-5.3206,-5.3206,-5.3206,-5.3206,-5.4014,-5.4344,-5.4234,-5.5152,-5.4436,-5.2345,-5.4609,0.0,0.0,0.0,0.0,0.0,-5.4344,-5.3867,-5.3206,-5.3206,-5.3206,-5.3206,-5.3206,-5.3206,-5.3206,0.0,0.0,0.0,0.0,0.0,0.0,0.0,0.0,0.0,0.0,0.0,-2.2888,-2.2888,-2.2888,0.0,0.0,0.0,0.0,0.0,0.0,0.0,0.0,0.0,0.0,0.0,-2.5005,-2.5029,-2.5091,-2.524,-2.5294,-2.5294,-2.5355,-2.5301,-2.5146,-2.5317,-2.5432,-2.5562,-2.5578,-2.4834,-2.3603,-2.3666,-2.2981,0.0,0.0,0.0,0.0,-2.3833,-2.4503,0.0,0.0,0.0,0.0,0.0,0.0,0.0,0.0,-2.2743,-2.3066,-2.3519,0.0,-2.5889,-2.4821,-2.4506,-2.4504,0.0,0.0,-2.4472,-2.688,0.0,0.0,-2.7384,-3.0042,-3.1743,0.0,0.0,0.0,0.0,0.0,0.0,0.0,0.0,0.0,0.0,0.0,0.0,0.0,0.0,0.0,0.0,0.0,-5.3206,-5.3206,-5.3206,-5.3206,-5.3206,-5.4014,-5.3775,-5.2582,-5.462,-5.4063,-5.1279,-5.4246,0.0,0.0,0.0,0.0,-5.4344,-5.3739,-5.339,-5.3206,-5.3206,-5.3206,-5.3206,-5.3206,-5.3206,-5.3206,0.0,0.0,0.0,0.0,0.0,0.0,0.0,0.0,0.0,0.0,0.0,0.0,0.0,0.0,0.0,0.0,0.0,0.0,0.0,0.0,0.0,0.0,0.0,0.0,-2.5005,-2.465,-2.4673,-2.5068,-2.4844,-2.4898,-2.5162,-2.5224,-2.5185,-2.5068,-2.5278,-2.5394,-2.5432,-2.5206,-2.445,-2.3466,-2.3375,0.0,0.0,0.0,0.0,0.0,-2.4069,-2.4726,0.0,-2.6485,-2.6383,-2.5632,0.0,0.0,0.0,0.0,-2.2773,-2.2683,-2.1784,-2.2588,-2.3844,-2.4461,-2.4032,-2.3884,-2.5569,0.0,0.0,0.0,0.0,0.0,0.0,0.0,0.0,0.0,0.0,0.0,0.0,0.0,0.0,0.0,0.0,0.0,0.0,0.0,0.0,0.0,0.0,0.0,0.0,0.0,-5.3206,-5.3206,-5.3206,-5.3206,-5.3206,-5.3628,-5.3225,-5.2013,-5.3702,-5.3243,-5.1079,-5.3433,0.0,0.0,0.0,0.0,-5.3794,-5.2986,-5.2876,-5.3206,-5.3206,-5.3206,-5.3206,-5.3206,-5.3206,-5.3206,0.0,0.0,0.0,0.0,0.0,0.0,0.0,0.0,0.0,0.0,0.0,0.0,0.0,0.0,0.0,0.0,0.0,0.0,0.0,0.0,0.0,0.0,0.0,-2.5005,-2.5005,-2.4286,-2.4207,-2.4847,-2.4205,-2.4157,-2.4689,-2.4862,-2.4909,-2.4847,-2.5057,-2.507,-2.4965,-2.4487,-2.3986,-2.3489,-2.3044,0.0,0.0,0.0,0.0,0.0,0.0,0.0,0.0,-2.6384,-2.6063,-2.5215,-2.4895,0.0,0.0,0.0,0.0,0.0,-2.127,-2.1936,-2.3697,-2.6525,-2.5332,-2.4325,-2.772,0.0,0.0,0.0,0.0,0.0,0.0,0.0,0.0,0.0,0.0,0.0,0.0,0.0,0.0,0.0,0.0,0.0,0.0,0.0,0.0,0.0,0.0,0.0,0.0,0.0,0.0,-5.3206,-5.3206,-5.3206,-5.3206,-5.3206,-5.2729,-5.183,-5.2766,-5.248,-5.1201,-5.2578,-5.2955,0.0,0.0,0.0,-5.317,-5.2454,-5.2582,-5.3206,-5.3206,-5.3206,-5.3206,-5.3206,-5.3206,-5.3206,0.0,0.0,0.0,0.0,0.0,0.0,0.0,0.0,0.0,0.0,0.0,0.0,0.0,0.0,0.0,0.0,0.0,0.0,0.0,0.0,0.0,0.0,-2.4926,-2.5005,-2.5005,-2.4286,-2.397,-2.4081,-2.3423,-2.3138,-2.3249,-2.3887,-2.4211,-2.4227,-2.4264,-2.4026,-2.3578,-2.3446,-2.3119,-2.2688,-2.2718,0.0,0.0,0.0,0.0,0.0,0.0,0.0,0.0,-2.5321,-2.4864,-2.3774,-2.391,0.0,0.0,0.0,0.0,0.0,-2.0433,-2.1325,-2.3286,-2.5742,-2.501,-2.4505,-2.7745,0.0,0.0,0.0,0.0,0.0,0.0,0.0,0.0,0.0,0.0,0.0,0.0,0.0,0.0,0.0,0.0,0.0,0.0,0.0,0.0,0.0,0.0,0.0,0.0,0.0,0.0,-5.3206,-5.3206,-5.3206,-5.3206,-5.3206,-5.2454,-5.1004,-5.2491,-5.2375,-5.09,-5.2485,-5.3164,0.0,0.0,-5.3096,-5.3206,-5.3078,-5.3096,-5.3206,-5.3206,-5.3206,-5.3206,-5.3206,-5.3206,-5.3206,0.0,0.0,0.0,0.0,0.0,0.0,0.0,0.0,0.0,0.0,0.0,0.0,0.0,0.0,0.0,0.0,0.0,0.0,0.0,0.0,0.0,-2.4686,-2.4445,-2.4508,-2.4886,-2.4116,-2.3809,-2.3923,-2.3117,-2.2807,-2.2932,-2.3249,-2.3613,-2.3998,-2.3639,-2.3347,-2.3119,-2.2923,-2.2735,-2.2604,0.0,0.0,0.0,0.0,0.0,0.0,0.0,0.0,0.0,0.0,-2.4868,-2.3815,-2.4069,0.0,0.0,0.0,0.0,0.0,-2.0308,-2.1227,-2.348,-2.7655,-2.6471,-2.5913,-3.2098,0.0,0.0,0.0,0.0,0.0,0.0,0.0,0.0,0.0,0.0,0.0,0.0,0.0,0.0,0.0,0.0,0.0,0.0,0.0,0.0,0.0,0.0,0.0,0.0,0.0,0.0,0.0,-5.3206,-5.3206,-5.3206,-5.3206,-5.2619,-5.1463,-5.2637,-5.2582,-5.1481,-5.2674,-5.3206,-5.3188,0.0,-5.2803,-5.3188,-5.2729,-5.2821,-5.3206,-5.3206,-5.3206,-5.3206,-5.3206,-5.3206,-5.3151,0.0,0.0,0.0,0.0,0.0,0.0,0.0,0.0,0.0,0.0,0.0,0.0,0.0,0.0,0.0,0.0,0.0,0.0,0.0,0.0,-2.4356,-2.4356,-2.3756,-2.3787,-2.4571,-2.3662,-2.3246,-2.3396,-2.2556,-2.2305,-2.2607,-2.2643,-2.2943,-2.3417,-2.2952,-2.2674,-2.2572,-2.2312,-2.2327,-2.2512,0.0,0.0,0.0,0.0,0.0,0.0,0.0,0.0,0.0,0.0,0.0,0.0,0.0,0.0,0.0,-2.2314,-2.1626,-2.0697,-2.028,-2.1123,-2.3378,-2.8604,0.0,-2.6823,-3.5769,0.0,0.0,0.0,0.0,0.0,0.0,0.0,0.0,0.0,0.0,0.0,0.0,0.0,0.0,0.0,0.0,0.0,0.0,0.0,0.0,0.0,0.0,0.0,0.0,0.0,0.0,0.0,-5.3206,-5.3206,-5.3206,-5.3206,-5.2894,-5.2289,-5.2913,-5.2894,-5.2307,-5.2931,-5.3206,-5.3188,-5.2546,-5.2637,-5.317,-5.2546,-5.2637,-5.3206,-5.3206,-5.3206,-5.3206,-5.3206,-5.3096,-5.2839,0.0,0.0,0.0,0.0,0.0,0.0,0.0,0.0,0.0,0.0,0.0,0.0,0.0,0.0,0.0,0.0,0.0,0.0,0.0,0.0,-2.3592,-2.3592,-2.2809,-2.2878,-2.3849,-2.265,-2.1957,-2.1871,-2.118,-2.1164,-2.1792,-2.1913,-2.1995,-2.2043,-2.1995,-2.1788,-2.1439,-2.1327,-2.1608,-2.2065,-2.2141,0.0,0.0,0.0,0.0,0.0,0.0,0.0,0.0,0.0,0.0,0.0,0.0,0.0,-2.2012,-2.1612,-2.0859,-2.0135,-2.0044,-2.0652,-2.2239,-2.6272,-2.5408,0.0,-3.5626,-3.1064,0.0,-3.7018,0.0,0.0,0.0,0.0,0.0,0.0,0.0,0.0,0.0,0.0,0.0,0.0,0.0,0.0,0.0,0.0,0.0,0.0,0.0,0.0,0.0,0.0,0.0,0.0,0.0,-5.3206,-5.3206,-5.3206,-5.3188,-5.3115,-5.3188,-5.3188,-5.3133,-5.3188,-5.3206,-5.3206,-5.3151,-5.317,-5.3206,-5.3151,-5.317,-5.3206,-5.3206,-5.3206,-5.3206,-5.3206,-5.2729,-5.2068,0.0,0.0,0.0,0.0,0.0,0.0,0.0,0.0,0.0,0.0,0.0,0.0,0.0,0.0,0.0,0.0,0.0,0.0,0.0,0.0,-2.3381,-2.3381,-2.2315,-2.191,-2.2284,-2.2243,-2.2066,-2.1768,-2.1075,-2.109,-2.1678,-2.1376,-2.1442,-2.1802,-2.1395,-2.1229,-2.1262,-2.1493,-2.179,-2.2136,-2.2364,-2.2453,0.0,0.0,0.0,0.0,0.0,0.0,0.0,0.0,-2.3809,-2.336,0.0,-2.265,-2.1563,-2.1396,-2.0388,-1.9452,-1.9882,-2.0559,-2.2557,-2.8441,-2.6693,0.0,0.0,-3.344,-3.1773,-4.042,0.0,0.0,0.0,0.0,0.0,0.0,0.0,0.0,0.0,0.0,0.0,0.0,0.0,0.0,0.0,0.0,0.0,0.0,0.0,0.0,0.0,0.0,0.0,0.0,0.0,-5.3206,-5.3206,-5.3206,-5.3206,-5.3206,-5.3206,-5.3206,-5.3206,-5.3206,-5.3206,-5.3206,-5.3206,-5.3206,-5.3206,-5.3206,-5.3206,-5.3206,-5.3206,-5.3206,-5.3151,-5.2637,-5.2252,-5.1848,0.0,0.0,0.0,0.0,0.0,0.0,0.0,0.0,0.0,0.0,0.0,0.0,0.0,0.0,0.0,0.0,0.0,0.0,0.0,-2.3522,-2.2964,-2.2694,-2.1657,-2.1089,-2.1089,-2.1538,-2.1646,-2.1403,-2.0964,-2.098,-2.1384,-2.0982,-2.1047,-2.1508,-2.1099,-2.1119,-2.1509,-2.179,-2.2136,-2.2429,-2.2694,-2.2556,0.0,0.0,0.0,0.0,0.0,0.0,0.0,0.0,-2.3833,0.0,0.0,0.0,0.0,-2.1267,-2.0115,-1.9057,-2.0058,-2.0718,-2.2642,-2.9078,0.0,0.0,-3.6262,-3.4979,-3.4039,-4.2141,0.0,0.0,0.0,0.0,0.0,0.0,0.0,0.0,0.0,0.0,0.0,0.0,0.0,0.0,0.0,0.0,0.0,0.0,0.0,0.0,0.0,0.0,0.0,0.0,0.0,0.0,-5.3206,-5.3206,-5.3206,-5.3206,-5.3206,-5.3206,-5.3206,-5.3206,-5.3206,-5.3206,-5.3206,-5.3206,-5.3206,-5.3206,-5.3206,-5.3206,-5.3206,-5.3059,-5.2747,-5.2197,-5.1665,-5.1077,0.0,0.0,0.0,0.0,0.0,0.0,0.0,0.0,0.0,0.0,0.0,0.0,0.0,0.0,0.0,0.0,0.0,0.0,-2.3795,-2.3052,-2.2222,-2.1414,-2.0763,-2.0388,-2.0388,-2.0475,-2.0494,-2.0494,-2.0644,-2.0693,-2.0693,-2.0761,-2.0844,-2.0926,-2.1151,-2.1556,-2.2124,-2.2198,-2.2517,-2.2919,-2.3119,-2.2541,-2.1652,0.0,0.0,0.0,0.0,0.0,0.0,0.0,-2.3494,-2.3517,0.0,0.0,0.0,-2.1205,-2.0039,-1.9053,-2.0695,-2.112,-2.2282,0.0,0.0,0.0,-3.7393,-3.5127,-3.3291,-4.152,0.0,0.0,0.0,0.0,0.0,0.0,0.0,0.0,0.0,0.0,0.0,0.0,0.0,0.0,0.0,0.0,0.0,0.0,0.0,0.0,0.0,0.0,0.0,0.0,0.0,0.0,-5.3206,-5.3206,-5.3206,-5.3206,-5.3206,-5.3206,-5.3206,-5.3206,-5.3206,-5.3206,-5.3206,-5.3206,-5.3206,-5.3206,-5.3206,-5.3206,-5.3206,-5.2711,-5.1995,-5.1977,-5.0967,-4.9591,0.0,0.0,0.0,0.0,0.0,0.0,0.0,0.0,0.0,0.0,0.0,0.0,0.0,0.0,0.0,0.0,0.0,0.0,-2.367,-2.2471,-2.1616,-2.1342,-2.0709,-2.0339,-2.0339,-2.0543,-2.0644,-2.0644,-2.0693,-2.0777,-2.0926,-2.107,-2.1197,-2.1419,-2.3464,-2.3543,-2.2327,-2.4856,-2.5195,-2.4035,-2.4028,-2.3887,-2.3569,0.0,0.0,0.0,0.0,0.0,0.0,0.0,0.0,0.0,0.0,0.0,0.0,-2.3789,-2.175,-1.9608,-2.3392,-2.2781,0.0,0.0,0.0,0.0,0.0,-3.5781,0.0,0.0,0.0,0.0,0.0,0.0,0.0,0.0,0.0,0.0,0.0,0.0,0.0,0.0,0.0,0.0,0.0,0.0,0.0,0.0,0.0,0.0,0.0,0.0,0.0,0.0,0.0,0.0,-5.3206,-5.3206,-5.3206,-5.3206,-5.3206,-5.3206,-5.3206,-5.3206,-5.3206,-5.3206,-5.3206,-5.3206,-5.3206,-5.3206,-5.3206,-5.3206,-5.3206,-5.2711,-5.1922,-5.1353,-5.049,-4.9499,0.0,0.0,0.0,0.0,0.0,0.0,0.0,0.0,0.0,0.0,0.0,0.0,0.0,0.0,0.0,0.0,0.0,0.0,0.0,0.0,-2.1326,-2.0972,-2.057,-2.0373,-2.0441,-2.0677,-2.0827,-2.099,-2.0941,-2.0974,-2.1055,-2.135,-2.1609,-2.1857,-2.3655,-2.3733,-2.271,-2.4871,-2.5156,-2.41,-2.4093,-2.3898,-2.3567,0.0,0.0,0.0,0.0,0.0,0.0,0.0,0.0,0.0,0.0,0.0,0.0,-2.4193,-2.2923,-2.1956,-2.5524,0.0,0.0,0.0,0.0,0.0,0.0,0.0,0.0,0.0,0.0,0.0,0.0,0.0,0.0,0.0,0.0,0.0,0.0,0.0,0.0,0.0,0.0,0.0,0.0,0.0,0.0,0.0,0.0,0.0,0.0,0.0,0.0,0.0,0.0,0.0,-5.2729,-5.3041,-5.3041,-5.2729,-5.2729,-5.2564,-5.227,-5.2913,-5.3206,-5.3206,-5.3206,-5.3206,-5.3206,-5.3206,-5.3206,-5.3188,-5.2858,-5.2234,-5.1426,-5.0618,-4.9793,-4.9003,0.0,0.0,0.0,0.0,0.0,0.0,0.0,0.0,0.0,0.0,0.0,0.0,0.0,0.0,0.0,0.0,0.0,0.0,0.0,0.0,-2.1163,-2.0404,-2.0388,-2.0509,-2.0726,-2.0877,-2.1087,-2.1417,-2.1259,-2.1179,-2.1131,-2.1569,-2.1916,-2.219,-2.2674,-2.2937,-2.3032,-2.3481,-2.3584,-2.3517,-2.3651,-2.3195,-2.254,-2.3312,0.0,0.0,0.0,0.0,0.0,0.0,0.0,0.0,-2.3494,-2.4427,-2.5147,-2.3418,-2.3871,-2.5368,-2.7363,0.0,0.0,0.0,0.0,0.0,0.0,0.0,0.0,0.0,0.0,0.0,0.0,0.0,0.0,0.0,0.0,0.0,0.0,0.0,0.0,0.0,0.0,0.0,0.0,0.0,0.0,0.0,0.0,0.0,0.0,0.0,0.0,0.0,0.0,0.0,-5.1885,-5.2619,-5.2619,0.0,-5.1885,-5.1499,-5.0857,-5.2325,-5.3023,-5.3096,-5.3096,-5.3133,-5.3206,-5.3206,-5.317,-5.3023,-5.2289,-5.1463,-5.06,-4.9848,-4.904,-4.8306,0.0,0.0,0.0,0.0,0.0,0.0,0.0,0.0,0.0,0.0,0.0,0.0,0.0,0.0,0.0,0.0,0.0,0.0,0.0,0.0,-2.0578,-2.032,-2.0441,-2.0628,-2.1006,-2.1261,-2.1401,-2.1493,-2.0815,-2.0726,-2.1105,-2.1437,-2.1686,-2.2,-2.4855,-2.469,-2.2528,-2.5804,-2.5797,-2.3643,-2.4288,-2.4454,-2.4262,-2.3835,-2.3522,0.0,0.0,0.0,0.0,0.0,0.0,0.0,-2.3494,-2.3302,-2.345,-2.5457,-2.5967,-2.6646,0.0,-2.9745,0.0,0.0,0.0,0.0,0.0,0.0,0.0,0.0,0.0,0.0,0.0,0.0,0.0,0.0,0.0,0.0,0.0,0.0,0.0,0.0,0.0,0.0,0.0,0.0,0.0,0.0,0.0,0.0,0.0,0.0,0.0,0.0,0.0,-5.1059,-5.1059,-5.1242,-5.1242,0.0,-5.1059,-5.0967,-5.082,-5.1169,-5.1665,-5.2252,-5.2252,-5.2619,-5.3206,-5.3206,-5.2839,-5.2234,-5.2068,-5.1114,-4.9829,-4.9646,-4.904,-4.8306,0.0,0.0,0.0,0.0,0.0,0.0,0.0,0.0,0.0,0.0,0.0,0.0,0.0,0.0,0.0,0.0,0.0,0.0,0.0,0.0,0.0,-2.0527,-2.0695,-2.0958,-2.1293,-2.1524,-2.1611,-2.1558,-2.1164,-2.1228,-2.1771,-2.1742,-2.206,-2.27,-2.4539,-2.4218,-2.2402,-2.4932,-2.4813,-2.3048,-2.3916,-2.428,-2.4249,-2.384,-2.3674,-2.3585,-2.3585,0.0,0.0,0.0,0.0,0.0,0.0,0.0,-2.4665,-2.5249,-2.5985,-2.7198,0.0,0.0,0.0,0.0,0.0,0.0,0.0,0.0,0.0,0.0,0.0,0.0,0.0,0.0,0.0,0.0,0.0,0.0,0.0,0.0,0.0,0.0,0.0,0.0,0.0,0.0,0.0,0.0,0.0,0.0,0.0,0.0,0.0,0.0,-5.0013,-5.0215,-5.0215,-5.0618,-5.0618,-5.0215,-5.0215,-5.0013,-4.9627,-5.0435,-5.1041,-5.1426,-5.1426,-5.1665,-5.205,-5.205,-5.1811,-5.1389,-5.0986,-5.0325,-4.9536,-4.9132,-4.8691,-4.8306,0.0,0.0,0.0,0.0,0.0,0.0,0.0,0.0,0.0,0.0,0.0,0.0,0.0,0.0,0.0,0.0,0.0,0.0,0.0,0.0,0.0,-2.086,-2.1055,-2.1277,-2.1554,-2.1678,-2.168,-2.1596,-2.1596,-2.2076,0.0,0.0,-2.3111,-2.395,-2.4075,-2.3419,-2.2267,-2.3151,-2.2986,-2.22,-2.3257,-2.3652,-2.3585,-2.3674,-2.3652,-2.3585,-2.3585,-2.3539,-2.3517,-2.3562,0.0,0.0,0.0,0.0,-2.6072,-2.4253,-2.5458,-2.7612,0.0,0.0,0.0,0.0,0.0,0.0,0.0,0.0,0.0,0.0,0.0,0.0,0.0,0.0,0.0,0.0,0.0,0.0,0.0,0.0,0.0,0.0,0.0,0.0,0.0,0.0,0.0,0.0,0.0,0.0,0.0,0.0,-4.8306,-4.8306,-4.9003,-4.937,-4.937,-5.0031,-5.0031,-4.937,-4.937,-4.8985,-4.8361,-4.9738,-5.0453,-5.0582,-5.0582,-5.0674,-5.0802,-5.0802,-5.0729,-5.0527,-4.9848,-4.9538,-4.9318,-4.862,-4.8344,-4.8344,0.0,0.0,0.0,0.0,0.0,0.0,0.0,0.0,0.0,0.0,0.0,0.0,0.0,0.0,0.0,0.0,0.0,0.0,-2.0842,0.0,0.0,-2.1055,-2.123,-2.1479,-2.1751,-2.1573,-2.1499,-2.1596,-2.1253,0.0,0.0,0.0,0.0,-2.5697,0.0,-2.4751,-2.1538,-2.3049,-2.2751,-2.1393,-2.2976,-2.3562,-2.3517,-2.3585,-2.3562,-2.3517,-2.3517,-2.3517,-2.3494,-2.3517,-2.3517,0.0,0.0,0.0,0.0,-2.3873,-2.6059,-2.8603,0.0,0.0,0.0,0.0,0.0,0.0,0.0,0.0,0.0,0.0,0.0,0.0,0.0,0.0,0.0,0.0,0.0,0.0,0.0,0.0,0.0,0.0,0.0,0.0,0.0,0.0,0.0,0.0,0.0,0.0,0.0,-4.8306,-4.8306,-4.8306,-4.8416,-4.8471,-4.8471,-4.8581,-4.8581,-4.8471,-4.8471,-4.8416,-4.8324,-4.8526,-4.904,-4.9738,-4.9738,-5.016,-5.0802,-5.0802,-5.038,-4.9738,-4.9627,-4.9228,-4.8622,-4.8512,-4.8457,-4.8457,0.0,0.0,0.0,0.0,0.0,0.0,0.0,0.0,0.0,0.0,0.0,0.0,0.0,0.0,0.0,-2.303,-2.2183,-2.1553,-2.1103,-2.1023,-2.1023,-2.1183,-2.1057,-2.1094,-2.1412,-2.1028,-2.0997,-2.1248,0.0,0.0,0.0,-2.8235,-2.7781,0.0,0.0,0.0,0.0,-2.4442,-2.401,-2.143,-2.3136,-2.3807,-2.3714,-2.3304,-2.3392,-2.3671,-2.3259,-2.3346,-2.3664,-2.3725,-2.3703,-2.3664,-2.3728,0.0,0.0,0.0,0.0,0.0,0.0,0.0,0.0,0.0,0.0,0.0,0.0,0.0,0.0,0.0,0.0,0.0,0.0,0.0,0.0,0.0,0.0,0.0,0.0,0.0,0.0,0.0,0.0,0.0,0.0,0.0,0.0,0.0,0.0,0.0,-4.8306,-4.8306,-4.8306,-4.8306,-4.8306,-4.8306,-4.8306,-4.8306,-4.8306,-4.8306,-4.8306,-4.8306,-4.8306,-4.8306,-4.8508,-4.8875,-4.8875,-4.9077,-4.9407,-4.9407,-4.9187,-4.8875,-4.8875,-4.8731,-4.8513,-4.8513,-4.8513,-4.8513,0.0,0.0,0.0,0.0,0.0,0.0,0.0,0.0,0.0,0.0,0.0,0.0,0.0,0.0,0.0,0.0,-2.1565,-2.1131,-2.1309,-2.123,-2.1134,-2.1126,-2.0854,-2.0755,-2.0925,-2.0646,-2.0673,0.0,0.0,0.0,-2.8586,-2.9926,-2.9697,0.0,-2.996,-2.8029,0.0,0.0,-2.5774,-2.2839,-2.4559,-2.4746,-2.3923,-2.3342,-2.3449,-2.3844,-2.3282,-2.3406,-2.3816,-2.3858,-2.3837,-2.3795,-2.3816,-2.3831,0.0,0.0,0.0,0.0,0.0,0.0,0.0,0.0,0.0,0.0,0.0,0.0,0.0,0.0,0.0,0.0,0.0,0.0,0.0,0.0,0.0,0.0,0.0,0.0,0.0,0.0,0.0,0.0,0.0,0.0,0.0,0.0,0.0,0.0,-4.8286,-4.8267,-4.8306,-4.8286,-4.8267,-4.8306,-4.8306,-4.8306,-4.8306,-4.8306,-4.8306,-4.8306,-4.8306,-4.8306,-4.8306,-4.8306,-4.8306,-4.8306,-4.8306,-4.8306,-4.8306,-4.8306,-4.8306,-4.8401,-4.8532,-4.8532,-4.8532,-4.8532,0.0,0.0,0.0,0.0,0.0,0.0,0.0,0.0,0.0,0.0,0.0,0.0,-2.3141,-2.2299,-2.1793,-2.1744,-2.0953,-2.0703,-2.1276,-2.1277,-2.1077,-2.0669,-2.0861,0.0,-2.0439,-2.0668,-2.0846,0.0,0.0,0.0,-2.6242,-2.935,-3.0802,-3.0803,-3.0866,-3.0414,-2.9619,0.0,0.0,0.0,-2.799,-2.6798,-2.3996,-2.3941,-2.3959,-2.3978,0.0,-2.386,-2.3896,-2.3816,-2.3795,-2.3816,-2.3858,-2.3896,-2.3896,0.0,0.0,0.0,0.0,0.0,0.0,0.0,0.0,0.0,0.0,0.0,0.0,0.0,0.0,0.0,0.0,0.0,0.0,0.0,0.0,0.0,0.0,0.0,0.0,0.0,0.0,0.0,0.0,0.0,0.0,0.0,0.0,0.0,-4.8187,-4.8286,-4.8286,-4.8187,-4.8286,-4.8306,-4.8306,-4.8306,-4.8306,-4.8306,-4.8306,-4.8306,-4.8306,-4.8306,-4.8306,-4.8306,-4.8306,-4.8306,-4.8306,-4.8306,-4.8306,-4.8306,-4.8306,-4.842,-4.8587,-4.8587,-4.8587,-4.8587,0.0,0.0,0.0,0.0,0.0,0.0,0.0,0.0,0.0,0.0,0.0,0.0,0.0,-2.1873,-2.1497,-2.0977,-2.1005,-2.1217,-2.1601,-2.1128,-2.0867,-2.0927,-2.0238,-2.0003,-2.0394,-2.025,-2.0689,0.0,0.0,-2.388,-2.6799,-2.8034,-2.9536,-3.1256,-3.4286,-3.2373,-2.7191,-3.1763,0.0,0.0,0.0,0.0,0.0,0.0,0.0,0.0,0.0,0.0,0.0,-2.4769,-2.4054,-2.4074,-2.4094,-2.4036,-2.3955,0.0,0.0,0.0,0.0,0.0,0.0,0.0,0.0,0.0,0.0,0.0,0.0,0.0,0.0,0.0,0.0,0.0,0.0,0.0,0.0,0.0,0.0,0.0,0.0,0.0,0.0,0.0,0.0,0.0,0.0,0.0,0.0,0.0,-4.8035,-4.7104,-4.7012,-4.8053,-4.8072,-4.8111,-4.8111,-4.8208,-4.8226,-4.8265,-4.8267,-4.8306,-4.8306,-4.8306,-4.8306,-4.8306,-4.8306,-4.8306,-4.8306,-4.8306,-4.8306,-4.8306,-4.8306,-4.8401,-4.855,-4.8587,-4.8569,-4.855,0.0,0.0,0.0,0.0,0.0,0.0,0.0,0.0,0.0,0.0,0.0,0.0,0.0,0.0,-2.0871,-2.0566,-2.119,-2.1691,-2.1811,-2.1154,-2.0904,-2.1258,-2.0237,-1.9929,-2.0587,-2.0076,-2.0611,0.0,0.0,0.0,0.0,-2.6765,-2.7991,-2.9826,-3.3532,-3.2849,0.0,0.0,0.0,-2.7608,0.0,0.0,-2.7415,0.0,0.0,0.0,0.0,0.0,0.0,0.0,0.0,0.0,0.0,0.0,0.0,0.0,0.0,0.0,0.0,0.0,0.0,0.0,0.0,0.0,0.0,0.0,0.0,0.0,0.0,0.0,0.0,0.0,0.0,0.0,0.0,0.0,0.0,0.0,0.0,0.0,0.0,0.0,0.0,0.0,0.0,0.0,0.0,0.0,-4.7933,-4.6989,-4.6898,-4.7955,-4.7992,-4.7992,-4.7992,-4.809,-4.8148,-4.8187,-4.8247,-4.8286,-4.8306,-4.8306,-4.8306,-4.8306,-4.8306,-4.8306,-4.8306,-4.8306,-4.8306,-4.8306,-4.8306,-4.8363,-4.8513,-4.8569,-4.855,-4.8494,0.0,0.0,0.0,0.0,0.0,0.0,0.0,0.0,0.0,-2.201,0.0,0.0,0.0,0.0,0.0,-2.0553,-2.1466,-2.1953,-2.1895,-2.14,-2.1259,-2.1596,-2.09,-2.0678,-2.1036,-2.0271,-2.0708,0.0,0.0,0.0,0.0,0.0,-2.638,-2.6583,-2.8276,-3.1661,-3.6177,0.0,-3.7572,-3.7211,0.0,-3.4482,-3.2501,0.0,0.0,0.0,-3.1587,-3.0741,0.0,0.0,0.0,0.0,0.0,0.0,0.0,0.0,0.0,0.0,0.0,0.0,0.0,0.0,0.0,0.0,0.0,0.0,0.0,0.0,0.0,0.0,0.0,0.0,0.0,0.0,0.0,0.0,0.0,0.0,0.0,0.0,0.0,0.0,0.0,0.0,0.0,0.0,0.0,-4.7933,-4.7902,-4.7947,-4.7992,-4.7992,-4.7992,-4.7992,-4.7992,-4.7992,-4.805,-4.8187,-4.8187,-4.8208,-4.8306,-4.8306,-4.8306,-4.8306,-4.8306,-4.8306,-4.8306,-4.8306,-4.8306,-4.8306,-4.8306,-4.8363,-4.8494,-4.8569,-4.855,-4.8494,0.0,0.0,0.0,0.0,0.0,0.0,0.0,0.0,-2.2889,0.0,0.0,0.0,-2.0577,-2.0445,-2.05,-2.0788,-2.158,-2.1944,-2.1713,-2.16,-2.167,-2.2007,-2.1295,-2.1185,-2.1904,-2.1771,-2.2231,-2.3343,0.0,0.0,0.0,0.0,0.0,0.0,-2.6305,-2.8037,-2.966,-3.4744,0.0,0.0,-3.6615,-3.5131,0.0,0.0,0.0,0.0,0.0,-3.3345,0.0,0.0,-3.1054,-2.9127,0.0,0.0,0.0,0.0,0.0,0.0,-2.3158,0.0,0.0,0.0,0.0,0.0,0.0,0.0,0.0,0.0,0.0,0.0,0.0,0.0,0.0,0.0,0.0,0.0,0.0,0.0,0.0,0.0,0.0,0.0,0.0,0.0,0.0,0.0,-4.6793,-4.6648,-4.7705,-4.7783,-4.7783,-4.7783,-4.7783,-4.7783,-4.7783,-4.7884,-4.7943,-4.7984,-4.8126,-4.8226,-4.8226,-4.8286,-4.8306,-4.8306,-4.8306,-4.8306,-4.8306,-4.8306,-4.8306,-4.8306,-4.8306,-4.8306,-4.8363,-4.8494,-4.8438,-4.8363,0.0,0.0,0.0,0.0,0.0,0.0,0.0,0.0,-2.2195,0.0,0.0,0.0,-2.0883,-2.1133,-2.1362,-2.1435,-2.2099,-2.2392,-2.2191,-2.206,-2.2228,-2.2758,-2.2096,-2.2088,-2.2901,-2.2311,-2.2592,-2.3816,0.0,0.0,0.0,0.0,0.0,0.0,0.0,0.0,0.0,0.0,0.0,0.0,-3.6081,0.0,0.0,-3.6473,-3.6306,0.0,0.0,0.0,-3.6159,-3.6297,-3.412,0.0,0.0,0.0,0.0,0.0,0.0,0.0,0.0,0.0,0.0,0.0,0.0,0.0,0.0,0.0,0.0,0.0,0.0,0.0,0.0,0.0,0.0,0.0,0.0,0.0,0.0,0.0,0.0,0.0,0.0,0.0,0.0,0.0,0.0,0.0,-4.6889,-4.6803,-4.7663,-4.7717,-4.7717,-4.7717,-4.7717,-4.7717,-4.7717,-4.7759,-4.7861,-4.7902,-4.8024,-4.8068,-4.813,-4.8208,-4.8247,-4.8247,-4.8267,-4.8306,-4.8306,-4.8306,-4.8306,-4.8306,-4.8306,-4.8344,-4.8401,-4.8513,-4.8476,-4.8401,0.0,0.0,0.0,0.0,0.0,0.0,0.0,0.0,0.0,0.0,-2.0588,-2.1072,-2.1044,-2.1754,-2.2175,-2.2118,-2.266,-2.2993,-2.2947,-2.27,-2.2901,-2.3602,-2.31,-2.3146,-2.3798,-2.2419,-2.246,-2.4016,0.0,0.0,0.0,0.0,0.0,0.0,0.0,0.0,0.0,0.0,0.0,-3.6509,-3.4881,-3.6803,0.0,0.0,-3.8127,0.0,-4.1218,-4.067,-3.8368,-4.0698,-3.7904,0.0,0.0,0.0,0.0,0.0,-2.4561,0.0,0.0,0.0,0.0,0.0,0.0,0.0,-2.4295,-2.9308,-3.3808,0.0,0.0,0.0,0.0,0.0,0.0,0.0,0.0,0.0,0.0,0.0,0.0,0.0,0.0,0.0,0.0,0.0,-4.7717,-4.7717,-4.7717,-4.7717,-4.7717,-4.7717,-4.7717,-4.7717,-4.7717,-4.7717,-4.7717,-4.7717,-4.7759,-4.7861,-4.7902,-4.7925,-4.7992,-4.8148,-4.8187,-4.8187,-4.8247,-4.8306,-4.8306,-4.8306,-4.8306,-4.8306,-4.8306,-4.8363,-4.8513,-4.8532,-4.855,-4.8494,-2.0139,0.0,0.0,0.0,0.0,0.0,0.0,0.0,-2.1572,-2.1885,-2.2082,-2.2156,-2.2046,-2.2181,-2.2078,-2.1592,-2.2491,-2.2888,-2.2465,-2.3181,-2.3671,-2.3816,-2.3689,-2.3692,-2.3976,-2.3666,-2.3706,-2.417,0.0,0.0,0.0,0.0,0.0,0.0,0.0,0.0,0.0,0.0,0.0,-3.0268,-3.382,0.0,-3.601,-3.9657,-3.9277,-3.7392,-4.2036,-4.2062,-3.9955,0.0,-3.9017,-3.6278,0.0,0.0,0.0,0.0,0.0,0.0,0.0,0.0,0.0,0.0,0.0,0.0,-2.5512,-2.6553,-2.7971,0.0,0.0,0.0,0.0,0.0,0.0,0.0,0.0,0.0,0.0,0.0,0.0,0.0,0.0,0.0,0.0,0.0,-4.7717,-4.7717,-4.7717,-4.7717,-4.7717,-4.7717,-4.7717,-4.7717,-4.7717,-4.7717,-4.7717,-4.7717,-4.7699,-4.7759,-4.7861,-4.7902,-4.7925,-4.801,-4.809,-4.8187,-4.8226,-4.8247,-4.8306,-4.8306,-4.8363,-4.8457,-4.8363,-4.8363,-4.8513,-4.8382,-4.8344,-4.8344,-2.1284,0.0,0.0,0.0,0.0,0.0,0.0,0.0,-2.1934,-2.1871,-2.2167,-2.2405,-2.2405,-2.2544,-2.2514,-2.2218,-2.3017,-2.3382,-2.3067,-2.3658,-2.3996,-2.3937,-2.3976,-2.4016,-2.4094,-2.4094,-2.4113,-2.419,0.0,0.0,0.0,0.0,0.0,0.0,0.0,0.0,0.0,0.0,-2.4598,-2.8334,-3.2089,0.0,-3.715,-4.0355,-4.0952,-4.0405,-4.3162,-4.3423,-4.2287,-4.1295,-3.9946,0.0,0.0,-3.2482,-2.9307,0.0,-2.4792,-2.3287,0.0,0.0,0.0,-2.3197,0.0,0.0,0.0,-2.7086,0.0,0.0,0.0,0.0,0.0,0.0,0.0,0.0,0.0,0.0,0.0,0.0,0.0,0.0,0.0,0.0,0.0,0.0,-4.7717,-4.7717,-4.7717,-4.7717,-4.7717,-4.7717,-4.7717,-4.7717,-4.7717,-4.7717,-4.7717,-4.7717,-4.7717,-4.7717,-4.7819,-4.7861,-4.7819,-4.8028,-4.809,-4.809,-4.8208,-4.8286,-4.8306,-4.8306,-4.8363,-4.8513,-4.8363,-4.8363,-4.8513,-4.8401,-4.8401,-4.8401,-2.2217,0.0,0.0,0.0,0.0,0.0,0.0,0.0,-2.2228,-2.1581,-2.2031,-2.2575,-2.314,-2.3102,-2.319,-2.3646,-2.4226,-2.4387,0.0,0.0,-2.4609,-2.4094,-2.4152,-2.4209,-2.4209,-2.4043,-2.3969,-2.3969,0.0,0.0,0.0,0.0,0.0,0.0,0.0,0.0,0.0,0.0,0.0,-2.892,0.0,-3.5287,-3.9085,-4.1101,-4.2268,-4.2956,-4.3961,-4.4401,-4.4177,-4.2071,0.0,-3.9294,-3.8562,-3.471,0.0,0.0,0.0,0.0,0.0,0.0,0.0,0.0,0.0,-2.4109,0.0,0.0,0.0,0.0,0.0,0.0,0.0,0.0,0.0,0.0,0.0,0.0,0.0,0.0,0.0,0.0,0.0,0.0,0.0,0.0,-4.721,-4.7681,-4.7717,-4.7717,-4.7717,-4.7717,-4.7717,-4.7717,-4.7717,-4.7717,-4.7717,-4.7717,-4.7717,-4.7717,-4.7819,-4.7861,-4.7759,-4.8028,-4.8148,-4.805,-4.819,-4.8267,-4.8306,-4.8306,-4.8363,-4.8457,-4.8363,-4.8363,-4.8513,-4.8457,-4.8457,-4.8457,-2.1936,-2.2246,0.0,0.0,0.0,0.0,0.0,0.0,-2.2062,-2.2557,-2.2634,-2.3433,0.0,0.0,0.0,0.0,0.0,0.0,-2.4103,0.0,-2.6554,-2.445,-2.4247,-2.4192,-2.4192,-2.3511,-2.3144,-2.3144,0.0,0.0,0.0,0.0,0.0,0.0,-2.3107,0.0,0.0,0.0,-2.9547,0.0,-3.5634,-3.7121,0.0,-4.1344,-4.2099,-4.1379,-4.3661,-4.4487,-4.4111,0.0,-4.0309,-3.9145,0.0,-3.3487,0.0,0.0,0.0,0.0,0.0,0.0,0.0,0.0,-2.3941,0.0,0.0,0.0,0.0,0.0,0.0,0.0,0.0,0.0,0.0,0.0,0.0,0.0,0.0,0.0,0.0,0.0,0.0,0.0,0.0,0.0,0.0,-4.7554,-4.7717,-4.7717,-4.7717,-4.7717,-4.7717,-4.7717,-4.7717,-4.7717,-4.7717,-4.7717,-4.7717,-4.7717,-4.7819,-4.7902,-4.7861,-4.7988,-4.809,-4.8187,-4.8187,-4.8247,-4.8306,-4.8306,-4.8306,-4.8306,-4.8306,-4.8363,-4.8513,-4.8363,-4.8306,-4.8306,-2.368,-2.389,0.0,0.0,0.0,0.0,0.0,0.0,-2.2427,-2.2703,-2.2712,0.0,0.0,0.0,0.0,0.0,0.0,-2.932,0.0,0.0,-2.7498,-2.654,0.0,0.0,-2.3511,-2.3162,-2.2776,-2.2299,-2.1986,0.0,0.0,0.0,0.0,0.0,-2.3492,0.0,-2.6847,0.0,0.0,0.0,0.0,0.0,0.0,-4.1547,-4.309,-4.2956,-4.3031,-4.3688,-4.3989,0.0,-4.0671,0.0,0.0,0.0,0.0,0.0,0.0,0.0,0.0,0.0,0.0,0.0,0.0,0.0,0.0,0.0,-2.5779,0.0,0.0,0.0,0.0,0.0,0.0,0.0,0.0,0.0,0.0,0.0,0.0,0.0,0.0,0.0,0.0,0.0,0.0,0.0,0.0,-4.5327,-4.6269,-4.7192,-4.7717,-4.7717,-4.7717,-4.7717,-4.7717,-4.7777,-4.7819,-4.7819,-4.8006,-4.8046,-4.7988,-4.813,-4.8169,-4.8187,-4.8247,-4.8267,-4.8306,-4.8306,-4.8306,-4.8306,-4.8306,-4.8344,-4.8363,-4.8306,-4.8306,-4.8306,-2.4681,0.0,0.0,0.0,0.0,0.0,0.0,0.0,0.0,0.0,0.0,0.0,-2.7387,-2.6987,0.0,0.0,0.0,-3.2045,0.0,0.0,-2.9289,-2.9373,-2.6076,0.0,0.0,0.0,-2.228,-2.1437,-2.1216,0.0,0.0,0.0,0.0,0.0,0.0,-2.4966,-2.7004,0.0,0.0,-3.4316,-3.6467,-3.7958,-3.92,-4.1672,-4.3407,-4.4346,-4.3125,-4.3482,-4.3951,-4.0234,-4.0783,0.0,-3.9071,0.0,0.0,0.0,0.0,0.0,-3.002,0.0,0.0,0.0,0.0,0.0,0.0,0.0,0.0,0.0,0.0,0.0,0.0,0.0,0.0,0.0,0.0,0.0,0.0,0.0,0.0,0.0,0.0,0.0,0.0,0.0,0.0,0.0,-4.2864,0.0,-4.4892,-4.6721,-4.7717,-4.7717,-4.7717,-4.7717,-4.7717,-4.7819,-4.7902,-4.7902,-4.8087,-4.8148,-4.8032,-4.8229,-4.8286,-4.8226,-4.8267,-4.8306,-4.8306,-4.8306,-4.8306,-4.8306,-4.8306,-4.8306,-4.8306,-4.8306,-4.8306,-4.8306,-2.4021,-2.4021,0.0,0.0,0.0,0.0,0.0,0.0,0.0,0.0,0.0,0.0,0.0,0.0,0.0,0.0,0.0,-3.3768,-3.3899,0.0,-3.2711,0.0,0.0,-2.5116,0.0,0.0,-2.1414,-2.0539,-1.9767,-1.9396,0.0,0.0,0.0,0.0,0.0,-2.4431,-2.7115,-3.194,-3.5052,-3.71,-4.1083,-4.3208,-4.3829,0.0,-4.2393,-4.4496,-4.4458,0.0,0.0,-4.1567,-4.0297,0.0,0.0,0.0,0.0,0.0,0.0,0.0,0.0,0.0,0.0,-2.9637,0.0,0.0,0.0,0.0,-2.6385,0.0,0.0,0.0,0.0,0.0,-2.8677,-2.77,0.0,0.0,0.0,0.0,0.0,0.0,0.0,0.0,0.0,0.0,0.0,0.0,-4.1615,0.0,-4.4077,-4.6413,-4.7717,-4.7717,-4.7717,-4.7717,-4.7717,-4.7819,-4.7902,-4.7902,-4.8087,-4.8187,-4.8187,-4.8286,-4.8306,-4.8306,-4.8306,-4.8306,-4.8306,-4.8306,-4.8306,-4.8306,-4.8306,-4.8306,-4.8306,-4.8306,-4.8306,-4.8306,0.0,0.0,0.0,0.0,0.0,0.0,0.0,-2.3394,0.0,0.0,0.0,0.0,0.0,0.0,-3.2905,0.0,0.0,-3.7553,-3.609,-3.5936,0.0,0.0,0.0,-2.924,0.0,0.0,0.0,-2.1359,-2.0549,-2.0423,0.0,0.0,0.0,0.0,0.0,-2.397,0.0,0.0,0.0,0.0,0.0,-4.2146,-4.2006,0.0,0.0,-4.444,-4.444,-4.444,0.0,-4.1642,-4.1646,-4.2473,-4.1132,-3.9888,-3.9425,-4.1848,-3.9253,0.0,0.0,0.0,-3.7035,-3.5754,0.0,0.0,0.0,0.0,0.0,0.0,0.0,0.0,0.0,0.0,-2.9092,-2.875,-2.9021,-2.9074,0.0,0.0,0.0,0.0,0.0,0.0,0.0,0.0,0.0,-3.6834,-3.7757,-3.9025,0.0,-4.3733,-4.5562,-4.6087,-4.7156,-4.7759,-4.7819,-4.7907,-4.8028,-4.8087,-4.8208,-4.8286,-4.8286,-4.8267,-4.8306,-4.8306,-4.8306,-4.8306,-4.8306,-4.8306,-4.8306,-4.8306,-4.8306,-4.8306,-4.8306,-4.8306,-4.8306,-4.8306,-2.3753,0.0,0.0,0.0,0.0,0.0,0.0,0.0,0.0,0.0,-2.9036,0.0,-3.47,0.0,-3.5539,0.0,-3.8223,-3.9115,-3.9143,-3.7296,0.0,-3.9394,-3.4955,0.0,0.0,0.0,0.0,0.0,-2.2606,-2.2055,0.0,0.0,0.0,0.0,0.0,0.0,0.0,0.0,-3.5198,0.0,0.0,-4.1732,0.0,0.0,-4.3519,-4.4373,0.0,-4.4411,-4.4224,-4.2656,-4.3127,-4.4092,-4.2592,-4.2031,-4.2249,-4.3886,-4.1715,-3.9088,-4.0561,-4.0933,0.0,-3.9266,-3.7683,0.0,-3.5331,0.0,0.0,0.0,0.0,0.0,0.0,0.0,-3.0555,-2.99,-2.9622,-2.9353,0.0,-2.8767,0.0,0.0,0.0,0.0,0.0,0.0,-3.2091,-3.3556,-3.4733,-3.6309,0.0,0.0,-4.4458,-4.5273,-4.6866,-4.7759,-4.7902,-4.7988,-4.809,-4.8187,-4.8286,-4.8306,-4.8306,-4.8306,-4.8306,-4.8306,-4.8306,-4.8306,-4.8306,-4.8306,-4.8306,-4.8306,-4.8306,-4.8306,-4.8306,-4.8306,-4.8306,-4.8306,0.0,0.0,0.0,0.0,-2.2832,0.0,0.0,0.0,-2.914,0.0,-3.319,-3.3634,-3.6597,-3.5222,-3.5261,-3.8193,-3.7558,0.0,-4.2487,-3.7424,0.0,0.0,-3.5935,-3.3611,-3.6555,0.0,0.0,0.0,0.0,0.0,0.0,0.0,0.0,0.0,-2.3914,0.0,-2.6022,-3.107,-3.4357,-3.6412,-3.9427,-4.2025,-4.3837,-4.1408,0.0,-4.4314,-4.4373,-4.4383,-4.443,-4.4468,-4.4515,-4.4515,-4.4515,-4.4515,-4.4515,-4.4515,-4.4515,-4.4487,-4.4344,-4.4314,-4.3519,-4.0198,0.0,0.0,0.0,0.0,-3.5807,0.0,0.0,0.0,0.0,0.0,0.0,-3.1128,-3.0152,-2.9474,-2.9075,0.0,0.0,0.0,0.0,0.0,0.0,-3.0749,-3.1473,-2.9924,-3.2705,0.0,0.0,0.0,-4.4204,-4.52,-4.6685,-4.7596,-4.7902,-4.7897,-4.8017,-4.8187,-4.8286,-4.8306,-4.8306,-4.8306,-4.8306,-4.8306,-4.8306,-4.8306,-4.8306,-4.8306,-4.8306,-4.8306,-4.8306,-4.8306,-4.8306,-4.8306,-4.8306,-4.8306,-2.316,-2.2712,-2.2884,0.0,-2.4488,-2.5643,0.0,0.0,0.0,0.0,-3.4436,-3.581,-3.7178,-3.8629,-3.8765,-3.6984,-3.8456,0.0,0.0,0.0,0.0,-4.3192,-4.0959,-3.922,-3.829,-3.5863,0.0,-3.3099,0.0,0.0,-2.9023,0.0,0.0,0.0,0.0,0.0,-2.6097,-3.2262,-3.6689,-3.9539,-3.9802,-4.057,0.0,0.0,-4.267,-4.4285,-4.4255,-4.4285,-4.4344,-4.4383,-4.4411,-4.444,-4.4487,-4.4515,-4.4515,-4.4515,-4.4515,-4.4487,-4.4458,-4.4458,-4.4224,-4.322,-4.154,-3.9937,0.0,0.0,0.0,0.0,0.0,0.0,0.0,0.0,0.0,-3.2997,-3.1054,-2.957,0.0,0.0,0.0,0.0,0.0,0.0,0.0,0.0,-3.0876,-2.9888,-3.1673,0.0,0.0,0.0,0.0,-4.4277,-4.4336,-4.5467,-4.7951,-4.6903,-4.6998,-4.8267,-4.8306,-4.8306,-4.8306,-4.8306,-4.8306,-4.8306,-4.8306,-4.8306,-4.8306,-4.8306,-4.8306,-4.8306,-4.8306,-4.8306,-4.8306,-4.8306,-4.8306,-4.8306,-2.316,0.0,0.0,-2.4195,0.0,0.0,-2.9196,0.0,0.0,-3.5508,-3.6422,0.0,-3.8819,-4.0353,-4.0499,-3.87,-3.8861,0.0,0.0,0.0,0.0,-4.3419,-4.2478,-4.1259,-3.9939,-3.8667,0.0,-3.6676,0.0,0.0,-3.185,0.0,0.0,0.0,0.0,-2.6776,0.0,-3.3589,-3.7885,-4.069,-4.029,0.0,0.0,-4.163,-4.2614,-4.4344,-4.4274,-4.4274,-4.4314,-4.4344,-4.4373,-4.4411,-4.444,-4.4487,-4.4515,-4.4515,-4.4515,-4.4515,-4.4515,-4.4515,-4.4487,-4.4401,-4.3306,-4.223,-4.2202,-4.1137,-4.0207,0.0,0.0,0.0,0.0,0.0,0.0,0.0,0.0,0.0,0.0,0.0,0.0,0.0,0.0,0.0,0.0,0.0,0.0,-2.9337,-3.0441,0.0,0.0,0.0,0.0,-4.1488,-4.2923,-4.4235,-4.5423,-4.4949,-4.5553,-4.726,-4.726,-4.7627,-4.8306,-4.8306,-4.8306,-4.8306,-4.8306,-4.8306,-4.8306,-4.8306,-4.8306,-4.8306,-4.842,-4.842,-4.8439,-4.8532,-4.8458,-4.8306,0.0,0.0,0.0,0.0,0.0,0.0,0.0,-3.3248,0.0,-3.9043,0.0,-3.8612,-4.0388,-4.0931,-4.1204,-4.1305,0.0,-3.9222,-4.2425,-3.8988,-3.881,-4.3226,-4.2173,-4.1484,-4.1484,-4.0867,0.0,0.0,0.0,0.0,0.0,0.0,0.0,0.0,0.0,0.0,0.0,-3.4726,-3.8109,0.0,-4.084,-4.2187,-4.3792,-4.1919,-4.2556,-4.4411,-4.4344,-4.4314,-4.4314,-4.4314,-4.4354,-4.4383,-4.4411,-4.444,-4.4515,-4.4515,-4.4515,-4.4515,-4.4515,-4.4515,-4.4515,-4.4515,-4.4515,-4.4515,-4.4578,-4.4672,-4.4783,-4.4966,-4.5009,-4.4631,0.0,0.0,0.0,0.0,0.0,0.0,0.0,0.0,0.0,0.0,0.0,0.0,0.0,0.0,0.0,0.0,0.0,0.0,0.0,0.0,0.0,-3.8434,-4.1939,0.0,-4.2461,0.0,-4.429,-4.6214,-4.5993,-4.6746,-4.8306,-4.8306,-4.8306,-4.8306,-4.8306,-4.8306,-4.8306,-4.8306,-4.8306,-4.8344,-4.8514,-4.8623,-4.866,-4.882,-4.8714,-4.8458,0.0,0.0,0.0,0.0,0.0,-3.2145,-3.5921,-3.7629,-3.8577,-3.8767,-3.9664,0.0,-3.9094,-4.1035,-4.1873,-4.0613,-4.0371,0.0,0.0,0.0,0.0,-4.2904,-4.3065,-4.3109,-4.3109,-4.2962,-4.2923,0.0,0.0,0.0,0.0,0.0,0.0,0.0,0.0,0.0,-3.5108,-3.4872,0.0,-4.0505,-4.1378,-4.159,-4.1623,-4.323,-4.4093,-4.4468,-4.443,-4.4344,-4.4314,-4.4354,-4.4383,-4.4411,-4.4487,-4.4487,-4.4515,-4.4515,-4.4515,-4.4515,-4.4515,-4.4515,-4.4515,-4.4515,-4.4515,-4.4515,-4.4496,-4.5021,-4.5519,-4.5529,-4.6111,-4.6525,-4.6364,0.0,0.0,0.0,0.0,0.0,0.0,0.0,0.0,0.0,0.0,0.0,0.0,0.0,0.0,0.0,0.0,0.0,0.0,0.0,0.0,0.0,0.0,0.0,0.0,0.0,-4.4966,-4.7865,-4.6526,-4.6746,-4.8306,-4.8306,-4.8306,-4.8306,-4.8306,-4.8306,-4.8306,-4.8306,-4.842,-4.855,-4.8587,-4.8714,-4.8855,-4.8909,-4.899,-4.9126,0.0,0.0,0.0,0.0,0.0,0.0,0.0,-3.8905,0.0,-3.9871,-4.0422,-4.0595,-3.9853,-4.1331,-4.223,-4.1945,-4.1671,-4.2087,-4.3405,-4.2177,-4.212,-4.3743,-4.3613,0.0,-4.2268,-4.3057,-4.3128,-4.2283,0.0,0.0,-3.6279,0.0,0.0,0.0,0.0,-3.2249,0.0,0.0,0.0,-4.0617,-4.2455,-4.2987,-4.279,-4.399,-4.4487,-4.4515,-4.444,-4.443,-4.4401,-4.4373,-4.4354,-4.4411,-4.4458,-4.4468,-4.4515,-4.4515,-4.4515,-4.4515,-4.4515,-4.4515,-4.4515,-4.4515,-4.4515,-4.4627,-4.504,-4.5416,-4.5829,-4.6279,-4.6711,-4.6617,-4.5359,-4.3194,0.0,0.0,0.0,0.0,0.0,0.0,0.0,0.0,0.0,0.0,0.0,0.0,0.0,0.0,0.0,0.0,0.0,0.0,0.0,0.0,0.0,0.0,0.0,0.0,0.0,-4.7058,-4.6269,-4.6746,-4.8306,-4.8306,-4.8306,-4.8306,-4.8306,-4.8382,-4.8439,-4.8569,-4.8678,-4.8785,-4.8855,-4.8959,-4.9079,-4.9164,-4.9469,-4.9746,0.0,-2.892,0.0,0.0,-3.2783,0.0,0.0,-3.9664,-4.1543,-4.0957,-4.1164,-4.1302,-4.1129,-4.1923,-4.2641,-4.3093,-4.2853,-4.3286,-4.4615,-4.3597,-4.3283,-4.3998,-4.3866,-4.3075,-4.1644,-4.2837,-4.2873,0.0,0.0,0.0,0.0,0.0,0.0,0.0,0.0,0.0,0.0,0.0,-4.0719,-4.1446,-4.3568,-4.4411,-4.4411,-4.4411,-4.444,-4.4515,-4.4515,-4.4515,-4.4487,-4.4373,-4.4373,-4.4411,-4.4411,-4.4458,-4.4515,-4.4515,-4.4515,-4.4515,-4.4515,-4.4515,-4.4515,-4.4515,-4.4515,-4.4721,-4.5528,-4.5848,-4.6223,-4.7087,-4.7406,-4.688,-4.4758,-4.4089,0.0,0.0,0.0,0.0,0.0,0.0,0.0,0.0,0.0,0.0,0.0,0.0,0.0,0.0,0.0,0.0,0.0,0.0,0.0,0.0,0.0,-3.968,-4.0836,0.0,-4.3681,0.0,-4.6103,-4.6783,-4.8306,-4.8382,-4.842,-4.8382,-4.842,-4.8532,-4.8678,-4.882,-4.8943,-4.8978,-4.9146,-4.9244,-4.9352,-4.9514,-4.9868,-5.0252,0.0,0.0,0.0,0.0,0.0,0.0,0.0,-4.1612,-4.0957,-4.0888,-4.2144,-4.2681,-4.1957,-4.3199,-4.356,-4.2241,-4.3715,-4.361,-4.1022,-4.345,-4.4082,-4.1995,-4.3633,-4.4176,-4.3277,-4.3406,-4.3424,0.0,0.0,0.0,0.0,0.0,0.0,0.0,0.0,0.0,0.0,-4.0034,-4.1646,-4.3804,-4.4213,-4.4458,-4.4487,-4.4487,-4.4487,-4.4515,-4.4515,-4.4515,-4.4515,-4.4487,-4.4487,-4.4487,-4.4487,-4.4487,-4.4515,-4.4515,-4.4515,-4.4515,-4.4515,-4.4515,-4.4515,-4.4515,-4.4515,-4.4721,-4.5528,-4.6317,-4.7105,-4.7913,-4.872,-4.8976,-4.8089,-4.66,-4.4655,0.0,0.0,0.0,0.0,0.0,0.0,0.0,0.0,0.0,0.0,0.0,0.0,0.0,0.0,0.0,0.0,0.0,0.0,-3.5009,0.0,-3.7716,-3.9992,-4.1534,0.0,-4.8067,-4.6781,-4.6929,-4.8306,-4.8678,-4.875,-4.8587,-4.875,-4.8855,-4.8855,-4.8909,-4.9012,-4.9179,-4.9179,-4.9408,-4.9749,-4.9749,-5.0111,-5.0567,0.0,0.0,0.0,0.0,0.0,0.0,0.0,-4.244,-4.275,-4.2368,-4.2834,-4.3111,-4.2733,-4.3647,-4.4162,-4.3847,-4.4984,-4.5435,-4.4736,-4.549,-4.5645,-4.4929,-4.4748,-4.4562,-4.4232,-4.3736,-4.3497,0.0,0.0,0.0,0.0,0.0,0.0,0.0,0.0,-3.9187,-4.037,-4.2002,-4.3312,-4.4277,-4.4383,-4.4411,-4.444,-4.444,-4.444,-4.4515,-4.4515,-4.4515,-4.4515,-4.4515,-4.4515,-4.4515,-4.4515,-4.4515,-4.4515,-4.4515,-4.4515,-4.4515,-4.4515,-4.4515,-4.4515,-4.4515,-4.4515,-4.4853,-4.6186,-4.6749,-4.7387,-4.8701,-4.9265,-4.9396,-4.9032,-4.8401,-4.7162,0.0,0.0,0.0,0.0,0.0,0.0,0.0,0.0,0.0,0.0,0.0,0.0,0.0,0.0,0.0,0.0,0.0,0.0,-3.6413,0.0,-3.9725,-4.3461,-4.3269,-4.4871,-4.8288,-4.7832,-4.7941,-4.8476,-4.8785,-4.8874,-4.8785,-4.9012,-4.9079,-4.9079,-4.9197,-4.9313,-4.9377,-4.9377,-4.9548,-4.9803,-4.9803,-5.014,-5.0587,-3.9956,0.0,-3.7939,0.0,-4.0353,-4.1078,-4.1198,-4.3147,-4.4182,-4.2975,-4.3406,-4.3751,-4.3577,-4.4165,-4.456,-4.4471,-4.5558,-4.61,-4.5814,-4.6248,-4.6468,-4.619,-4.5552,0.0,-4.4727,-4.414,-4.3736,-4.3497,-4.0084,0.0,0.0,0.0,0.0,0.0,-4.0031,-4.1304,-4.1582,-4.3479,-4.4344,-4.4411,-4.4411,-4.4411,-4.4411,-4.4411,-4.4458,-4.4487,-4.4487,-4.4458,-4.4458,-4.444,-4.4487,-4.4468,-4.4487,-4.4515,-4.4515,-4.4487,-4.4487,-4.4515,-4.4487,-4.4487,-4.4515,-4.4515,-4.4515,-4.4946,-4.6617,-4.7012,-4.7481,-4.9152,-4.9509,-4.9459,-4.939,-4.9459,-4.8727,-4.6379,0.0,0.0,0.0,0.0,0.0,0.0,0.0,-3.6855,-3.9327,0.0,0.0,0.0,0.0,0.0,0.0,0.0,0.0,0.0,0.0,0.0,0.0,-4.349,-4.4912,-4.8495,-4.8678,-4.875,-4.8714,-4.8909,-4.9012,-4.9079,-4.923,-4.9295,-4.9313,-4.9427,-4.9509,-4.9509,-4.9509,-4.9655,-4.9936,-4.9936,-5.0233,-5.07,-4.3454,-4.3276,-4.337,-4.4061,-4.4199,-4.3716,-4.2199,-4.3923,-4.4596,-4.2302,-4.3992,-4.5113,-4.4354,-4.4941,-4.4803,-4.337,-4.5033,-4.4887,-4.177,-4.491,-4.6032,0.0,0.0,-4.587,-4.471,-4.4709,-4.4305,-4.3497,0.0,0.0,-3.867,0.0,-3.9074,-3.9955,-4.2595,-4.3828,-4.3968,-4.4207,-4.4373,-4.4515,-4.4515,-4.4515,-4.4515,-4.4515,-4.4458,-4.4383,-4.4383,-4.4373,-4.4314,-4.4383,-4.4383,-4.4411,-4.4487,-4.4515,-4.4487,-4.4411,-4.4458,-4.4487,-4.4411,-4.444,-4.4515,-4.4515,-4.4515,-4.4946,-4.6617,-4.7012,-4.7481,-4.9152,-4.9509,-4.9509,-4.9509,-4.9509,-4.8915,-4.7166,0.0,0.0,0.0,0.0,0.0,0.0,-3.5664,-3.4134,-3.6869,0.0,0.0,0.0,0.0,0.0,0.0,0.0,0.0,-3.4173,-3.3491,0.0,-4.042,-4.1237,-4.4079,-4.8909,-4.9079,-4.9079,-4.8909,-4.9113,-4.9295,-4.949,-4.9509,-4.9509,-4.9509,-4.9509,-4.9509,-4.9509,-4.9509,-4.9778,-5.0206,-5.0206,-5.0489,-5.089,-4.045,-4.2467,-4.4071,-4.3694,-4.4508,-4.4993,-4.4406,-4.4958,-4.5165,-4.4423,-4.4975,-4.5337,-4.5096,-4.5285,-4.5234,0.0,-4.4352,-4.4321,0.0,-4.4812,-4.5176,-4.5942,-4.5197,-4.4605,-4.4231,-4.3467,-4.2947,-4.2671,0.0,0.0,0.0,-3.9515,-4.0524,-4.2411,-4.3481,-4.3942,-4.4036,-4.4296,-4.4458,-4.4515,-4.4515,-4.4515,-4.4515,-4.4515,-4.4487,-4.4487,-4.4487,-4.443,-4.4354,-4.4383,-4.4354,-4.4344,-4.4344,-4.443,-4.4487,-4.4411,-4.4458,-4.4487,-4.4411,-4.444,-4.4515,-4.4515,-4.4515,-4.4796,-4.5866,-4.6993,-4.8138,-4.9265,-4.9509,-4.9509,-4.9509,-4.9509,-4.8945,-4.7245,-4.7585,0.0,0.0,0.0,0.0,0.0,0.0,-3.7628,0.0,-3.7633,0.0,0.0,0.0,0.0,0.0,0.0,0.0,0.0,-3.9413,0.0,-4.4525,-4.4339,-4.581,-4.8909,-4.9113,-4.923,-4.9313,-4.9396,-4.9427,-4.9509,-4.9509,-4.9509,-4.9509,-4.9509,-4.9509,-4.9509,-4.9509,-4.9797,-5.0206,-5.0206,-5.0489,-5.0906,-4.1673,-4.3502,-4.495,-4.4314,-4.5042,-4.5338,-4.437,-4.4906,-4.5165,-4.4251,-4.4889,-4.5423,-4.5423,-4.5423,0.0,-4.5423,-4.4561,-4.456,-4.5835,-4.4998,-4.5102,-4.6595,-4.5499,-4.4869,-4.4907,0.0,0.0,-4.3204,-4.1882,-4.124,-4.124,-4.1323,-4.2165,-4.3634,-4.3942,-4.4097,-4.4147,-4.4383,-4.4515,-4.4515,-4.4515,-4.4515,-4.4515,-4.4515,-4.4487,-4.444,-4.444,-4.443,-4.4373,-4.4383,-4.4373,-4.4314,-4.4344,-4.4373,-4.4401,-4.4344,-4.4401,-4.4458,-4.4383,-4.443,-4.4515,-4.4515,-4.4515,-4.4721,-4.5528,-4.6993,-4.8345,-4.8908,-4.9265,-4.9509,-4.9509,-4.9509,-4.9152,-4.8052,-4.839,-4.8084,-4.6087,0.0,0.0,0.0,0.0,0.0,0.0,-3.969,0.0,0.0,0.0,0.0,0.0,0.0,0.0,-3.9533,-4.136,0.0,-4.5736,-4.5641,-4.6782,-4.9131,-4.9262,-4.9377,-4.9509,-4.9509,-4.9509,-4.9509,-4.9509,-4.9509,-4.9509,-4.9509,-4.9509,-4.949,-4.9574,-4.9868,-5.0206,-5.0298,-5.0587,-5.0906,-4.5656,-4.5748,0.0,0.0,-4.5751,0.0,-4.2788,-4.4246,-4.4802,-4.2558,-4.4096,-4.5423,-4.5423,-4.5423,-4.5423,-4.5423,0.0,0.0,0.0,-4.532,-4.5511,-4.6137,-4.6081,-4.607,-4.6217,-4.5482,-4.4976,-4.4709,-4.3883,-4.3532,-4.3513,-4.3719,-4.3804,-4.3837,-4.4165,-4.4285,-4.4314,-4.4458,-4.4515,-4.4515,-4.4515,-4.4515,-4.4515,-4.4515,-4.4458,-4.4411,-4.4411,-4.4354,-4.4314,-4.4383,-4.4373,-4.4314,-4.4373,-4.4344,-4.4285,-4.4214,-4.4285,-4.4383,-4.4314,-4.4401,-4.4487,-4.4487,-4.4487,-4.4721,-4.551,-4.6899,-4.8044,-4.8101,-4.8758,-4.934,-4.934,-4.934,-4.929,-4.9171,-4.8503,-4.7928,-4.7684,0.0,0.0,0.0,0.0,0.0,0.0,-4.0985,-4.1304,0.0,0.0,0.0,0.0,0.0,-3.631,-3.8751,-4.0384,-4.2374,-4.474,-4.5566,-4.7143,-4.9509,-4.9509,-4.9509,-4.9509,-4.9509,-4.9509,-4.9509,-4.9509,-4.9509,-4.949,-4.9521,-4.9521,-4.9532,-4.9759,-4.9993,-5.0252,-5.0507,-5.0736,-5.0906,0.0,0.0,-4.5705,-4.4418,-4.5187,-4.5748,-4.5039,-4.532,-4.5373,-4.4836,-4.5131,-4.5423,-4.5423,-4.5423,-4.5423,-4.5423,-4.4371,-4.4199,-4.5354,-4.4354,-4.4267,-4.5511,-4.4736,-4.4337,-4.4357,-4.4289,-4.4413,-4.4709,-4.3883,-4.3566,-4.3719,-4.3771,-4.3851,-4.3942,-4.4195,-4.4285,-4.4314,-4.4458,-4.4515,-4.4515,-4.4515,-4.4515,-4.4515,-4.4515,-4.4487,-4.4487,-4.4487,-4.4411,-4.4383,-4.4383,-4.4373,-4.4285,-4.4274,-4.4244,-4.4214,-4.4214,-4.4274,-4.4314,-4.4244,-4.4285,-4.4344,-4.4344,-4.4401,-4.4617,-4.5442,-4.5988,-4.6486,-4.7162,-4.7462,-4.7594,-4.7594,-4.7594,-4.7594,-4.7545,-4.7297,-4.6461,-4.4607,-4.3548,0.0,0.0,-4.0619,-4.1207,-4.1653,-4.2881,-4.2919,0.0,0.0,0.0,0.0,-4.1421,-4.1983,-4.3895,-4.4984,-4.611,-4.7312,-4.8176,-4.8908,-4.9509,-4.9509,-4.9509,-4.9509,-4.9509,-4.9509,-4.9509,-4.9509,-4.9509,-4.9521,-4.9683,-4.9731,-4.974,-5.0012,-5.0275,-5.0527,-5.0567,-5.0736,-5.0906,-4.3272,-4.4799,-4.5909,-4.5019,-4.5513,-4.6023,-4.5821,-4.577,-4.5736,-4.5528,-4.5528,-4.5476,-4.5423,-4.5423,-4.5423,-4.5423,-4.4682,-4.4561,-4.5372,-4.4665,-4.4561,-4.5389,-4.4801,-4.4565,-4.4857,-4.4573,-4.4425,-4.4381,-4.3883,-4.3686,-4.3804,-4.3966,-4.4073,-4.4147,-4.4314,-4.4401,-4.4401,-4.4458,-4.4515,-4.4515,-4.4515,-4.4515,-4.4515,-4.4515,-4.4515,-4.4515,-4.4515,-4.4487,-4.4458,-4.4458,-4.4383,-4.4344,-4.4314,-4.4255,-4.4244,-4.4244,-4.4244,-4.4244,-4.4214,-4.4244,-4.4314,-4.4344,-4.4354,-4.4524,-4.4974,-4.5396,-4.579,-4.6259,-4.6701,-4.6982,-4.6952,-4.6952,-4.6934,-4.6855,-4.587,-4.4624,-4.3249,-4.2034,0.0,-4.0611,-4.1322,-4.2192,-4.3033,-4.3942,-4.4102,-4.3106,0.0,0.0,-4.4233,-4.3933,-4.4515,-4.6242,-4.7105,-4.7763,-4.8194,-4.9058,-4.9509,-4.9509,-4.9509,-4.9509,-4.9509,-4.9509,-4.9509,-4.9509,-4.9509,-4.9563,-4.9655,-4.9768,-4.9865,-4.9993,-5.0275,-5.0467,-5.0606,-5.07,-5.0805,-5.0906,-4.6172,-4.6172,-4.6172,-4.6172,-4.6172,-4.6122,-4.5871,-4.5922,-4.5821,-4.5528,-4.5528,-4.5528,-4.5423,-4.5423,-4.5423,-4.5423,-4.5423,-4.5423,-4.5423,-4.5423,-4.5423,-4.5423,-4.5423,-4.5615,-4.6087,-4.5299,-4.4715,-4.4243,-4.4013,-4.3882,-4.3902,-4.4165,-4.4314,-4.4344,-4.4458,-4.4515,-4.4515,-4.4515,-4.4515,-4.4515,-4.4515,-4.4515,-4.4515,-4.4515,-4.4515,-4.4515,-4.4515,-4.4515,-4.4515,-4.4515,-4.444,-4.4411,-4.4411,-4.4373,-4.4314,-4.4314,-4.4274,-4.4214,-4.4184,-4.4244,-4.4285,-4.4325,-4.4354,-4.4383,-4.4458,-4.4955,-4.5413,-4.5413,-4.6023,-4.6577,-4.6518,-4.6506,-4.6394,-4.6003,-4.4229,-4.2791,-4.2425,0.0,-4.0197,-4.1614,-4.2006,-4.2744,-4.4252,-4.4543,-4.4956,-4.5612,-4.4637,-4.4937,0.0,-4.5931,-4.5875,-4.7331,-4.7913,-4.8251,-4.8382,-4.9133,-4.9509,-4.9509,-4.9509,-4.9509,-4.9509,-4.9509,-4.9509,-4.949,-4.9532,-4.9655,-4.9803,-4.9891,-5.0043,-5.0275,-5.0528,-5.0663,-5.0682,-5.0841,-5.0906,-5.0906,-4.6172,-4.6172,-4.6172,-4.6172,-4.6172,-4.6189,-4.6122,-4.5972,-4.5821,-4.5736,-4.5581,-4.5423,-4.5423,-4.5423,-4.5423,-4.5423,-4.5423,-4.5423,-4.5423,-4.5423,-4.5423,-4.5423,-4.5423,-4.5423,-4.5511,-4.5219,-4.5143,-4.5349,-4.4656,-4.4257,-4.4226,-4.4285,-4.4373,-4.4458,-4.4487,-4.4515,-4.4515,-4.4515,-4.4515,-4.4515,-4.4515,-4.4515,-4.4515,-4.4515,-4.4515,-4.4515,-4.4515,-4.4515,-4.4515,-4.4515,-4.4487,-4.4468,-4.4411,-4.4383,-4.4354,-4.4314,-4.4285,-4.4255,-4.4214,-4.4135,-4.4036,-4.4067,-4.4147,-4.4244,-4.4244,-4.4397,-4.4501,-4.4501,-4.4614,-4.4736,-4.4707,-4.4707,-4.424,-4.2801,-4.2259,-4.1502,-4.0057,0.0,-4.1437,-4.1679,-4.2965,-4.3964,-4.4296,-4.4931,-4.541,-4.5611,-4.6625,-4.7479,-4.7988,-4.8359,-4.8734,-4.9114,-4.8514,-4.8551,-4.9283,-4.9434,-4.9509,-4.9509,-4.9509,-4.9509,-4.9509,-4.9509,-4.9509,-4.949,-4.9693,-4.9776,-4.9857,-5.0298,-5.0488,-5.0567,-5.0771,-5.0839,-5.0858,-5.089,-5.0906,-5.0906,-4.6172,-4.6172,-4.6172,-4.6172,-4.6172,-4.6172,-4.6122,-4.6023,-4.5972,-4.5821,-4.5787,-4.5667,-4.5528,-4.5528,-4.5476,-4.5423,-4.5423,-4.5423,-4.5423,-4.5423,-4.5423,-4.5423,-4.5423,-4.5563,-4.587,-4.5378,-4.5169,-4.5261,-4.4803,-4.4368,-4.3986,-4.4266,-4.443,-4.4515,-4.4515,-4.4515,-4.4515,-4.4515,-4.4515,-4.4515,-4.4515,-4.4515,-4.4515,-4.4515,-4.4515,-4.4515,-4.4515,-4.4515,-4.4515,-4.4515,-4.4515,-4.4487,-4.444,-4.444,-4.4458,-4.443,-4.4344,-4.4304,-4.4214,-4.4165,-4.4147,-4.4135,-4.4135,-4.4214,-4.4244,-4.4244,-4.4244,-4.4244,-4.4255,-4.4285,-4.4244,-4.4244,-4.3983,-4.3218,-4.2294,0.0,0.0,-4.1165,-4.1649,-4.1649,-4.3178,-4.4214,-4.4244,-4.4591,-4.523,-4.6139,-4.6894,-4.7748,-4.8752,-4.9134,-4.9358,-4.9509,-4.9114,-4.9096,-4.9509,-4.9509,-4.9509,-4.9509,-4.9509,-4.9509,-4.9509,-4.9509,-4.9509,-4.9521,-4.9703,-4.9865,-5.0062,-5.0446,-5.0644,-5.0771,-5.0855,-5.0906,-5.0906,-5.0906,-5.0906,-5.0906,-4.6172,-4.6172,-4.6172,-4.6172,-4.6172,-4.6172,-4.6023,-4.6073,-4.6023,-4.5821,-4.5821,-4.577,-4.5632,-4.5581,-4.5528,-4.5423,-4.5423,-4.5423,-4.5423,-4.5423,-4.5423,-4.5423,-4.5423,-4.5649,-4.6182,-4.5572,-4.5138,-4.4939,-4.4798,-4.4343,-4.3642,-4.414,-4.4383,-4.4383,-4.4487,-4.4515,-4.4515,-4.4515,-4.4515,-4.4515,-4.4515,-4.4515,-4.4515,-4.4515,-4.4515,-4.4515,-4.4515,-4.4515,-4.4515,-4.4515,-4.4515,-4.4515,-4.4515,-4.4515,-4.4515,-4.4515,-4.443,-4.4314,-4.4244,-4.4244,-4.4255,-4.4214,-4.4184,-4.4165,-4.4226,-4.4195,-4.4135,-4.4135,-4.4195,-4.4226,-4.4165,-4.4135,-4.4023,-4.3651,0.0,0.0,0.0,-4.159,-4.1739,-4.211,-4.3341,-4.4135,-4.4135,-4.4363,-4.5058,-4.6309,-4.657,-4.7348,-4.8902,-4.9008,-4.9152,-4.949,-4.9509,-4.9509,-4.9509,-4.9509,-4.9509,-4.9509,-4.9509,-4.9509,-4.9509,-4.9509,-4.9509,-4.9521,-4.9787,-4.9993,-5.023,-5.0528,-5.0754,-5.0906,-5.0906,-5.0906,-5.0921,-5.0921,-5.0917,-5.0952,-4.6023,-4.6122,-4.6172,-4.6023,-4.6122,-4.6172,-4.6023,-4.5922,-4.5821,-4.5821,-4.5581,-4.5476,-4.5581,-4.5476,-4.5423,-4.5423,-4.5423,-4.5423,-4.5423,-4.5423,-4.5423,-4.5423,-4.5423,-4.5528,-4.5821,-4.5768,-4.5439,-4.4815,-4.4803,-4.4313,-4.344,-4.3841,-4.4036,-4.4067,-4.4354,-4.4515,-4.4515,-4.4515,-4.4515,-4.4515,-4.4515,-4.4515,-4.4515,-4.4515,-4.4515,-4.4515,-4.4515,-4.4515,-4.4515,-4.4515,-4.4515,-4.4515,-4.4515,-4.4515,-4.4515,-4.4515,-4.4487,-4.4458,-4.4314,-4.4244,-4.4214,-4.4184,-4.4104,-4.4005,-4.4005,-4.4005,-4.4005,-4.4005,-4.4005,-4.4005,-4.4005,-4.4005,-4.3522,-4.2017,0.0,0.0,-4.159,-4.159,-4.2147,-4.3652,-4.3931,-4.4005,-4.4005,-4.4761,-4.5313,-4.5469,-4.6177,-4.7061,-4.8053,-4.8153,-4.8602,-4.9471,-4.9509,-4.9509,-4.9509,-4.9509,-4.9509,-4.9509,-4.9509,-4.9509,-4.9509,-4.9509,-4.9509,-4.9521,-4.9981,-5.0183,-5.023,-5.0699,-5.089,-5.0906,-5.0906,-5.0952,-5.099,-5.099,-5.103,-5.1093,-4.6023,-4.6023,-4.6073,-4.6122,-4.6073,-4.6073,-4.6023,-4.5871,-4.577,-4.577,-4.5718,-4.5632,-4.5615,-4.5563,-4.5476,-4.5423,-4.5423,-4.5423,-4.5423,-4.5423,-4.5423,-4.5423,-4.5423,-4.5598,-4.6102,-4.5905,-4.5462,-4.4731,-4.4773,-4.4209,-4.3032,-4.344,-4.3777,-4.4005,-4.4128,-4.4325,-4.4515,-4.4515,-4.4515,-4.4515,-4.4515,-4.4515,-4.4515,-4.4515,-4.4515,-4.4515,-4.4515,-4.4515,-4.4515,-4.4515,-4.4515,-4.4515,-4.4515,-4.4515,-4.4515,-4.4515,-4.4515,-4.4487,-4.443,-4.4373,-4.4314,-4.4214,-4.4153,-4.4104,-4.4005,-4.4005,-4.4005,-4.4005,-4.4005,-4.4005,-4.4005,-4.4005,-4.3801,-4.3188,0.0,-4.3095,-4.3095,-4.3095,-4.3318,-4.3931,-4.4005,-4.4005,-4.4005,-4.4302,-4.4711,-4.5313,-4.5629,-4.6201,-4.7098,-4.7703,-4.8178,-4.8546,-4.9033,-4.9377,-4.9509,-4.9509,-4.9509,-4.9509,-4.9509,-4.9509,-4.9509,-4.9509,-4.9509,-4.9521,-5.0043,-5.0237,-5.0233,-5.0797,-5.1004,-5.0961,-5.1004,-5.1043,-5.1069,-5.1069,-5.1081,-5.1105,-4.5871,-4.5922,-4.5972,-4.6023,-4.5972,-4.5922,-4.5871,-4.5787,-4.5736,-4.5736,-4.5718,-4.5684,-4.5632,-4.5581,-4.5528,-4.5423,-4.5423,-4.5423,-4.5423,-4.5423,-4.5423,-4.5423,-4.5423,-4.5701,-4.6133,-4.5955,-4.5431,-4.4553,-4.4614,-4.396,-4.2637,-4.3032,-4.3371,-4.3627,-4.3744,-4.4017,-4.4354,-4.4354,-4.4411,-4.4515,-4.4515,-4.4458,-4.4354,-4.4354,-4.4277,-4.4151,-4.4151,-4.4151,-4.417,-4.4306,-4.4354,-4.4354,-4.4487,-4.4515,-4.4515,-4.4515,-4.4515,-4.4515,-4.4515,-4.4487,-4.4383,-4.4285,-4.4244,-4.4195,-4.4085,-4.4055,-4.4055,-4.4005,-4.4005,-4.4005,-4.4005,-4.4005,-4.4005,-4.4005,-4.4005,-4.4005,-4.4005,-4.4005,-4.4005,-4.4005,-4.4005,-4.4005,-4.4005,-4.4005,-4.4246,-4.4841,-4.4878,-4.5263,-4.6177,-4.7061,-4.7703,-4.7996,-4.8557,-4.9001,-4.944,-4.9459,-4.9459,-4.9509,-4.9509,-4.9509,-4.9509,-4.9509,-4.9509,-4.9521,-4.9968,-5.0145,-5.0183,-5.0675,-5.0879,-5.0883,-5.0928,-5.097,-5.0965,-5.0965,-5.1037,-5.1105,-4.5667,-4.5718,-4.5787,-4.5615,-4.5718,-4.577,-4.5632,-4.5632,-4.5632,-4.5632,-4.5476,-4.5476,-4.5563,-4.5476,-4.5423,-4.5423,-4.5423,-4.5423,-4.5423,-4.5528,-4.5528,-4.5423,-4.5528,-4.5667,-4.5787,-4.5922,-4.5418,-4.4324,-4.4324,-4.3598,-4.2328,-4.2637,-4.281,-4.281,-4.3212,-4.3627,-4.4005,-4.4005,-4.4188,-4.4487,-4.4487,-4.4277,-4.4005,-4.4005,-4.3744,-4.3406,-4.3406,-4.3406,-4.3474,-4.386,-4.4005,-4.4067,-4.4383,-4.4515,-4.4515,-4.4515,-4.4515,-4.4515,-4.4515,-4.4515,-4.4487,-4.4411,-4.4344,-4.4285,-4.4214,-4.4184,-4.4165,-4.4036,-4.4005,-4.4005,-4.4005,-4.4005,-4.4005,-4.4005,-4.4005,-4.4005,-4.4005,-4.4005,-4.4005,-4.4005,-4.4005,-4.4005,-4.4005,-4.4005,-4.4005,-4.4005,-4.4005,-4.4408,-4.5339,-4.6158,-4.701,-4.7946,-4.7996,-4.8421,-4.9289,-4.9308,-4.9358,-4.9509,-4.9509,-4.9509,-4.9509,-4.9509,-4.9509,-4.9521,-4.9703,-4.9884,-5.0012,-5.0275,-5.0467,-5.0587,-5.0587,-5.0643,-5.0696,-5.0696,-5.0859,-5.1105,-4.5718,-4.5684,-4.5684,-4.5718,-4.5684,-4.5632,-4.5632,-4.5528,-4.5476,-4.5476,-4.5423,-4.5423,-4.5476,-4.5423,-4.5423,-4.5423,-4.5423,-4.5423,-4.5528,-4.5581,-4.5615,-4.5667,-4.5718,-4.577,-4.577,-4.5922,-4.5387,-4.417,-4.4261,-4.3598,-4.2287,-4.2414,-4.2577,-4.281,-4.2922,-4.3212,-4.3594,-4.3594,-4.366,-4.3726,-4.3726,-4.3675,-4.3594,-4.3594,-4.3508,-4.3406,-4.3406,-4.3594,-4.3841,-4.3955,-4.4158,-4.4354,-4.4487,-4.4515,-4.4515,-4.4515,-4.4515,-4.4515,-4.4515,-4.4515,-4.4487,-4.4411,-4.4383,-4.4354,-4.4304,-4.4255,-4.4244,-4.4165,-4.4135,-4.4104,-4.4005,-4.4005,-4.4005,-4.4005,-4.4005,-4.4005,-4.4005,-4.4085,-4.4104,-4.4005,-4.4085,-4.4085,-4.4005,-4.4005,-4.4005,-4.4005,-4.4005,-4.4116,-4.4389,-4.5226,-4.6076,-4.6927,-4.7504,-4.8245,-4.915,-4.9244,-4.9358,-4.9509,-4.9509,-4.9509,-4.9509,-4.9509,-4.9509,-4.9521,-4.9757,-4.9905,-5.0038,-5.0392,-5.0586,-5.0661,-5.0711,-5.0844,-5.0978,-5.0978,-5.1097,-5.1239,-4.577,-4.5718,-4.5718,-4.5787,-4.5667,-4.5632,-4.5632,-4.5476,-4.5423,-4.5423,-4.5423,-4.5423,-4.5423,-4.5423,-4.5423,-4.5423,-4.5511,-4.5615,-4.5752,-4.5803,-4.5871,-4.5871,-4.5922,-4.5922,-4.5871,-4.6023,-4.5576,-4.4583,-4.4375,-4.3757,-4.2668,-4.243,-4.2432,-4.2616,-4.2616,-4.2828,-4.3177,-4.3177,-4.3248,-4.3406,-4.3406,-4.3283,-4.314,-4.2776,-4.2577,-4.2395,-4.2014,-4.205,-4.2297,-4.2617,-4.3092,-4.352,-4.352,-4.352,-4.352,-4.352,-4.352,-4.3595,-4.3933,-4.4026,-4.4074,-4.4365,-4.444,-4.4411,-4.4354,-4.4344,-4.4314,-4.4244,-4.4244,-4.4214,-4.4085,-4.4085,-4.4055,-4.4005,-4.4005,-4.4005,-4.4055,-4.4135,-4.4184,-4.4116,-4.4195,-4.4195,-4.4116,-4.4085,-4.4055,-4.4005,-4.4005,-4.4005,-4.4005,-4.4506,-4.5305,-4.6457,-4.6977,-4.7828,-4.9101,-4.9183,-4.9295,-4.9409,-4.9409,-4.9409,-4.9409,-4.9459,-4.949,-4.9452,-4.974,-4.9884,-5.0025,-5.0259,-5.041,-5.0489,-5.0509,-5.0605,-5.0711,-5.0778,-5.0912,-5.1078,-4.5821,-4.5821,-4.577,-4.577,-4.5718,-4.5632,-4.5632,-4.5528,-4.5423,-4.5423,-4.5423,-4.5423,-4.5423,-4.5423,-4.5423,-4.5423,-4.5649,-4.5837,-4.5988,-4.6137,-4.6154,-4.6023,-4.6122,-4.6122,-4.6023,-4.6122,-4.5901,-4.5305,-4.4675,-4.4032,-4.3269,-4.2668,-4.2358,-4.2287,-4.2287,-4.2494,-4.2772,-4.2772,-4.2959,-4.3283,-4.3228,-4.2978,-4.2535,-4.1665,-4.1145,-4.0753,-3.9926,-3.9603,-3.9783,-4.0575,-4.1352,-4.1991,-4.1991,-4.1991,-4.1991,-4.1991,-4.1991,-4.2187,-4.2975,-4.3182,-4.3388,-4.4195,-4.4402,-4.4393,-4.4411,-4.4411,-4.4383,-4.4314,-4.4314,-4.4285,-4.4214,-4.4184,-4.4153,-4.4005,-4.4005,-4.4036,-4.4165,-4.4184,-4.4244,-4.4285,-4.4314,-4.4314,-4.4285,-4.4244,-4.4153,-4.4036,-4.4005,-4.4005,-4.4005,-4.4079,-4.4841,-4.6438,-4.6568,-4.74,-4.9083,-4.9068,-4.915,-4.9308,-4.9308,-4.9308,-4.9289,-4.944,-4.9471,-4.9446,-4.9615,-4.9816,-5.0005,-5.0005,-5.0063,-5.0188,-5.0133,-5.0108,-5.0163,-5.0339,-5.0548,-5.0748,-4.5922,-4.5871,-4.577,-4.577,-4.5787,-4.5787,-4.5787,-4.5615,-4.5581,-4.5581,-4.5476,-4.5423,-4.5423,-4.5423,-4.5423,-4.5423,-4.5649,-4.5786,-4.5871,-4.6055,-4.6204,-4.6172,-4.6172,-4.6189,-4.6172,-4.6189,-4.5901,-4.5305,-4.5176,-4.4473,-4.3287,-4.3152,-4.281,-4.2287,-4.2287,-4.2351,-4.2414,-4.2414,-4.2454,-4.248,-4.1791,-4.1461,-4.1292,-4.0352,-3.9988,-3.9868,-3.9673,-3.9783,-4.0202,-4.1011,-4.1585,-4.1991,-4.1991,-4.1991,-4.1991,-4.1991,-4.1991,-4.2029,-4.2243,-4.2299,-4.2506,-4.3351,-4.3557,-4.3726,-4.4337,-4.4487,-4.4458,-4.4383,-4.4383,-4.4344,-4.4214,-4.4184,-4.4153,-4.4005,-4.4005,-4.4005,-4.4036,-4.4195,-4.4255,-4.4214,-4.4314,-4.4373,-4.4314,-4.4285,-4.4226,-4.4165,-4.4153,-4.4104,-4.4005,-4.4655,-4.5472,-4.6475,-4.7107,-4.7906,-4.8943,-4.8943,-4.9046,-4.9211,-4.9211,-4.9276,-4.9384,-4.9402,-4.9495,-4.9634,-4.9692,-4.9788,-4.9906,-4.9906,-5.0005,-5.0133,-5.0108,-5.0193,-5.0361,-5.0568,-5.0745,-5.0879,-4.6073,-4.6023,-4.5972,-4.5972,-4.5922,-4.5871,-4.5871,-4.577,-4.5667,-4.5632,-4.5528,-4.5476,-4.5423,-4.5423,-4.5373,-4.5231,-4.5446,-4.5435,-4.5102,-4.5228,-4.5434,-4.5659,-4.5694,-4.5852,-4.6172,-4.6172,-4.6046,-4.5738,-4.5434,-4.4929,-4.4253,-4.358,-4.3099,-4.2757,-4.2448,-4.2073,-4.1693,-4.1693,-4.1421,-4.0989,-4.0499,-4.0339,-4.025,-3.9332,-3.8992,-3.8938,-3.8488,-3.864,-3.9067,-3.9694,-4.0193,-4.0568,-4.0783,-4.0854,-4.0854,-4.0854,-4.0854,-4.0947,-4.1323,-4.1436,-4.1642,-4.2468,-4.2994,-4.3501,-4.4327,-4.4515,-4.4487,-4.444,-4.4458,-4.443,-4.4314,-4.4285,-4.4255,-4.4177,-4.4147,-4.4128,-4.4207,-4.4266,-4.4344,-4.4344,-4.4401,-4.4411,-4.4354,-4.4344,-4.4314,-4.4244,-4.4214,-4.4184,-4.4104,-4.4872,-4.5658,-4.6475,-4.7274,-4.8091,-4.889,-4.8909,-4.9012,-4.9197,-4.9244,-4.934,-4.9495,-4.9525,-4.9585,-4.9692,-4.9778,-4.9843,-4.9952,-4.9952,-5.0005,-5.0057,-5.012,-5.0202,-5.0342,-5.0661,-5.0894,-5.1069,-4.6172,-4.6172,-4.6172,-4.6172,-4.6122,-4.6023,-4.6023,-4.5922,-4.577,-4.5667,-4.5667,-4.5563,-4.5476,-4.5355,-4.5095,-4.4743,-4.5023,-4.4915,-4.4314,-4.4279,-4.4516,-4.4917,-4.5027,-4.5396,-4.6028,-4.6168,-4.6172,-4.6172,-4.5703,-4.5429,-4.527,-4.4147,-4.3491,-4.3233,-4.2561,-4.1777,-4.0966,-4.0824,-4.0321,-3.9603,-3.9438,-3.9385,-3.9297,-3.8417,-3.8078,-3.799,-3.7255,-3.7281,-3.7685,-3.8129,-3.8573,-3.8999,-3.9439,-3.9602,-3.9602,-3.9602,-3.9602,-3.9771,-4.0403,-4.0591,-4.0797,-4.1605,-4.2337,-4.3125,-4.4083,-4.4402,-4.4515,-4.4515,-4.4515,-4.4487,-4.4411,-4.4383,-4.4383,-4.4314,-4.4285,-4.4314,-4.4373,-4.4383,-4.4411,-4.4487,-4.4487,-4.4487,-4.4411,-4.4411,-4.4401,-4.4314,-4.4274,-4.4214,-4.4184,-4.5034,-4.5839,-4.6475,-4.7404,-4.824,-4.889,-4.8943,-4.9046,-4.9244,-4.934,-4.9483,-4.9623,-4.9663,-4.9721,-4.975,-4.9843,-4.9933,-4.9978,-4.9978,-4.9978,-4.9986,-5.013,-5.0206,-5.0252,-5.0715,-5.1029,-5.1202,-4.6122,-4.6172,-4.6172,-4.6172,-4.6172,-4.6172,-4.6172,-4.6073,-4.5972,-4.5922,-4.5821,-4.5718,-4.5581,-4.506,-4.4448,-4.3781,-4.4155,-4.4385,-4.4124,-4.4233,-4.4269,-4.4237,-4.4794,-4.515,-4.5256,-4.5888,-4.6172,-4.6172,-4.6133,-4.5796,-4.5305,-4.5123,-4.4339,-4.3129,-4.2384,-4.1587,-4.079,-4.0081,-3.9727,-3.9509,-3.8775,-3.847,-3.8382,-3.7506,-3.7185,-3.715,-3.7062,-3.7281,-3.7685,-3.8129,-3.8573,-3.8999,-3.9439,-3.9602,-3.9602,-3.9602,-3.9602,-3.9639,-3.9733,-3.9771,-3.9952,-4.076,-4.1041,-4.1548,-4.3106,-4.4008,-4.4515,-4.4515,-4.4515,-4.4487,-4.4411,-4.4383,-4.4383,-4.4314,-4.4285,-4.4314,-4.4314,-4.4354,-4.4411,-4.4411,-4.444,-4.4515,-4.4487,-4.4487,-4.4458,-4.4383,-4.4383,-4.4314,-4.4214,-4.5618,-4.6429,-4.6494,-4.7961,-4.8797,-4.8909,-4.9079,-4.9244,-4.9384,-4.9555,-4.9663,-4.9692,-4.9692,-4.9759,-4.9871,-4.9898,-4.9925,-4.9906,-4.9906,-4.9906,-4.9933,-5.013,-5.0206,-5.0252,-5.0715,-5.1029,-5.1202,-4.5597,-4.5717,-4.5819,-4.6122,-4.6172,-4.6172,-4.6172,-4.6122,-4.6073,-4.6023,-4.5871,-4.5613,-4.5026,-4.453,-4.3955,-4.3325,-4.3651,-4.3606,-4.3014,-4.3022,-4.3217,-4.3527,-4.3835,-4.4177,-4.4636,-4.4971,-4.51,-4.5052,-4.58,-4.6046,-4.5761,-4.4994,-4.4265,-4.3588,-4.2493,-4.1273,-4.0047,-3.9676,-3.8982,-3.8113,-3.7739,-3.7558,-3.7523,-3.715,-3.6987,-3.6987,-3.6987,-3.7108,-3.7376,-3.808,-3.8418,-3.8693,-3.9388,-3.9602,-3.9602,-3.9602,-3.9602,-3.9602,-3.9602,-3.9602,-3.9695,-4.0027,-4.0459,-4.1116,-4.2299,-4.3238,-4.397,-4.4421,-4.4515,-4.4487,-4.4458,-4.4458,-4.4458,-4.443,-4.4401,-4.4401,-4.4401,-4.443,-4.4458,-4.4458,-4.4487,-4.4515,-4.4515,-4.4515,-4.4487,-4.4458,-4.4411,-4.4373,-4.4274,-4.5761,-4.6573,-4.6494,-4.8054,-4.8909,-4.8909,-4.9113,-4.9276,-4.9415,-4.9585,-4.975,-4.9816,-4.9816,-4.9843,-4.9898,-4.9898,-4.9967,-5.0076,-5.0076,-5.0135,-5.0256,-5.0509,-5.0661,-5.0784,-5.0995,-5.1114,-5.1202]}]]